<?xml version="1.0" encoding="UTF-8" standalone="no" ?>
<gpx xmlns="http://www.topografix.com/GPX/1/1" xmlns:xsi="http://www.w3.org/2001/XMLSchema-instance" xsi:schemaLocation="http://www.topografix.com/GPX/1/1 http://www.topografix.com/GPX/1/1/gpx.xsd" version="1.1" creator="VisuGPX - https://www.visugpx.com">
  <metadata>
    <name>Bordezac - Aujac</name>
    <desc><![CDATA[Randonnée faite le 13 octobre 2020]]></desc>
  </metadata>
  <trk>
    <name><![CDATA[2020-10-13 16:49:27]]></name>
    <trkseg>
      <trkpt lat="44.31957" lon="4.0735">
        <ele>462.05</ele>
        <time>2020-10-13T06:47:21Z</time>
      </trkpt>
      <trkpt lat="44.31957" lon="4.07351">
        <ele>462.05</ele>
        <time>2020-10-13T06:47:22Z</time>
      </trkpt>
      <trkpt lat="44.31957" lon="4.07352">
        <ele>440.9</ele>
        <time>2020-10-13T06:47:25Z</time>
      </trkpt>
      <trkpt lat="44.31957" lon="4.07352">
        <ele>440.9</ele>
        <time>2020-10-13T06:47:26Z</time>
      </trkpt>
      <trkpt lat="44.31956" lon="4.07351">
        <ele>440.9</ele>
        <time>2020-10-13T06:47:54Z</time>
      </trkpt>
      <trkpt lat="44.31951" lon="4.07345">
        <ele>440.9</ele>
        <time>2020-10-13T06:48:12Z</time>
      </trkpt>
      <trkpt lat="44.31959" lon="4.07345">
        <ele>440.9</ele>
        <time>2020-10-13T06:48:31Z</time>
      </trkpt>
      <trkpt lat="44.3196" lon="4.07341">
        <ele>440.42</ele>
        <time>2020-10-13T06:48:49Z</time>
      </trkpt>
      <trkpt lat="44.31953" lon="4.07339">
        <ele>440.42</ele>
        <time>2020-10-13T06:49:13Z</time>
      </trkpt>
      <trkpt lat="44.31953" lon="4.07346">
        <ele>440.42</ele>
        <time>2020-10-13T06:49:40Z</time>
      </trkpt>
      <trkpt lat="44.31949" lon="4.07341">
        <ele>439.94</ele>
        <time>2020-10-13T06:50:06Z</time>
      </trkpt>
      <trkpt lat="44.31943" lon="4.07346">
        <ele>439.94</ele>
        <time>2020-10-13T06:50:22Z</time>
      </trkpt>
      <trkpt lat="44.31944" lon="4.07352">
        <ele>439.94</ele>
        <time>2020-10-13T06:50:37Z</time>
      </trkpt>
      <trkpt lat="44.31942" lon="4.07355">
        <ele>439.46</ele>
        <time>2020-10-13T06:50:56Z</time>
      </trkpt>
      <trkpt lat="44.31941" lon="4.07362">
        <ele>439.46</ele>
        <time>2020-10-13T06:51:11Z</time>
      </trkpt>
      <trkpt lat="44.31937" lon="4.07365">
        <ele>439.46</ele>
        <time>2020-10-13T06:51:25Z</time>
      </trkpt>
      <trkpt lat="44.31935" lon="4.07366">
        <ele>439.46</ele>
        <time>2020-10-13T06:51:27Z</time>
      </trkpt>
      <trkpt lat="44.31924" lon="4.07377">
        <ele>439.46</ele>
        <time>2020-10-13T06:51:39Z</time>
      </trkpt>
      <trkpt lat="44.31923" lon="4.07378">
        <ele>439.46</ele>
        <time>2020-10-13T06:51:40Z</time>
      </trkpt>
      <trkpt lat="44.31921" lon="4.07381">
        <ele>439.46</ele>
        <time>2020-10-13T06:51:43Z</time>
      </trkpt>
      <trkpt lat="44.31902" lon="4.07399">
        <ele>438.98</ele>
        <time>2020-10-13T06:52:01Z</time>
      </trkpt>
      <trkpt lat="44.31896" lon="4.07406">
        <ele>438.98</ele>
        <time>2020-10-13T06:52:08Z</time>
      </trkpt>
      <trkpt lat="44.31891" lon="4.07413">
        <ele>438.98</ele>
        <time>2020-10-13T06:52:14Z</time>
      </trkpt>
      <trkpt lat="44.31872" lon="4.07444">
        <ele>437.06</ele>
        <time>2020-10-13T06:52:35Z</time>
      </trkpt>
      <trkpt lat="44.31869" lon="4.07475">
        <ele>437.06</ele>
        <time>2020-10-13T06:52:51Z</time>
      </trkpt>
      <trkpt lat="44.31869" lon="4.07481">
        <ele>437.06</ele>
        <time>2020-10-13T06:52:54Z</time>
      </trkpt>
      <trkpt lat="44.31873" lon="4.07513">
        <ele>436.1</ele>
        <time>2020-10-13T06:53:12Z</time>
      </trkpt>
      <trkpt lat="44.31872" lon="4.07547">
        <ele>436.1</ele>
        <time>2020-10-13T06:53:29Z</time>
      </trkpt>
      <trkpt lat="44.31873" lon="4.0758">
        <ele>435.61</ele>
        <time>2020-10-13T06:53:48Z</time>
      </trkpt>
      <trkpt lat="44.31873" lon="4.07616">
        <ele>434.65</ele>
        <time>2020-10-13T06:54:07Z</time>
      </trkpt>
      <trkpt lat="44.31877" lon="4.07638">
        <ele>434.17</ele>
        <time>2020-10-13T06:54:20Z</time>
      </trkpt>
      <trkpt lat="44.31881" lon="4.07655">
        <ele>434.17</ele>
        <time>2020-10-13T06:54:34Z</time>
      </trkpt>
      <trkpt lat="44.3188" lon="4.07653">
        <ele>433.69</ele>
        <time>2020-10-13T06:54:57Z</time>
      </trkpt>
      <trkpt lat="44.31882" lon="4.07662">
        <ele>433.69</ele>
        <time>2020-10-13T06:55:10Z</time>
      </trkpt>
      <trkpt lat="44.31894" lon="4.07693">
        <ele>432.73</ele>
        <time>2020-10-13T06:55:28Z</time>
      </trkpt>
      <trkpt lat="44.3191" lon="4.07723">
        <ele>432.25</ele>
        <time>2020-10-13T06:55:46Z</time>
      </trkpt>
      <trkpt lat="44.3193" lon="4.07745">
        <ele>431.29</ele>
        <time>2020-10-13T06:56:03Z</time>
      </trkpt>
      <trkpt lat="44.31954" lon="4.07748">
        <ele>431.29</ele>
        <time>2020-10-13T06:56:19Z</time>
      </trkpt>
      <trkpt lat="44.31977" lon="4.07744">
        <ele>431.29</ele>
        <time>2020-10-13T06:56:35Z</time>
      </trkpt>
      <trkpt lat="44.32005" lon="4.07724">
        <ele>430.81</ele>
        <time>2020-10-13T06:56:56Z</time>
      </trkpt>
      <trkpt lat="44.32015" lon="4.07714">
        <ele>432.25</ele>
        <time>2020-10-13T06:57:06Z</time>
      </trkpt>
      <trkpt lat="44.32019" lon="4.07704">
        <ele>432.25</ele>
        <time>2020-10-13T06:57:22Z</time>
      </trkpt>
      <trkpt lat="44.32024" lon="4.07701">
        <ele>432.25</ele>
        <time>2020-10-13T06:57:36Z</time>
      </trkpt>
      <trkpt lat="44.32033" lon="4.07696">
        <ele>434.65</ele>
        <time>2020-10-13T06:57:48Z</time>
      </trkpt>
      <trkpt lat="44.32047" lon="4.07681">
        <ele>436.58</ele>
        <time>2020-10-13T06:58:05Z</time>
      </trkpt>
      <trkpt lat="44.32058" lon="4.07668">
        <ele>438.5</ele>
        <time>2020-10-13T06:58:19Z</time>
      </trkpt>
      <trkpt lat="44.32069" lon="4.0766">
        <ele>440.42</ele>
        <time>2020-10-13T06:58:33Z</time>
      </trkpt>
      <trkpt lat="44.32082" lon="4.07651">
        <ele>441.86</ele>
        <time>2020-10-13T06:58:49Z</time>
      </trkpt>
      <trkpt lat="44.32097" lon="4.07645">
        <ele>443.31</ele>
        <time>2020-10-13T06:59:03Z</time>
      </trkpt>
      <trkpt lat="44.32107" lon="4.07642">
        <ele>444.75</ele>
        <time>2020-10-13T06:59:17Z</time>
      </trkpt>
      <trkpt lat="44.32116" lon="4.07642">
        <ele>446.67</ele>
        <time>2020-10-13T06:59:31Z</time>
      </trkpt>
      <trkpt lat="44.32126" lon="4.07644">
        <ele>447.15</ele>
        <time>2020-10-13T06:59:46Z</time>
      </trkpt>
      <trkpt lat="44.32137" lon="4.07648">
        <ele>448.11</ele>
        <time>2020-10-13T07:00:01Z</time>
      </trkpt>
      <trkpt lat="44.32156" lon="4.07646">
        <ele>447.63</ele>
        <time>2020-10-13T07:00:18Z</time>
      </trkpt>
      <trkpt lat="44.32171" lon="4.07647">
        <ele>447.63</ele>
        <time>2020-10-13T07:00:30Z</time>
      </trkpt>
      <trkpt lat="44.32185" lon="4.07645">
        <ele>449.07</ele>
        <time>2020-10-13T07:00:41Z</time>
      </trkpt>
      <trkpt lat="44.32202" lon="4.07631">
        <ele>450.03</ele>
        <time>2020-10-13T07:00:58Z</time>
      </trkpt>
      <trkpt lat="44.32215" lon="4.0762">
        <ele>451.48</ele>
        <time>2020-10-13T07:01:12Z</time>
      </trkpt>
      <trkpt lat="44.32225" lon="4.0761">
        <ele>452.92</ele>
        <time>2020-10-13T07:01:25Z</time>
      </trkpt>
      <trkpt lat="44.32236" lon="4.07597">
        <ele>454.84</ele>
        <time>2020-10-13T07:01:40Z</time>
      </trkpt>
      <trkpt lat="44.32252" lon="4.07582">
        <ele>456.76</ele>
        <time>2020-10-13T07:01:57Z</time>
      </trkpt>
      <trkpt lat="44.32257" lon="4.07574">
        <ele>456.76</ele>
        <time>2020-10-13T07:02:05Z</time>
      </trkpt>
      <trkpt lat="44.32277" lon="4.07577">
        <ele>458.69</ele>
        <time>2020-10-13T07:02:24Z</time>
      </trkpt>
      <trkpt lat="44.32297" lon="4.07581">
        <ele>460.61</ele>
        <time>2020-10-13T07:02:41Z</time>
      </trkpt>
      <trkpt lat="44.32298" lon="4.07581">
        <ele>460.61</ele>
        <time>2020-10-13T07:02:42Z</time>
      </trkpt>
      <trkpt lat="44.32313" lon="4.0759">
        <ele>460.61</ele>
        <time>2020-10-13T07:02:57Z</time>
      </trkpt>
      <trkpt lat="44.32336" lon="4.07596">
        <ele>459.17</ele>
        <time>2020-10-13T07:03:16Z</time>
      </trkpt>
      <trkpt lat="44.32358" lon="4.07596">
        <ele>458.69</ele>
        <time>2020-10-13T07:03:34Z</time>
      </trkpt>
      <trkpt lat="44.32373" lon="4.07588">
        <ele>458.69</ele>
        <time>2020-10-13T07:03:47Z</time>
      </trkpt>
      <trkpt lat="44.32392" lon="4.07576">
        <ele>459.65</ele>
        <time>2020-10-13T07:04:03Z</time>
      </trkpt>
      <trkpt lat="44.32407" lon="4.07553">
        <ele>460.61</ele>
        <time>2020-10-13T07:04:21Z</time>
      </trkpt>
      <trkpt lat="44.32411" lon="4.07545">
        <ele>461.09</ele>
        <time>2020-10-13T07:04:28Z</time>
      </trkpt>
      <trkpt lat="44.32419" lon="4.07518">
        <ele>463.01</ele>
        <time>2020-10-13T07:04:45Z</time>
      </trkpt>
      <trkpt lat="44.3242" lon="4.07498">
        <ele>464.93</ele>
        <time>2020-10-13T07:05:02Z</time>
      </trkpt>
      <trkpt lat="44.32422" lon="4.07484">
        <ele>466.86</ele>
        <time>2020-10-13T07:05:12Z</time>
      </trkpt>
      <trkpt lat="44.32422" lon="4.07467">
        <ele>467.82</ele>
        <time>2020-10-13T07:05:25Z</time>
      </trkpt>
      <trkpt lat="44.32424" lon="4.07448">
        <ele>469.74</ele>
        <time>2020-10-13T07:05:43Z</time>
      </trkpt>
      <trkpt lat="44.32426" lon="4.0743">
        <ele>471.18</ele>
        <time>2020-10-13T07:05:59Z</time>
      </trkpt>
      <trkpt lat="44.32426" lon="4.07416">
        <ele>472.63</ele>
        <time>2020-10-13T07:06:13Z</time>
      </trkpt>
      <trkpt lat="44.32425" lon="4.074">
        <ele>473.59</ele>
        <time>2020-10-13T07:06:27Z</time>
      </trkpt>
      <trkpt lat="44.32423" lon="4.0738">
        <ele>475.99</ele>
        <time>2020-10-13T07:06:43Z</time>
      </trkpt>
      <trkpt lat="44.32422" lon="4.0736">
        <ele>477.91</ele>
        <time>2020-10-13T07:06:58Z</time>
      </trkpt>
      <trkpt lat="44.32424" lon="4.07346">
        <ele>479.35</ele>
        <time>2020-10-13T07:07:12Z</time>
      </trkpt>
      <trkpt lat="44.32431" lon="4.07333">
        <ele>480.32</ele>
        <time>2020-10-13T07:07:25Z</time>
      </trkpt>
      <trkpt lat="44.32442" lon="4.07322">
        <ele>481.76</ele>
        <time>2020-10-13T07:07:40Z</time>
      </trkpt>
      <trkpt lat="44.32451" lon="4.07315">
        <ele>482.72</ele>
        <time>2020-10-13T07:07:53Z</time>
      </trkpt>
      <trkpt lat="44.32459" lon="4.07306">
        <ele>484.16</ele>
        <time>2020-10-13T07:08:08Z</time>
      </trkpt>
      <trkpt lat="44.32471" lon="4.07297">
        <ele>485.6</ele>
        <time>2020-10-13T07:08:23Z</time>
      </trkpt>
      <trkpt lat="44.32486" lon="4.07286">
        <ele>486.56</ele>
        <time>2020-10-13T07:08:39Z</time>
      </trkpt>
      <trkpt lat="44.32498" lon="4.07275">
        <ele>487.05</ele>
        <time>2020-10-13T07:08:54Z</time>
      </trkpt>
      <trkpt lat="44.32512" lon="4.07263">
        <ele>488.49</ele>
        <time>2020-10-13T07:09:11Z</time>
      </trkpt>
      <trkpt lat="44.32524" lon="4.07251">
        <ele>489.45</ele>
        <time>2020-10-13T07:09:26Z</time>
      </trkpt>
      <trkpt lat="44.32534" lon="4.07244">
        <ele>490.41</ele>
        <time>2020-10-13T07:09:39Z</time>
      </trkpt>
      <trkpt lat="44.32545" lon="4.07234">
        <ele>492.33</ele>
        <time>2020-10-13T07:09:54Z</time>
      </trkpt>
      <trkpt lat="44.32554" lon="4.07222">
        <ele>493.77</ele>
        <time>2020-10-13T07:10:10Z</time>
      </trkpt>
      <trkpt lat="44.32562" lon="4.0721">
        <ele>495.22</ele>
        <time>2020-10-13T07:10:28Z</time>
      </trkpt>
      <trkpt lat="44.32566" lon="4.07198">
        <ele>496.66</ele>
        <time>2020-10-13T07:10:42Z</time>
      </trkpt>
      <trkpt lat="44.32576" lon="4.07191">
        <ele>497.14</ele>
        <time>2020-10-13T07:10:55Z</time>
      </trkpt>
      <trkpt lat="44.32583" lon="4.07176">
        <ele>498.58</ele>
        <time>2020-10-13T07:11:08Z</time>
      </trkpt>
      <trkpt lat="44.32584" lon="4.07172">
        <ele>499.54</ele>
        <time>2020-10-13T07:11:12Z</time>
      </trkpt>
      <trkpt lat="44.3259" lon="4.07161">
        <ele>500.5</ele>
        <time>2020-10-13T07:11:25Z</time>
      </trkpt>
      <trkpt lat="44.32598" lon="4.07149">
        <ele>501.46</ele>
        <time>2020-10-13T07:11:40Z</time>
      </trkpt>
      <trkpt lat="44.32609" lon="4.07136">
        <ele>503.87</ele>
        <time>2020-10-13T07:11:55Z</time>
      </trkpt>
      <trkpt lat="44.3262" lon="4.07125">
        <ele>504.83</ele>
        <time>2020-10-13T07:12:10Z</time>
      </trkpt>
      <trkpt lat="44.3263" lon="4.07115">
        <ele>506.75</ele>
        <time>2020-10-13T07:12:25Z</time>
      </trkpt>
      <trkpt lat="44.32642" lon="4.07105">
        <ele>508.19</ele>
        <time>2020-10-13T07:12:42Z</time>
      </trkpt>
      <trkpt lat="44.32655" lon="4.07099">
        <ele>509.64</ele>
        <time>2020-10-13T07:12:58Z</time>
      </trkpt>
      <trkpt lat="44.32669" lon="4.0709">
        <ele>511.08</ele>
        <time>2020-10-13T07:13:14Z</time>
      </trkpt>
      <trkpt lat="44.32679" lon="4.07082">
        <ele>512.04</ele>
        <time>2020-10-13T07:13:30Z</time>
      </trkpt>
      <trkpt lat="44.3269" lon="4.07072">
        <ele>512.52</ele>
        <time>2020-10-13T07:13:45Z</time>
      </trkpt>
      <trkpt lat="44.32703" lon="4.0706">
        <ele>513.48</ele>
        <time>2020-10-13T07:14:01Z</time>
      </trkpt>
      <trkpt lat="44.32713" lon="4.07049">
        <ele>513.96</ele>
        <time>2020-10-13T07:14:14Z</time>
      </trkpt>
      <trkpt lat="44.32727" lon="4.07031">
        <ele>513.96</ele>
        <time>2020-10-13T07:14:31Z</time>
      </trkpt>
      <trkpt lat="44.32746" lon="4.07013">
        <ele>513.96</ele>
        <time>2020-10-13T07:14:49Z</time>
      </trkpt>
      <trkpt lat="44.32762" lon="4.07003">
        <ele>513.48</ele>
        <time>2020-10-13T07:15:06Z</time>
      </trkpt>
      <trkpt lat="44.32775" lon="4.06996">
        <ele>512.04</ele>
        <time>2020-10-13T07:15:22Z</time>
      </trkpt>
      <trkpt lat="44.32788" lon="4.06992">
        <ele>511.08</ele>
        <time>2020-10-13T07:15:37Z</time>
      </trkpt>
      <trkpt lat="44.32796" lon="4.06986">
        <ele>510.6</ele>
        <time>2020-10-13T07:15:52Z</time>
      </trkpt>
      <trkpt lat="44.32799" lon="4.06985">
        <ele>510.12</ele>
        <time>2020-10-13T07:16:05Z</time>
      </trkpt>
      <trkpt lat="44.32799" lon="4.06988">
        <ele>510.12</ele>
        <time>2020-10-13T07:16:36Z</time>
      </trkpt>
      <trkpt lat="44.32811" lon="4.06983">
        <ele>510.12</ele>
        <time>2020-10-13T07:16:49Z</time>
      </trkpt>
      <trkpt lat="44.32818" lon="4.0698">
        <ele>510.12</ele>
        <time>2020-10-13T07:16:54Z</time>
      </trkpt>
      <trkpt lat="44.32849" lon="4.0697">
        <ele>509.64</ele>
        <time>2020-10-13T07:17:14Z</time>
      </trkpt>
      <trkpt lat="44.32868" lon="4.06962">
        <ele>509.64</ele>
        <time>2020-10-13T07:17:29Z</time>
      </trkpt>
      <trkpt lat="44.32883" lon="4.06952">
        <ele>511.56</ele>
        <time>2020-10-13T07:17:43Z</time>
      </trkpt>
      <trkpt lat="44.32909" lon="4.06942">
        <ele>512.04</ele>
        <time>2020-10-13T07:18:02Z</time>
      </trkpt>
      <trkpt lat="44.32925" lon="4.06933">
        <ele>513.48</ele>
        <time>2020-10-13T07:18:17Z</time>
      </trkpt>
      <trkpt lat="44.3294" lon="4.06925">
        <ele>513.96</ele>
        <time>2020-10-13T07:18:31Z</time>
      </trkpt>
      <trkpt lat="44.32958" lon="4.06919">
        <ele>514.44</ele>
        <time>2020-10-13T07:18:46Z</time>
      </trkpt>
      <trkpt lat="44.32976" lon="4.06915">
        <ele>513.96</ele>
        <time>2020-10-13T07:19:00Z</time>
      </trkpt>
      <trkpt lat="44.32998" lon="4.06912">
        <ele>513.96</ele>
        <time>2020-10-13T07:19:19Z</time>
      </trkpt>
      <trkpt lat="44.33018" lon="4.06913">
        <ele>512.04</ele>
        <time>2020-10-13T07:19:34Z</time>
      </trkpt>
      <trkpt lat="44.33041" lon="4.06918">
        <ele>510.6</ele>
        <time>2020-10-13T07:19:51Z</time>
      </trkpt>
      <trkpt lat="44.3306" lon="4.06921">
        <ele>510.6</ele>
        <time>2020-10-13T07:20:08Z</time>
      </trkpt>
      <trkpt lat="44.33076" lon="4.06919">
        <ele>510.12</ele>
        <time>2020-10-13T07:20:22Z</time>
      </trkpt>
      <trkpt lat="44.331" lon="4.06912">
        <ele>511.56</ele>
        <time>2020-10-13T07:20:40Z</time>
      </trkpt>
      <trkpt lat="44.33115" lon="4.06909">
        <ele>512.04</ele>
        <time>2020-10-13T07:20:56Z</time>
      </trkpt>
      <trkpt lat="44.33117" lon="4.06905">
        <ele>512.52</ele>
        <time>2020-10-13T07:21:10Z</time>
      </trkpt>
      <trkpt lat="44.33114" lon="4.06905">
        <ele>512.52</ele>
        <time>2020-10-13T07:21:26Z</time>
      </trkpt>
      <trkpt lat="44.33111" lon="4.06903">
        <ele>512.04</ele>
        <time>2020-10-13T07:22:01Z</time>
      </trkpt>
      <trkpt lat="44.33119" lon="4.06904">
        <ele>512.04</ele>
        <time>2020-10-13T07:22:16Z</time>
      </trkpt>
      <trkpt lat="44.33129" lon="4.06905">
        <ele>512.04</ele>
        <time>2020-10-13T07:22:32Z</time>
      </trkpt>
      <trkpt lat="44.3313" lon="4.06895">
        <ele>512.52</ele>
        <time>2020-10-13T07:22:47Z</time>
      </trkpt>
      <trkpt lat="44.3313" lon="4.06899">
        <ele>512.52</ele>
        <time>2020-10-13T07:23:04Z</time>
      </trkpt>
      <trkpt lat="44.3313" lon="4.0691">
        <ele>512.04</ele>
        <time>2020-10-13T07:23:19Z</time>
      </trkpt>
      <trkpt lat="44.33138" lon="4.06923">
        <ele>512.04</ele>
        <time>2020-10-13T07:23:35Z</time>
      </trkpt>
      <trkpt lat="44.33137" lon="4.06922">
        <ele>512.04</ele>
        <time>2020-10-13T07:23:54Z</time>
      </trkpt>
      <trkpt lat="44.33136" lon="4.06924">
        <ele>512.04</ele>
        <time>2020-10-13T07:24:15Z</time>
      </trkpt>
      <trkpt lat="44.3314" lon="4.06928">
        <ele>512.04</ele>
        <time>2020-10-13T07:24:20Z</time>
      </trkpt>
      <trkpt lat="44.33156" lon="4.06933">
        <ele>510.6</ele>
        <time>2020-10-13T07:24:33Z</time>
      </trkpt>
      <trkpt lat="44.33161" lon="4.06934">
        <ele>510.6</ele>
        <time>2020-10-13T07:24:37Z</time>
      </trkpt>
      <trkpt lat="44.3318" lon="4.0695">
        <ele>510.12</ele>
        <time>2020-10-13T07:24:57Z</time>
      </trkpt>
      <trkpt lat="44.33191" lon="4.06948">
        <ele>510.12</ele>
        <time>2020-10-13T07:25:12Z</time>
      </trkpt>
      <trkpt lat="44.33193" lon="4.0693">
        <ele>513.48</ele>
        <time>2020-10-13T07:25:24Z</time>
      </trkpt>
      <trkpt lat="44.33199" lon="4.06908">
        <ele>514.92</ele>
        <time>2020-10-13T07:25:39Z</time>
      </trkpt>
      <trkpt lat="44.33195" lon="4.06901">
        <ele>515.88</ele>
        <time>2020-10-13T07:25:49Z</time>
      </trkpt>
      <trkpt lat="44.33205" lon="4.06891">
        <ele>516.37</ele>
        <time>2020-10-13T07:26:05Z</time>
      </trkpt>
      <trkpt lat="44.33209" lon="4.06891">
        <ele>516.37</ele>
        <time>2020-10-13T07:26:08Z</time>
      </trkpt>
      <trkpt lat="44.33224" lon="4.06889">
        <ele>517.33</ele>
        <time>2020-10-13T07:26:23Z</time>
      </trkpt>
      <trkpt lat="44.33239" lon="4.06884">
        <ele>519.25</ele>
        <time>2020-10-13T07:26:39Z</time>
      </trkpt>
      <trkpt lat="44.33252" lon="4.06882">
        <ele>521.17</ele>
        <time>2020-10-13T07:26:55Z</time>
      </trkpt>
      <trkpt lat="44.33265" lon="4.06877">
        <ele>522.61</ele>
        <time>2020-10-13T07:27:09Z</time>
      </trkpt>
      <trkpt lat="44.3328" lon="4.0687">
        <ele>524.54</ele>
        <time>2020-10-13T07:27:26Z</time>
      </trkpt>
      <trkpt lat="44.33294" lon="4.0686">
        <ele>526.46</ele>
        <time>2020-10-13T07:27:42Z</time>
      </trkpt>
      <trkpt lat="44.33308" lon="4.06853">
        <ele>528.38</ele>
        <time>2020-10-13T07:27:59Z</time>
      </trkpt>
      <trkpt lat="44.33322" lon="4.06847">
        <ele>529.82</ele>
        <time>2020-10-13T07:28:15Z</time>
      </trkpt>
      <trkpt lat="44.33339" lon="4.06843">
        <ele>531.27</ele>
        <time>2020-10-13T07:28:32Z</time>
      </trkpt>
      <trkpt lat="44.3335" lon="4.0684">
        <ele>532.71</ele>
        <time>2020-10-13T07:28:46Z</time>
      </trkpt>
      <trkpt lat="44.33362" lon="4.06837">
        <ele>534.15</ele>
        <time>2020-10-13T07:29:00Z</time>
      </trkpt>
      <trkpt lat="44.33374" lon="4.06834">
        <ele>535.59</ele>
        <time>2020-10-13T07:29:14Z</time>
      </trkpt>
      <trkpt lat="44.33386" lon="4.06828">
        <ele>537.03</ele>
        <time>2020-10-13T07:29:28Z</time>
      </trkpt>
      <trkpt lat="44.33402" lon="4.06819">
        <ele>539.44</ele>
        <time>2020-10-13T07:29:47Z</time>
      </trkpt>
      <trkpt lat="44.33417" lon="4.0681">
        <ele>541.36</ele>
        <time>2020-10-13T07:30:05Z</time>
      </trkpt>
      <trkpt lat="44.33421" lon="4.06809">
        <ele>541.84</ele>
        <time>2020-10-13T07:30:09Z</time>
      </trkpt>
      <trkpt lat="44.33434" lon="4.06802">
        <ele>543.76</ele>
        <time>2020-10-13T07:30:24Z</time>
      </trkpt>
      <trkpt lat="44.33447" lon="4.06796">
        <ele>545.69</ele>
        <time>2020-10-13T07:30:40Z</time>
      </trkpt>
      <trkpt lat="44.33461" lon="4.06791">
        <ele>548.09</ele>
        <time>2020-10-13T07:30:57Z</time>
      </trkpt>
      <trkpt lat="44.33474" lon="4.06787">
        <ele>549.53</ele>
        <time>2020-10-13T07:31:13Z</time>
      </trkpt>
      <trkpt lat="44.33487" lon="4.06778">
        <ele>551.45</ele>
        <time>2020-10-13T07:31:31Z</time>
      </trkpt>
      <trkpt lat="44.335" lon="4.06769">
        <ele>553.38</ele>
        <time>2020-10-13T07:31:47Z</time>
      </trkpt>
      <trkpt lat="44.33513" lon="4.06761">
        <ele>554.82</ele>
        <time>2020-10-13T07:32:02Z</time>
      </trkpt>
      <trkpt lat="44.33526" lon="4.06755">
        <ele>556.26</ele>
        <time>2020-10-13T07:32:16Z</time>
      </trkpt>
      <trkpt lat="44.33539" lon="4.06745">
        <ele>559.14</ele>
        <time>2020-10-13T07:32:32Z</time>
      </trkpt>
      <trkpt lat="44.33549" lon="4.06738">
        <ele>560.59</ele>
        <time>2020-10-13T07:32:46Z</time>
      </trkpt>
      <trkpt lat="44.33562" lon="4.06725">
        <ele>562.51</ele>
        <time>2020-10-13T07:33:02Z</time>
      </trkpt>
      <trkpt lat="44.33563" lon="4.06723">
        <ele>562.51</ele>
        <time>2020-10-13T07:33:03Z</time>
      </trkpt>
      <trkpt lat="44.33567" lon="4.06711">
        <ele>563.47</ele>
        <time>2020-10-13T07:33:13Z</time>
      </trkpt>
      <trkpt lat="44.3357" lon="4.0669">
        <ele>563.95</ele>
        <time>2020-10-13T07:33:27Z</time>
      </trkpt>
      <trkpt lat="44.33578" lon="4.06659">
        <ele>563.95</ele>
        <time>2020-10-13T07:33:46Z</time>
      </trkpt>
      <trkpt lat="44.33588" lon="4.06637">
        <ele>564.43</ele>
        <time>2020-10-13T07:34:03Z</time>
      </trkpt>
      <trkpt lat="44.33602" lon="4.06623">
        <ele>566.83</ele>
        <time>2020-10-13T07:34:20Z</time>
      </trkpt>
      <trkpt lat="44.33608" lon="4.06623">
        <ele>567.8</ele>
        <time>2020-10-13T07:34:27Z</time>
      </trkpt>
      <trkpt lat="44.33609" lon="4.06638">
        <ele>570.2</ele>
        <time>2020-10-13T07:34:43Z</time>
      </trkpt>
      <trkpt lat="44.33606" lon="4.06644">
        <ele>570.68</ele>
        <time>2020-10-13T07:34:48Z</time>
      </trkpt>
      <trkpt lat="44.33602" lon="4.06664">
        <ele>571.64</ele>
        <time>2020-10-13T07:35:05Z</time>
      </trkpt>
      <trkpt lat="44.33599" lon="4.06683">
        <ele>573.08</ele>
        <time>2020-10-13T07:35:20Z</time>
      </trkpt>
      <trkpt lat="44.33599" lon="4.06697">
        <ele>574.04</ele>
        <time>2020-10-13T07:35:31Z</time>
      </trkpt>
      <trkpt lat="44.3361" lon="4.06704">
        <ele>575.49</ele>
        <time>2020-10-13T07:35:47Z</time>
      </trkpt>
      <trkpt lat="44.33618" lon="4.06706">
        <ele>576.93</ele>
        <time>2020-10-13T07:35:58Z</time>
      </trkpt>
      <trkpt lat="44.33629" lon="4.06696">
        <ele>578.85</ele>
        <time>2020-10-13T07:36:16Z</time>
      </trkpt>
      <trkpt lat="44.33635" lon="4.06681">
        <ele>580.29</ele>
        <time>2020-10-13T07:36:30Z</time>
      </trkpt>
      <trkpt lat="44.33644" lon="4.06655">
        <ele>580.77</ele>
        <time>2020-10-13T07:36:50Z</time>
      </trkpt>
      <trkpt lat="44.33659" lon="4.06649">
        <ele>582.22</ele>
        <time>2020-10-13T07:37:06Z</time>
      </trkpt>
      <trkpt lat="44.33668" lon="4.06634">
        <ele>583.66</ele>
        <time>2020-10-13T07:37:22Z</time>
      </trkpt>
      <trkpt lat="44.33673" lon="4.06618">
        <ele>585.58</ele>
        <time>2020-10-13T07:37:40Z</time>
      </trkpt>
      <trkpt lat="44.33681" lon="4.06603">
        <ele>587.98</ele>
        <time>2020-10-13T07:37:56Z</time>
      </trkpt>
      <trkpt lat="44.33684" lon="4.066">
        <ele>589.43</ele>
        <time>2020-10-13T07:38:11Z</time>
      </trkpt>
      <trkpt lat="44.33684" lon="4.06597">
        <ele>589.43</ele>
        <time>2020-10-13T07:38:37Z</time>
      </trkpt>
      <trkpt lat="44.3369" lon="4.06598">
        <ele>590.87</ele>
        <time>2020-10-13T07:38:52Z</time>
      </trkpt>
      <trkpt lat="44.33692" lon="4.06598">
        <ele>591.35</ele>
        <time>2020-10-13T07:39:12Z</time>
      </trkpt>
      <trkpt lat="44.33695" lon="4.06602">
        <ele>591.35</ele>
        <time>2020-10-13T07:39:38Z</time>
      </trkpt>
      <trkpt lat="44.33699" lon="4.06601">
        <ele>592.31</ele>
        <time>2020-10-13T07:40:00Z</time>
      </trkpt>
      <trkpt lat="44.33702" lon="4.06603">
        <ele>592.31</ele>
        <time>2020-10-13T07:40:03Z</time>
      </trkpt>
      <trkpt lat="44.33704" lon="4.06605">
        <ele>592.79</ele>
        <time>2020-10-13T07:40:06Z</time>
      </trkpt>
      <trkpt lat="44.33717" lon="4.06608">
        <ele>594.71</ele>
        <time>2020-10-13T07:40:21Z</time>
      </trkpt>
      <trkpt lat="44.3373" lon="4.06609">
        <ele>597.12</ele>
        <time>2020-10-13T07:40:36Z</time>
      </trkpt>
      <trkpt lat="44.33743" lon="4.06605">
        <ele>599.04</ele>
        <time>2020-10-13T07:40:50Z</time>
      </trkpt>
      <trkpt lat="44.33755" lon="4.06596">
        <ele>602.4</ele>
        <time>2020-10-13T07:41:08Z</time>
      </trkpt>
      <trkpt lat="44.33766" lon="4.06588">
        <ele>605.29</ele>
        <time>2020-10-13T07:41:22Z</time>
      </trkpt>
      <trkpt lat="44.33776" lon="4.06581">
        <ele>607.21</ele>
        <time>2020-10-13T07:41:36Z</time>
      </trkpt>
      <trkpt lat="44.33784" lon="4.0657">
        <ele>610.09</ele>
        <time>2020-10-13T07:41:52Z</time>
      </trkpt>
      <trkpt lat="44.3379" lon="4.06564">
        <ele>611.54</ele>
        <time>2020-10-13T07:42:02Z</time>
      </trkpt>
      <trkpt lat="44.33795" lon="4.0655">
        <ele>614.9</ele>
        <time>2020-10-13T07:42:17Z</time>
      </trkpt>
      <trkpt lat="44.33799" lon="4.06531">
        <ele>617.78</ele>
        <time>2020-10-13T07:42:33Z</time>
      </trkpt>
      <trkpt lat="44.33807" lon="4.06522">
        <ele>619.71</ele>
        <time>2020-10-13T07:42:49Z</time>
      </trkpt>
      <trkpt lat="44.3382" lon="4.0652">
        <ele>621.63</ele>
        <time>2020-10-13T07:43:05Z</time>
      </trkpt>
      <trkpt lat="44.33828" lon="4.06515">
        <ele>624.51</ele>
        <time>2020-10-13T07:43:15Z</time>
      </trkpt>
      <trkpt lat="44.3383" lon="4.06515">
        <ele>624.51</ele>
        <time>2020-10-13T07:43:19Z</time>
      </trkpt>
      <trkpt lat="44.33836" lon="4.06513">
        <ele>626.44</ele>
        <time>2020-10-13T07:43:29Z</time>
      </trkpt>
      <trkpt lat="44.3384" lon="4.06512">
        <ele>624.51</ele>
        <time>2020-10-13T07:43:34Z</time>
      </trkpt>
      <trkpt lat="44.33843" lon="4.06509">
        <ele>624.99</ele>
        <time>2020-10-13T07:43:58Z</time>
      </trkpt>
      <trkpt lat="44.33845" lon="4.06509">
        <ele>624.99</ele>
        <time>2020-10-13T07:44:31Z</time>
      </trkpt>
      <trkpt lat="44.33846" lon="4.06512">
        <ele>624.99</ele>
        <time>2020-10-13T07:44:58Z</time>
      </trkpt>
      <trkpt lat="44.33845" lon="4.0651">
        <ele>624.51</ele>
        <time>2020-10-13T07:45:28Z</time>
      </trkpt>
      <trkpt lat="44.33843" lon="4.06507">
        <ele>624.51</ele>
        <time>2020-10-13T07:45:59Z</time>
      </trkpt>
      <trkpt lat="44.3384" lon="4.06506">
        <ele>624.51</ele>
        <time>2020-10-13T07:46:27Z</time>
      </trkpt>
      <trkpt lat="44.33842" lon="4.06507">
        <ele>624.51</ele>
        <time>2020-10-13T07:46:54Z</time>
      </trkpt>
      <trkpt lat="44.33844" lon="4.06508">
        <ele>624.51</ele>
        <time>2020-10-13T07:47:19Z</time>
      </trkpt>
      <trkpt lat="44.33842" lon="4.06508">
        <ele>624.51</ele>
        <time>2020-10-13T07:47:45Z</time>
      </trkpt>
      <trkpt lat="44.33846" lon="4.06508">
        <ele>624.51</ele>
        <time>2020-10-13T07:48:07Z</time>
      </trkpt>
      <trkpt lat="44.33847" lon="4.06509">
        <ele>624.51</ele>
        <time>2020-10-13T07:48:30Z</time>
      </trkpt>
      <trkpt lat="44.3385" lon="4.06512">
        <ele>624.51</ele>
        <time>2020-10-13T07:48:51Z</time>
      </trkpt>
      <trkpt lat="44.33849" lon="4.06513">
        <ele>624.03</ele>
        <time>2020-10-13T07:49:10Z</time>
      </trkpt>
      <trkpt lat="44.33852" lon="4.06511">
        <ele>623.55</ele>
        <time>2020-10-13T07:49:30Z</time>
      </trkpt>
      <trkpt lat="44.33857" lon="4.06505">
        <ele>623.55</ele>
        <time>2020-10-13T07:49:46Z</time>
      </trkpt>
      <trkpt lat="44.33856" lon="4.0649">
        <ele>623.55</ele>
        <time>2020-10-13T07:50:04Z</time>
      </trkpt>
      <trkpt lat="44.33855" lon="4.06485">
        <ele>621.63</ele>
        <time>2020-10-13T07:50:23Z</time>
      </trkpt>
      <trkpt lat="44.33854" lon="4.06477">
        <ele>620.19</ele>
        <time>2020-10-13T07:50:37Z</time>
      </trkpt>
      <trkpt lat="44.33857" lon="4.06465">
        <ele>617.78</ele>
        <time>2020-10-13T07:50:54Z</time>
      </trkpt>
      <trkpt lat="44.33871" lon="4.06458">
        <ele>616.34</ele>
        <time>2020-10-13T07:51:13Z</time>
      </trkpt>
      <trkpt lat="44.33884" lon="4.06444">
        <ele>616.34</ele>
        <time>2020-10-13T07:51:28Z</time>
      </trkpt>
      <trkpt lat="44.33894" lon="4.06431">
        <ele>617.3</ele>
        <time>2020-10-13T07:51:42Z</time>
      </trkpt>
      <trkpt lat="44.339" lon="4.06417">
        <ele>619.23</ele>
        <time>2020-10-13T07:51:57Z</time>
      </trkpt>
      <trkpt lat="44.33911" lon="4.06405">
        <ele>621.15</ele>
        <time>2020-10-13T07:52:13Z</time>
      </trkpt>
      <trkpt lat="44.33922" lon="4.06389">
        <ele>622.59</ele>
        <time>2020-10-13T07:52:29Z</time>
      </trkpt>
      <trkpt lat="44.33927" lon="4.0638">
        <ele>622.59</ele>
        <time>2020-10-13T07:52:36Z</time>
      </trkpt>
      <trkpt lat="44.33931" lon="4.06362">
        <ele>622.59</ele>
        <time>2020-10-13T07:52:52Z</time>
      </trkpt>
      <trkpt lat="44.33936" lon="4.0634">
        <ele>623.55</ele>
        <time>2020-10-13T07:53:08Z</time>
      </trkpt>
      <trkpt lat="44.33942" lon="4.06321">
        <ele>624.03</ele>
        <time>2020-10-13T07:53:24Z</time>
      </trkpt>
      <trkpt lat="44.33949" lon="4.06299">
        <ele>624.99</ele>
        <time>2020-10-13T07:53:40Z</time>
      </trkpt>
      <trkpt lat="44.33956" lon="4.06277">
        <ele>623.07</ele>
        <time>2020-10-13T07:53:55Z</time>
      </trkpt>
      <trkpt lat="44.33963" lon="4.06254">
        <ele>624.03</ele>
        <time>2020-10-13T07:54:13Z</time>
      </trkpt>
      <trkpt lat="44.33966" lon="4.0623">
        <ele>626.44</ele>
        <time>2020-10-13T07:54:32Z</time>
      </trkpt>
      <trkpt lat="44.33969" lon="4.06209">
        <ele>628.84</ele>
        <time>2020-10-13T07:54:50Z</time>
      </trkpt>
      <trkpt lat="44.3397" lon="4.06194">
        <ele>630.28</ele>
        <time>2020-10-13T07:55:04Z</time>
      </trkpt>
      <trkpt lat="44.33971" lon="4.06182">
        <ele>633.17</ele>
        <time>2020-10-13T07:55:19Z</time>
      </trkpt>
      <trkpt lat="44.33971" lon="4.06167">
        <ele>635.57</ele>
        <time>2020-10-13T07:55:34Z</time>
      </trkpt>
      <trkpt lat="44.33969" lon="4.06156">
        <ele>637.97</ele>
        <time>2020-10-13T07:55:49Z</time>
      </trkpt>
      <trkpt lat="44.3397" lon="4.06145">
        <ele>640.38</ele>
        <time>2020-10-13T07:56:05Z</time>
      </trkpt>
      <trkpt lat="44.33976" lon="4.06138">
        <ele>643.74</ele>
        <time>2020-10-13T07:56:21Z</time>
      </trkpt>
      <trkpt lat="44.33984" lon="4.06136">
        <ele>646.14</ele>
        <time>2020-10-13T07:56:35Z</time>
      </trkpt>
      <trkpt lat="44.3399" lon="4.0612">
        <ele>649.51</ele>
        <time>2020-10-13T07:56:51Z</time>
      </trkpt>
      <trkpt lat="44.33986" lon="4.06101">
        <ele>651.43</ele>
        <time>2020-10-13T07:57:07Z</time>
      </trkpt>
      <trkpt lat="44.33978" lon="4.06081">
        <ele>651.91</ele>
        <time>2020-10-13T07:57:22Z</time>
      </trkpt>
      <trkpt lat="44.33971" lon="4.06066">
        <ele>652.39</ele>
        <time>2020-10-13T07:57:37Z</time>
      </trkpt>
      <trkpt lat="44.3397" lon="4.06058">
        <ele>650.95</ele>
        <time>2020-10-13T07:57:44Z</time>
      </trkpt>
      <trkpt lat="44.33968" lon="4.06039">
        <ele>649.03</ele>
        <time>2020-10-13T07:57:59Z</time>
      </trkpt>
      <trkpt lat="44.3397" lon="4.06016">
        <ele>649.03</ele>
        <time>2020-10-13T07:58:16Z</time>
      </trkpt>
      <trkpt lat="44.3397" lon="4.06003">
        <ele>648.55</ele>
        <time>2020-10-13T07:58:26Z</time>
      </trkpt>
      <trkpt lat="44.33971" lon="4.0597">
        <ele>648.07</ele>
        <time>2020-10-13T07:58:46Z</time>
      </trkpt>
      <trkpt lat="44.33972" lon="4.05967">
        <ele>648.07</ele>
        <time>2020-10-13T07:58:48Z</time>
      </trkpt>
      <trkpt lat="44.33974" lon="4.05953">
        <ele>647.59</ele>
        <time>2020-10-13T07:59:03Z</time>
      </trkpt>
      <trkpt lat="44.33973" lon="4.05954">
        <ele>647.1</ele>
        <time>2020-10-13T07:59:38Z</time>
      </trkpt>
      <trkpt lat="44.33981" lon="4.05945">
        <ele>645.66</ele>
        <time>2020-10-13T07:59:59Z</time>
      </trkpt>
      <trkpt lat="44.3399" lon="4.05934">
        <ele>642.78</ele>
        <time>2020-10-13T08:00:15Z</time>
      </trkpt>
      <trkpt lat="44.33992" lon="4.05925">
        <ele>641.34</ele>
        <time>2020-10-13T08:00:27Z</time>
      </trkpt>
      <trkpt lat="44.33994" lon="4.05915">
        <ele>638.93</ele>
        <time>2020-10-13T08:00:44Z</time>
      </trkpt>
      <trkpt lat="44.34" lon="4.05901">
        <ele>636.53</ele>
        <time>2020-10-13T08:00:58Z</time>
      </trkpt>
      <trkpt lat="44.34003" lon="4.0588">
        <ele>635.57</ele>
        <time>2020-10-13T08:01:13Z</time>
      </trkpt>
      <trkpt lat="44.34007" lon="4.05861">
        <ele>635.09</ele>
        <time>2020-10-13T08:01:28Z</time>
      </trkpt>
      <trkpt lat="44.34012" lon="4.05848">
        <ele>634.13</ele>
        <time>2020-10-13T08:01:44Z</time>
      </trkpt>
      <trkpt lat="44.34011" lon="4.05832">
        <ele>632.2</ele>
        <time>2020-10-13T08:01:59Z</time>
      </trkpt>
      <trkpt lat="44.34012" lon="4.05832">
        <ele>631.72</ele>
        <time>2020-10-13T08:02:16Z</time>
      </trkpt>
      <trkpt lat="44.34014" lon="4.05828">
        <ele>630.76</ele>
        <time>2020-10-13T08:02:30Z</time>
      </trkpt>
      <trkpt lat="44.34016" lon="4.0582">
        <ele>627.88</ele>
        <time>2020-10-13T08:02:43Z</time>
      </trkpt>
      <trkpt lat="44.34021" lon="4.05811">
        <ele>624.03</ele>
        <time>2020-10-13T08:02:58Z</time>
      </trkpt>
      <trkpt lat="44.34025" lon="4.05797">
        <ele>621.63</ele>
        <time>2020-10-13T08:03:12Z</time>
      </trkpt>
      <trkpt lat="44.34022" lon="4.05777">
        <ele>620.67</ele>
        <time>2020-10-13T08:03:29Z</time>
      </trkpt>
      <trkpt lat="44.34016" lon="4.05772">
        <ele>620.19</ele>
        <time>2020-10-13T08:03:43Z</time>
      </trkpt>
      <trkpt lat="44.34017" lon="4.05771">
        <ele>620.19</ele>
        <time>2020-10-13T08:03:47Z</time>
      </trkpt>
      <trkpt lat="44.34025" lon="4.05749">
        <ele>620.19</ele>
        <time>2020-10-13T08:04:04Z</time>
      </trkpt>
      <trkpt lat="44.34026" lon="4.05723">
        <ele>619.23</ele>
        <time>2020-10-13T08:04:22Z</time>
      </trkpt>
      <trkpt lat="44.34027" lon="4.057">
        <ele>618.75</ele>
        <time>2020-10-13T08:04:39Z</time>
      </trkpt>
      <trkpt lat="44.34027" lon="4.05686">
        <ele>618.75</ele>
        <time>2020-10-13T08:04:56Z</time>
      </trkpt>
      <trkpt lat="44.34025" lon="4.05684">
        <ele>618.26</ele>
        <time>2020-10-13T08:05:11Z</time>
      </trkpt>
      <trkpt lat="44.34025" lon="4.05683">
        <ele>618.26</ele>
        <time>2020-10-13T08:05:29Z</time>
      </trkpt>
      <trkpt lat="44.34025" lon="4.05672">
        <ele>618.26</ele>
        <time>2020-10-13T08:05:41Z</time>
      </trkpt>
      <trkpt lat="44.34028" lon="4.05658">
        <ele>618.26</ele>
        <time>2020-10-13T08:05:54Z</time>
      </trkpt>
      <trkpt lat="44.34031" lon="4.05653">
        <ele>618.26</ele>
        <time>2020-10-13T08:06:07Z</time>
      </trkpt>
      <trkpt lat="44.34034" lon="4.05638">
        <ele>618.26</ele>
        <time>2020-10-13T08:06:30Z</time>
      </trkpt>
      <trkpt lat="44.34036" lon="4.05618">
        <ele>618.26</ele>
        <time>2020-10-13T08:06:46Z</time>
      </trkpt>
      <trkpt lat="44.34035" lon="4.05619">
        <ele>619.23</ele>
        <time>2020-10-13T08:06:58Z</time>
      </trkpt>
      <trkpt lat="44.34033" lon="4.0562">
        <ele>619.23</ele>
        <time>2020-10-13T08:07:15Z</time>
      </trkpt>
      <trkpt lat="44.34033" lon="4.05616">
        <ele>619.23</ele>
        <time>2020-10-13T08:07:29Z</time>
      </trkpt>
      <trkpt lat="44.34035" lon="4.05616">
        <ele>619.71</ele>
        <time>2020-10-13T08:07:41Z</time>
      </trkpt>
      <trkpt lat="44.34036" lon="4.05613">
        <ele>619.71</ele>
        <time>2020-10-13T08:08:05Z</time>
      </trkpt>
      <trkpt lat="44.34037" lon="4.05617">
        <ele>619.71</ele>
        <time>2020-10-13T08:08:29Z</time>
      </trkpt>
      <trkpt lat="44.34034" lon="4.05626">
        <ele>619.71</ele>
        <time>2020-10-13T08:08:46Z</time>
      </trkpt>
      <trkpt lat="44.34034" lon="4.05624">
        <ele>619.71</ele>
        <time>2020-10-13T08:09:05Z</time>
      </trkpt>
      <trkpt lat="44.34034" lon="4.05627">
        <ele>619.71</ele>
        <time>2020-10-13T08:09:21Z</time>
      </trkpt>
      <trkpt lat="44.34034" lon="4.05634">
        <ele>619.71</ele>
        <time>2020-10-13T08:09:34Z</time>
      </trkpt>
      <trkpt lat="44.34035" lon="4.05623">
        <ele>619.71</ele>
        <time>2020-10-13T08:09:49Z</time>
      </trkpt>
      <trkpt lat="44.34032" lon="4.05624">
        <ele>619.71</ele>
        <time>2020-10-13T08:10:04Z</time>
      </trkpt>
      <trkpt lat="44.34033" lon="4.05621">
        <ele>619.71</ele>
        <time>2020-10-13T08:10:22Z</time>
      </trkpt>
      <trkpt lat="44.34031" lon="4.05614">
        <ele>619.71</ele>
        <time>2020-10-13T08:10:41Z</time>
      </trkpt>
      <trkpt lat="44.34033" lon="4.05616">
        <ele>619.71</ele>
        <time>2020-10-13T08:10:51Z</time>
      </trkpt>
      <trkpt lat="44.34035" lon="4.05615">
        <ele>619.71</ele>
        <time>2020-10-13T08:10:53Z</time>
      </trkpt>
      <trkpt lat="44.34045" lon="4.05607">
        <ele>623.07</ele>
        <time>2020-10-13T08:11:06Z</time>
      </trkpt>
      <trkpt lat="44.34057" lon="4.05599">
        <ele>625.47</ele>
        <time>2020-10-13T08:11:22Z</time>
      </trkpt>
      <trkpt lat="44.34063" lon="4.05596">
        <ele>626.92</ele>
        <time>2020-10-13T08:11:39Z</time>
      </trkpt>
      <trkpt lat="44.34064" lon="4.05591">
        <ele>627.4</ele>
        <time>2020-10-13T08:11:56Z</time>
      </trkpt>
      <trkpt lat="44.3407" lon="4.05578">
        <ele>629.8</ele>
        <time>2020-10-13T08:12:10Z</time>
      </trkpt>
      <trkpt lat="44.34078" lon="4.05565">
        <ele>632.68</ele>
        <time>2020-10-13T08:12:24Z</time>
      </trkpt>
      <trkpt lat="44.34083" lon="4.05555">
        <ele>634.61</ele>
        <time>2020-10-13T08:12:39Z</time>
      </trkpt>
      <trkpt lat="44.34085" lon="4.05549">
        <ele>635.09</ele>
        <time>2020-10-13T08:12:58Z</time>
      </trkpt>
      <trkpt lat="44.34089" lon="4.05532">
        <ele>637.97</ele>
        <time>2020-10-13T08:13:11Z</time>
      </trkpt>
      <trkpt lat="44.34099" lon="4.05516">
        <ele>640.86</ele>
        <time>2020-10-13T08:13:25Z</time>
      </trkpt>
      <trkpt lat="44.34104" lon="4.05503">
        <ele>643.26</ele>
        <time>2020-10-13T08:13:38Z</time>
      </trkpt>
      <trkpt lat="44.34108" lon="4.05493">
        <ele>645.66</ele>
        <time>2020-10-13T08:13:51Z</time>
      </trkpt>
      <trkpt lat="44.34112" lon="4.05483">
        <ele>648.55</ele>
        <time>2020-10-13T08:14:03Z</time>
      </trkpt>
      <trkpt lat="44.34122" lon="4.05471">
        <ele>651.91</ele>
        <time>2020-10-13T08:14:18Z</time>
      </trkpt>
      <trkpt lat="44.34125" lon="4.05462">
        <ele>653.35</ele>
        <time>2020-10-13T08:14:29Z</time>
      </trkpt>
      <trkpt lat="44.34129" lon="4.05457">
        <ele>655.76</ele>
        <time>2020-10-13T08:14:42Z</time>
      </trkpt>
      <trkpt lat="44.34132" lon="4.05448">
        <ele>658.16</ele>
        <time>2020-10-13T08:14:55Z</time>
      </trkpt>
      <trkpt lat="44.34126" lon="4.05432">
        <ele>660.08</ele>
        <time>2020-10-13T08:15:10Z</time>
      </trkpt>
      <trkpt lat="44.34124" lon="4.05416">
        <ele>661.52</ele>
        <time>2020-10-13T08:15:24Z</time>
      </trkpt>
      <trkpt lat="44.34126" lon="4.05401">
        <ele>663.93</ele>
        <time>2020-10-13T08:15:40Z</time>
      </trkpt>
      <trkpt lat="44.34131" lon="4.05386">
        <ele>665.85</ele>
        <time>2020-10-13T08:15:55Z</time>
      </trkpt>
      <trkpt lat="44.34132" lon="4.05376">
        <ele>667.29</ele>
        <time>2020-10-13T08:16:10Z</time>
      </trkpt>
      <trkpt lat="44.34132" lon="4.05365">
        <ele>669.22</ele>
        <time>2020-10-13T08:16:33Z</time>
      </trkpt>
      <trkpt lat="44.34141" lon="4.05351">
        <ele>672.1</ele>
        <time>2020-10-13T08:16:51Z</time>
      </trkpt>
      <trkpt lat="44.34147" lon="4.05346">
        <ele>674.5</ele>
        <time>2020-10-13T08:17:06Z</time>
      </trkpt>
      <trkpt lat="44.34151" lon="4.05343">
        <ele>676.42</ele>
        <time>2020-10-13T08:17:24Z</time>
      </trkpt>
      <trkpt lat="44.34154" lon="4.05338">
        <ele>678.35</ele>
        <time>2020-10-13T08:17:40Z</time>
      </trkpt>
      <trkpt lat="44.3416" lon="4.05332">
        <ele>680.75</ele>
        <time>2020-10-13T08:17:55Z</time>
      </trkpt>
      <trkpt lat="44.34167" lon="4.05327">
        <ele>684.12</ele>
        <time>2020-10-13T08:18:12Z</time>
      </trkpt>
      <trkpt lat="44.34175" lon="4.05318">
        <ele>687.48</ele>
        <time>2020-10-13T08:18:25Z</time>
      </trkpt>
      <trkpt lat="44.34189" lon="4.05309">
        <ele>689.88</ele>
        <time>2020-10-13T08:18:44Z</time>
      </trkpt>
      <trkpt lat="44.34198" lon="4.05308">
        <ele>691.81</ele>
        <time>2020-10-13T08:18:59Z</time>
      </trkpt>
      <trkpt lat="44.34208" lon="4.0531">
        <ele>694.21</ele>
        <time>2020-10-13T08:19:16Z</time>
      </trkpt>
      <trkpt lat="44.3422" lon="4.05311">
        <ele>696.13</ele>
        <time>2020-10-13T08:19:32Z</time>
      </trkpt>
      <trkpt lat="44.34228" lon="4.05315">
        <ele>699.02</ele>
        <time>2020-10-13T08:19:51Z</time>
      </trkpt>
      <trkpt lat="44.34236" lon="4.05313">
        <ele>701.42</ele>
        <time>2020-10-13T08:20:07Z</time>
      </trkpt>
      <trkpt lat="44.34247" lon="4.05301">
        <ele>704.3</ele>
        <time>2020-10-13T08:20:22Z</time>
      </trkpt>
      <trkpt lat="44.34252" lon="4.05296">
        <ele>705.75</ele>
        <time>2020-10-13T08:20:35Z</time>
      </trkpt>
      <trkpt lat="44.34261" lon="4.05288">
        <ele>708.15</ele>
        <time>2020-10-13T08:20:56Z</time>
      </trkpt>
      <trkpt lat="44.3427" lon="4.05277">
        <ele>710.55</ele>
        <time>2020-10-13T08:21:12Z</time>
      </trkpt>
      <trkpt lat="44.34277" lon="4.05268">
        <ele>712.47</ele>
        <time>2020-10-13T08:21:29Z</time>
      </trkpt>
      <trkpt lat="44.34283" lon="4.05262">
        <ele>713.44</ele>
        <time>2020-10-13T08:21:46Z</time>
      </trkpt>
      <trkpt lat="44.34288" lon="4.05257">
        <ele>715.84</ele>
        <time>2020-10-13T08:22:05Z</time>
      </trkpt>
      <trkpt lat="44.34292" lon="4.05254">
        <ele>717.28</ele>
        <time>2020-10-13T08:22:22Z</time>
      </trkpt>
      <trkpt lat="44.34292" lon="4.05257">
        <ele>718.24</ele>
        <time>2020-10-13T08:22:49Z</time>
      </trkpt>
      <trkpt lat="44.34296" lon="4.05252">
        <ele>718.24</ele>
        <time>2020-10-13T08:23:08Z</time>
      </trkpt>
      <trkpt lat="44.34302" lon="4.05242">
        <ele>721.61</ele>
        <time>2020-10-13T08:23:23Z</time>
      </trkpt>
      <trkpt lat="44.34309" lon="4.05231">
        <ele>723.53</ele>
        <time>2020-10-13T08:23:36Z</time>
      </trkpt>
      <trkpt lat="44.34318" lon="4.05216">
        <ele>725.45</ele>
        <time>2020-10-13T08:23:52Z</time>
      </trkpt>
      <trkpt lat="44.3433" lon="4.05198">
        <ele>725.93</ele>
        <time>2020-10-13T08:24:09Z</time>
      </trkpt>
      <trkpt lat="44.34341" lon="4.05182">
        <ele>727.86</ele>
        <time>2020-10-13T08:24:26Z</time>
      </trkpt>
      <trkpt lat="44.34353" lon="4.05165">
        <ele>728.82</ele>
        <time>2020-10-13T08:24:43Z</time>
      </trkpt>
      <trkpt lat="44.34365" lon="4.05147">
        <ele>731.22</ele>
        <time>2020-10-13T08:25:00Z</time>
      </trkpt>
      <trkpt lat="44.34377" lon="4.05132">
        <ele>733.14</ele>
        <time>2020-10-13T08:25:19Z</time>
      </trkpt>
      <trkpt lat="44.34386" lon="4.05126">
        <ele>735.07</ele>
        <time>2020-10-13T08:25:34Z</time>
      </trkpt>
      <trkpt lat="44.34398" lon="4.05125">
        <ele>737.95</ele>
        <time>2020-10-13T08:25:53Z</time>
      </trkpt>
      <trkpt lat="44.34409" lon="4.05119">
        <ele>738.91</ele>
        <time>2020-10-13T08:26:08Z</time>
      </trkpt>
      <trkpt lat="44.34422" lon="4.05115">
        <ele>740.35</ele>
        <time>2020-10-13T08:26:25Z</time>
      </trkpt>
      <trkpt lat="44.34434" lon="4.05107">
        <ele>740.35</ele>
        <time>2020-10-13T08:26:40Z</time>
      </trkpt>
      <trkpt lat="44.34445" lon="4.05095">
        <ele>740.35</ele>
        <time>2020-10-13T08:26:55Z</time>
      </trkpt>
      <trkpt lat="44.34451" lon="4.05074">
        <ele>740.83</ele>
        <time>2020-10-13T08:27:11Z</time>
      </trkpt>
      <trkpt lat="44.3446" lon="4.05051">
        <ele>741.79</ele>
        <time>2020-10-13T08:27:28Z</time>
      </trkpt>
      <trkpt lat="44.34462" lon="4.05036">
        <ele>744.2</ele>
        <time>2020-10-13T08:27:42Z</time>
      </trkpt>
      <trkpt lat="44.34466" lon="4.05021">
        <ele>746.12</ele>
        <time>2020-10-13T08:27:57Z</time>
      </trkpt>
      <trkpt lat="44.3447" lon="4.05007">
        <ele>747.56</ele>
        <time>2020-10-13T08:28:11Z</time>
      </trkpt>
      <trkpt lat="44.34477" lon="4.04993">
        <ele>749.49</ele>
        <time>2020-10-13T08:28:24Z</time>
      </trkpt>
      <trkpt lat="44.34485" lon="4.04983">
        <ele>750.45</ele>
        <time>2020-10-13T08:28:37Z</time>
      </trkpt>
      <trkpt lat="44.34497" lon="4.04973">
        <ele>751.89</ele>
        <time>2020-10-13T08:28:52Z</time>
      </trkpt>
      <trkpt lat="44.34507" lon="4.0496">
        <ele>753.33</ele>
        <time>2020-10-13T08:29:07Z</time>
      </trkpt>
      <trkpt lat="44.34515" lon="4.04946">
        <ele>755.25</ele>
        <time>2020-10-13T08:29:22Z</time>
      </trkpt>
      <trkpt lat="44.34516" lon="4.04945">
        <ele>755.25</ele>
        <time>2020-10-13T08:29:23Z</time>
      </trkpt>
      <trkpt lat="44.34522" lon="4.04934">
        <ele>756.69</ele>
        <time>2020-10-13T08:29:34Z</time>
      </trkpt>
      <trkpt lat="44.3453" lon="4.04916">
        <ele>757.66</ele>
        <time>2020-10-13T08:29:50Z</time>
      </trkpt>
      <trkpt lat="44.3454" lon="4.04905">
        <ele>758.14</ele>
        <time>2020-10-13T08:30:03Z</time>
      </trkpt>
      <trkpt lat="44.34549" lon="4.04889">
        <ele>759.1</ele>
        <time>2020-10-13T08:30:18Z</time>
      </trkpt>
      <trkpt lat="44.34558" lon="4.04872">
        <ele>760.06</ele>
        <time>2020-10-13T08:30:33Z</time>
      </trkpt>
      <trkpt lat="44.34566" lon="4.04852">
        <ele>762.46</ele>
        <time>2020-10-13T08:30:49Z</time>
      </trkpt>
      <trkpt lat="44.3457" lon="4.04835">
        <ele>763.9</ele>
        <time>2020-10-13T08:31:04Z</time>
      </trkpt>
      <trkpt lat="44.34575" lon="4.04817">
        <ele>764.87</ele>
        <time>2020-10-13T08:31:20Z</time>
      </trkpt>
      <trkpt lat="44.34583" lon="4.04804">
        <ele>765.83</ele>
        <time>2020-10-13T08:31:34Z</time>
      </trkpt>
      <trkpt lat="44.34592" lon="4.0479">
        <ele>766.79</ele>
        <time>2020-10-13T08:31:50Z</time>
      </trkpt>
      <trkpt lat="44.34601" lon="4.04779">
        <ele>767.75</ele>
        <time>2020-10-13T08:32:04Z</time>
      </trkpt>
      <trkpt lat="44.3461" lon="4.04767">
        <ele>768.23</ele>
        <time>2020-10-13T08:32:23Z</time>
      </trkpt>
      <trkpt lat="44.34614" lon="4.0475">
        <ele>769.67</ele>
        <time>2020-10-13T08:32:35Z</time>
      </trkpt>
      <trkpt lat="44.34621" lon="4.04733">
        <ele>771.11</ele>
        <time>2020-10-13T08:32:49Z</time>
      </trkpt>
      <trkpt lat="44.34631" lon="4.04728">
        <ele>772.08</ele>
        <time>2020-10-13T08:33:02Z</time>
      </trkpt>
      <trkpt lat="44.34641" lon="4.04722">
        <ele>774</ele>
        <time>2020-10-13T08:33:16Z</time>
      </trkpt>
      <trkpt lat="44.34652" lon="4.04724">
        <ele>775.92</ele>
        <time>2020-10-13T08:33:33Z</time>
      </trkpt>
      <trkpt lat="44.34664" lon="4.04723">
        <ele>778.32</ele>
        <time>2020-10-13T08:33:48Z</time>
      </trkpt>
      <trkpt lat="44.34674" lon="4.04724">
        <ele>780.73</ele>
        <time>2020-10-13T08:34:05Z</time>
      </trkpt>
      <trkpt lat="44.34681" lon="4.04727">
        <ele>782.65</ele>
        <time>2020-10-13T08:34:20Z</time>
      </trkpt>
      <trkpt lat="44.34691" lon="4.04729">
        <ele>785.05</ele>
        <time>2020-10-13T08:34:36Z</time>
      </trkpt>
      <trkpt lat="44.34699" lon="4.04725">
        <ele>787.46</ele>
        <time>2020-10-13T08:34:50Z</time>
      </trkpt>
      <trkpt lat="44.3471" lon="4.04724">
        <ele>789.86</ele>
        <time>2020-10-13T08:35:06Z</time>
      </trkpt>
      <trkpt lat="44.34719" lon="4.04726">
        <ele>791.78</ele>
        <time>2020-10-13T08:35:23Z</time>
      </trkpt>
      <trkpt lat="44.34728" lon="4.04726">
        <ele>793.22</ele>
        <time>2020-10-13T08:35:39Z</time>
      </trkpt>
      <trkpt lat="44.34738" lon="4.04724">
        <ele>796.11</ele>
        <time>2020-10-13T08:35:56Z</time>
      </trkpt>
      <trkpt lat="44.34749" lon="4.04724">
        <ele>798.51</ele>
        <time>2020-10-13T08:36:11Z</time>
      </trkpt>
      <trkpt lat="44.34759" lon="4.04721">
        <ele>799.95</ele>
        <time>2020-10-13T08:36:27Z</time>
      </trkpt>
      <trkpt lat="44.34771" lon="4.04719">
        <ele>801.4</ele>
        <time>2020-10-13T08:36:41Z</time>
      </trkpt>
      <trkpt lat="44.34782" lon="4.04708">
        <ele>803.32</ele>
        <time>2020-10-13T08:36:58Z</time>
      </trkpt>
      <trkpt lat="44.34789" lon="4.04698">
        <ele>804.76</ele>
        <time>2020-10-13T08:37:12Z</time>
      </trkpt>
      <trkpt lat="44.34797" lon="4.04686">
        <ele>806.2</ele>
        <time>2020-10-13T08:37:26Z</time>
      </trkpt>
      <trkpt lat="44.34802" lon="4.04675">
        <ele>807.16</ele>
        <time>2020-10-13T08:37:40Z</time>
      </trkpt>
      <trkpt lat="44.34811" lon="4.04657">
        <ele>808.61</ele>
        <time>2020-10-13T08:37:56Z</time>
      </trkpt>
      <trkpt lat="44.34817" lon="4.04639">
        <ele>810.05</ele>
        <time>2020-10-13T08:38:12Z</time>
      </trkpt>
      <trkpt lat="44.34825" lon="4.04626">
        <ele>810.53</ele>
        <time>2020-10-13T08:38:27Z</time>
      </trkpt>
      <trkpt lat="44.34831" lon="4.04615">
        <ele>811.49</ele>
        <time>2020-10-13T08:38:43Z</time>
      </trkpt>
      <trkpt lat="44.34835" lon="4.04605">
        <ele>812.45</ele>
        <time>2020-10-13T08:39:01Z</time>
      </trkpt>
      <trkpt lat="44.3484" lon="4.04593">
        <ele>814.37</ele>
        <time>2020-10-13T08:39:16Z</time>
      </trkpt>
      <trkpt lat="44.34846" lon="4.04579">
        <ele>815.34</ele>
        <time>2020-10-13T08:39:30Z</time>
      </trkpt>
      <trkpt lat="44.34851" lon="4.04564">
        <ele>815.82</ele>
        <time>2020-10-13T08:39:45Z</time>
      </trkpt>
      <trkpt lat="44.34859" lon="4.04552">
        <ele>816.3</ele>
        <time>2020-10-13T08:40:01Z</time>
      </trkpt>
      <trkpt lat="44.34868" lon="4.04538">
        <ele>816.78</ele>
        <time>2020-10-13T08:40:16Z</time>
      </trkpt>
      <trkpt lat="44.34878" lon="4.04525">
        <ele>817.26</ele>
        <time>2020-10-13T08:40:31Z</time>
      </trkpt>
      <trkpt lat="44.34883" lon="4.04513">
        <ele>817.74</ele>
        <time>2020-10-13T08:40:41Z</time>
      </trkpt>
      <trkpt lat="44.34892" lon="4.04495">
        <ele>818.7</ele>
        <time>2020-10-13T08:40:56Z</time>
      </trkpt>
      <trkpt lat="44.34902" lon="4.04482">
        <ele>819.66</ele>
        <time>2020-10-13T08:41:11Z</time>
      </trkpt>
      <trkpt lat="44.34911" lon="4.04468">
        <ele>821.1</ele>
        <time>2020-10-13T08:41:25Z</time>
      </trkpt>
      <trkpt lat="44.34918" lon="4.04461">
        <ele>821.58</ele>
        <time>2020-10-13T08:41:40Z</time>
      </trkpt>
      <trkpt lat="44.34924" lon="4.04455">
        <ele>822.55</ele>
        <time>2020-10-13T08:41:49Z</time>
      </trkpt>
      <trkpt lat="44.34933" lon="4.04441">
        <ele>823.99</ele>
        <time>2020-10-13T08:42:04Z</time>
      </trkpt>
      <trkpt lat="44.34938" lon="4.04436">
        <ele>824.95</ele>
        <time>2020-10-13T08:42:11Z</time>
      </trkpt>
      <trkpt lat="44.34942" lon="4.04433">
        <ele>824.95</ele>
        <time>2020-10-13T08:42:15Z</time>
      </trkpt>
      <trkpt lat="44.34945" lon="4.04429">
        <ele>825.91</ele>
        <time>2020-10-13T08:42:19Z</time>
      </trkpt>
      <trkpt lat="44.34954" lon="4.04417">
        <ele>826.87</ele>
        <time>2020-10-13T08:42:35Z</time>
      </trkpt>
      <trkpt lat="44.34965" lon="4.04407">
        <ele>827.83</ele>
        <time>2020-10-13T08:42:50Z</time>
      </trkpt>
      <trkpt lat="44.34969" lon="4.04403">
        <ele>827.83</ele>
        <time>2020-10-13T08:43:06Z</time>
      </trkpt>
      <trkpt lat="44.34977" lon="4.04395">
        <ele>828.31</ele>
        <time>2020-10-13T08:43:22Z</time>
      </trkpt>
      <trkpt lat="44.34978" lon="4.04393">
        <ele>828.31</ele>
        <time>2020-10-13T08:43:40Z</time>
      </trkpt>
      <trkpt lat="44.34984" lon="4.0439">
        <ele>828.79</ele>
        <time>2020-10-13T08:44:05Z</time>
      </trkpt>
      <trkpt lat="44.34991" lon="4.04381">
        <ele>830.72</ele>
        <time>2020-10-13T08:44:20Z</time>
      </trkpt>
      <trkpt lat="44.34992" lon="4.0438">
        <ele>831.2</ele>
        <time>2020-10-13T08:44:46Z</time>
      </trkpt>
      <trkpt lat="44.35001" lon="4.04364">
        <ele>832.64</ele>
        <time>2020-10-13T08:44:59Z</time>
      </trkpt>
      <trkpt lat="44.35002" lon="4.04362">
        <ele>833.12</ele>
        <time>2020-10-13T08:45:01Z</time>
      </trkpt>
      <trkpt lat="44.35008" lon="4.04354">
        <ele>834.08</ele>
        <time>2020-10-13T08:45:09Z</time>
      </trkpt>
      <trkpt lat="44.35022" lon="4.04335">
        <ele>836</ele>
        <time>2020-10-13T08:45:28Z</time>
      </trkpt>
      <trkpt lat="44.35032" lon="4.04318">
        <ele>837.45</ele>
        <time>2020-10-13T08:45:43Z</time>
      </trkpt>
      <trkpt lat="44.35044" lon="4.04301">
        <ele>839.37</ele>
        <time>2020-10-13T08:45:58Z</time>
      </trkpt>
      <trkpt lat="44.35056" lon="4.04285">
        <ele>840.81</ele>
        <time>2020-10-13T08:46:15Z</time>
      </trkpt>
      <trkpt lat="44.35069" lon="4.04275">
        <ele>842.25</ele>
        <time>2020-10-13T08:46:31Z</time>
      </trkpt>
      <trkpt lat="44.35084" lon="4.04263">
        <ele>843.69</ele>
        <time>2020-10-13T08:46:47Z</time>
      </trkpt>
      <trkpt lat="44.35094" lon="4.04254">
        <ele>845.14</ele>
        <time>2020-10-13T08:47:02Z</time>
      </trkpt>
      <trkpt lat="44.35105" lon="4.04244">
        <ele>846.58</ele>
        <time>2020-10-13T08:47:18Z</time>
      </trkpt>
      <trkpt lat="44.35113" lon="4.04234">
        <ele>848.02</ele>
        <time>2020-10-13T08:47:32Z</time>
      </trkpt>
      <trkpt lat="44.35126" lon="4.04223">
        <ele>848.5</ele>
        <time>2020-10-13T08:47:51Z</time>
      </trkpt>
      <trkpt lat="44.35136" lon="4.04218">
        <ele>849.46</ele>
        <time>2020-10-13T08:48:05Z</time>
      </trkpt>
      <trkpt lat="44.35149" lon="4.04215">
        <ele>850.42</ele>
        <time>2020-10-13T08:48:20Z</time>
      </trkpt>
      <trkpt lat="44.35159" lon="4.04213">
        <ele>850.9</ele>
        <time>2020-10-13T08:48:35Z</time>
      </trkpt>
      <trkpt lat="44.3516" lon="4.04213">
        <ele>850.9</ele>
        <time>2020-10-13T08:48:58Z</time>
      </trkpt>
      <trkpt lat="44.35163" lon="4.04216">
        <ele>850.9</ele>
        <time>2020-10-13T08:49:20Z</time>
      </trkpt>
      <trkpt lat="44.35163" lon="4.04214">
        <ele>851.38</ele>
        <time>2020-10-13T08:49:40Z</time>
      </trkpt>
      <trkpt lat="44.35162" lon="4.04214">
        <ele>851.38</ele>
        <time>2020-10-13T08:50:07Z</time>
      </trkpt>
      <trkpt lat="44.35164" lon="4.04214">
        <ele>851.38</ele>
        <time>2020-10-13T08:50:26Z</time>
      </trkpt>
      <trkpt lat="44.35164" lon="4.0421">
        <ele>851.38</ele>
        <time>2020-10-13T08:50:51Z</time>
      </trkpt>
      <trkpt lat="44.35164" lon="4.04212">
        <ele>851.38</ele>
        <time>2020-10-13T08:51:11Z</time>
      </trkpt>
      <trkpt lat="44.35165" lon="4.04212">
        <ele>851.38</ele>
        <time>2020-10-13T08:51:30Z</time>
      </trkpt>
      <trkpt lat="44.35166" lon="4.04212">
        <ele>851.87</ele>
        <time>2020-10-13T08:51:58Z</time>
      </trkpt>
      <trkpt lat="44.35166" lon="4.0421">
        <ele>850.9</ele>
        <time>2020-10-13T08:52:27Z</time>
      </trkpt>
      <trkpt lat="44.3517" lon="4.04209">
        <ele>850.9</ele>
        <time>2020-10-13T08:52:49Z</time>
      </trkpt>
      <trkpt lat="44.35178" lon="4.04203">
        <ele>850.42</ele>
        <time>2020-10-13T08:53:04Z</time>
      </trkpt>
      <trkpt lat="44.35182" lon="4.04199">
        <ele>850.42</ele>
        <time>2020-10-13T08:53:09Z</time>
      </trkpt>
      <trkpt lat="44.35183" lon="4.04175">
        <ele>848.5</ele>
        <time>2020-10-13T08:53:25Z</time>
      </trkpt>
      <trkpt lat="44.35183" lon="4.04167">
        <ele>848.02</ele>
        <time>2020-10-13T08:53:42Z</time>
      </trkpt>
      <trkpt lat="44.3518" lon="4.0416">
        <ele>847.54</ele>
        <time>2020-10-13T08:53:46Z</time>
      </trkpt>
      <trkpt lat="44.35178" lon="4.04146">
        <ele>846.1</ele>
        <time>2020-10-13T08:53:56Z</time>
      </trkpt>
      <trkpt lat="44.35179" lon="4.04125">
        <ele>843.69</ele>
        <time>2020-10-13T08:54:13Z</time>
      </trkpt>
      <trkpt lat="44.3518" lon="4.04122">
        <ele>843.69</ele>
        <time>2020-10-13T08:54:21Z</time>
      </trkpt>
      <trkpt lat="44.35182" lon="4.04112">
        <ele>843.21</ele>
        <time>2020-10-13T08:54:27Z</time>
      </trkpt>
      <trkpt lat="44.35189" lon="4.04088">
        <ele>840.81</ele>
        <time>2020-10-13T08:54:43Z</time>
      </trkpt>
      <trkpt lat="44.35194" lon="4.04064">
        <ele>838.41</ele>
        <time>2020-10-13T08:54:59Z</time>
      </trkpt>
      <trkpt lat="44.35196" lon="4.0405">
        <ele>837.93</ele>
        <time>2020-10-13T08:55:08Z</time>
      </trkpt>
      <trkpt lat="44.35205" lon="4.04032">
        <ele>834.56</ele>
        <time>2020-10-13T08:55:22Z</time>
      </trkpt>
      <trkpt lat="44.35207" lon="4.04022">
        <ele>834.08</ele>
        <time>2020-10-13T08:55:30Z</time>
      </trkpt>
      <trkpt lat="44.35215" lon="4.04003">
        <ele>834.08</ele>
        <time>2020-10-13T08:55:46Z</time>
      </trkpt>
      <trkpt lat="44.35227" lon="4.03984">
        <ele>834.08</ele>
        <time>2020-10-13T08:56:01Z</time>
      </trkpt>
      <trkpt lat="44.35229" lon="4.03972">
        <ele>835.04</ele>
        <time>2020-10-13T08:56:16Z</time>
      </trkpt>
      <trkpt lat="44.35233" lon="4.03958">
        <ele>836.48</ele>
        <time>2020-10-13T08:56:30Z</time>
      </trkpt>
      <trkpt lat="44.35236" lon="4.03945">
        <ele>838.89</ele>
        <time>2020-10-13T08:56:44Z</time>
      </trkpt>
      <trkpt lat="44.35242" lon="4.0393">
        <ele>839.85</ele>
        <time>2020-10-13T08:56:59Z</time>
      </trkpt>
      <trkpt lat="44.35248" lon="4.03914">
        <ele>841.77</ele>
        <time>2020-10-13T08:57:14Z</time>
      </trkpt>
      <trkpt lat="44.35254" lon="4.03899">
        <ele>843.21</ele>
        <time>2020-10-13T08:57:29Z</time>
      </trkpt>
      <trkpt lat="44.3526" lon="4.03888">
        <ele>845.62</ele>
        <time>2020-10-13T08:57:44Z</time>
      </trkpt>
      <trkpt lat="44.35268" lon="4.03875">
        <ele>847.54</ele>
        <time>2020-10-13T08:58:00Z</time>
      </trkpt>
      <trkpt lat="44.35273" lon="4.03865">
        <ele>849.46</ele>
        <time>2020-10-13T08:58:16Z</time>
      </trkpt>
      <trkpt lat="44.35278" lon="4.03854">
        <ele>851.38</ele>
        <time>2020-10-13T08:58:31Z</time>
      </trkpt>
      <trkpt lat="44.35281" lon="4.03849">
        <ele>851.38</ele>
        <time>2020-10-13T08:58:36Z</time>
      </trkpt>
      <trkpt lat="44.35291" lon="4.03834">
        <ele>852.83</ele>
        <time>2020-10-13T08:58:52Z</time>
      </trkpt>
      <trkpt lat="44.35297" lon="4.03824">
        <ele>855.23</ele>
        <time>2020-10-13T08:59:09Z</time>
      </trkpt>
      <trkpt lat="44.35302" lon="4.03815">
        <ele>857.63</ele>
        <time>2020-10-13T08:59:26Z</time>
      </trkpt>
      <trkpt lat="44.35305" lon="4.03807">
        <ele>859.56</ele>
        <time>2020-10-13T08:59:43Z</time>
      </trkpt>
      <trkpt lat="44.35307" lon="4.03801">
        <ele>861</ele>
        <time>2020-10-13T09:00:01Z</time>
      </trkpt>
      <trkpt lat="44.35309" lon="4.03795">
        <ele>863.88</ele>
        <time>2020-10-13T09:00:15Z</time>
      </trkpt>
      <trkpt lat="44.35311" lon="4.03787">
        <ele>865.32</ele>
        <time>2020-10-13T09:00:27Z</time>
      </trkpt>
      <trkpt lat="44.35313" lon="4.03782">
        <ele>866.29</ele>
        <time>2020-10-13T09:00:40Z</time>
      </trkpt>
      <trkpt lat="44.35316" lon="4.03778">
        <ele>867.73</ele>
        <time>2020-10-13T09:00:54Z</time>
      </trkpt>
      <trkpt lat="44.35317" lon="4.03776">
        <ele>868.21</ele>
        <time>2020-10-13T09:01:16Z</time>
      </trkpt>
      <trkpt lat="44.35316" lon="4.03777">
        <ele>869.17</ele>
        <time>2020-10-13T09:01:33Z</time>
      </trkpt>
      <trkpt lat="44.35315" lon="4.03779">
        <ele>869.17</ele>
        <time>2020-10-13T09:01:54Z</time>
      </trkpt>
      <trkpt lat="44.35315" lon="4.0378">
        <ele>869.17</ele>
        <time>2020-10-13T09:02:24Z</time>
      </trkpt>
      <trkpt lat="44.35316" lon="4.03775">
        <ele>870.13</ele>
        <time>2020-10-13T09:02:47Z</time>
      </trkpt>
      <trkpt lat="44.35318" lon="4.03769">
        <ele>871.57</ele>
        <time>2020-10-13T09:02:59Z</time>
      </trkpt>
      <trkpt lat="44.35322" lon="4.03762">
        <ele>871.57</ele>
        <time>2020-10-13T09:03:23Z</time>
      </trkpt>
      <trkpt lat="44.35324" lon="4.03754">
        <ele>874.46</ele>
        <time>2020-10-13T09:03:33Z</time>
      </trkpt>
      <trkpt lat="44.35326" lon="4.03747">
        <ele>875.42</ele>
        <time>2020-10-13T09:03:39Z</time>
      </trkpt>
      <trkpt lat="44.3533" lon="4.03733">
        <ele>876.86</ele>
        <time>2020-10-13T09:03:50Z</time>
      </trkpt>
      <trkpt lat="44.35333" lon="4.03725">
        <ele>877.34</ele>
        <time>2020-10-13T09:03:56Z</time>
      </trkpt>
      <trkpt lat="44.35335" lon="4.03715">
        <ele>878.78</ele>
        <time>2020-10-13T09:04:09Z</time>
      </trkpt>
      <trkpt lat="44.35335" lon="4.03714">
        <ele>878.78</ele>
        <time>2020-10-13T09:04:11Z</time>
      </trkpt>
      <trkpt lat="44.35337" lon="4.03711">
        <ele>879.26</ele>
        <time>2020-10-13T09:04:26Z</time>
      </trkpt>
      <trkpt lat="44.35337" lon="4.0371">
        <ele>879.26</ele>
        <time>2020-10-13T09:04:45Z</time>
      </trkpt>
      <trkpt lat="44.35335" lon="4.03705">
        <ele>879.74</ele>
        <time>2020-10-13T09:04:59Z</time>
      </trkpt>
      <trkpt lat="44.35334" lon="4.03703">
        <ele>880.22</ele>
        <time>2020-10-13T09:05:23Z</time>
      </trkpt>
      <trkpt lat="44.35334" lon="4.03703">
        <ele>880.22</ele>
        <time>2020-10-13T09:05:47Z</time>
      </trkpt>
      <trkpt lat="44.35334" lon="4.03704">
        <ele>880.22</ele>
        <time>2020-10-13T09:06:11Z</time>
      </trkpt>
      <trkpt lat="44.35334" lon="4.037">
        <ele>880.22</ele>
        <time>2020-10-13T09:06:26Z</time>
      </trkpt>
      <trkpt lat="44.35334" lon="4.03704">
        <ele>880.22</ele>
        <time>2020-10-13T09:06:44Z</time>
      </trkpt>
      <trkpt lat="44.35337" lon="4.03705">
        <ele>880.22</ele>
        <time>2020-10-13T09:07:01Z</time>
      </trkpt>
      <trkpt lat="44.35338" lon="4.03707">
        <ele>879.26</ele>
        <time>2020-10-13T09:07:15Z</time>
      </trkpt>
      <trkpt lat="44.35337" lon="4.03698">
        <ele>879.26</ele>
        <time>2020-10-13T09:07:27Z</time>
      </trkpt>
      <trkpt lat="44.35334" lon="4.03693">
        <ele>877.82</ele>
        <time>2020-10-13T09:07:39Z</time>
      </trkpt>
      <trkpt lat="44.35333" lon="4.03681">
        <ele>876.38</ele>
        <time>2020-10-13T09:07:50Z</time>
      </trkpt>
      <trkpt lat="44.35335" lon="4.03671">
        <ele>876.38</ele>
        <time>2020-10-13T09:08:04Z</time>
      </trkpt>
      <trkpt lat="44.35335" lon="4.03668">
        <ele>877.82</ele>
        <time>2020-10-13T09:08:09Z</time>
      </trkpt>
      <trkpt lat="44.35336" lon="4.03658">
        <ele>879.26</ele>
        <time>2020-10-13T09:08:22Z</time>
      </trkpt>
      <trkpt lat="44.35336" lon="4.03653">
        <ele>879.74</ele>
        <time>2020-10-13T09:08:39Z</time>
      </trkpt>
      <trkpt lat="44.35336" lon="4.03653">
        <ele>879.26</ele>
        <time>2020-10-13T09:09:05Z</time>
      </trkpt>
      <trkpt lat="44.35336" lon="4.03654">
        <ele>879.26</ele>
        <time>2020-10-13T09:09:21Z</time>
      </trkpt>
      <trkpt lat="44.35334" lon="4.03654">
        <ele>879.26</ele>
        <time>2020-10-13T09:09:41Z</time>
      </trkpt>
      <trkpt lat="44.35335" lon="4.03655">
        <ele>879.26</ele>
        <time>2020-10-13T09:09:59Z</time>
      </trkpt>
      <trkpt lat="44.3534" lon="4.03652">
        <ele>878.78</ele>
        <time>2020-10-13T09:10:16Z</time>
      </trkpt>
      <trkpt lat="44.35344" lon="4.0365">
        <ele>875.9</ele>
        <time>2020-10-13T09:10:28Z</time>
      </trkpt>
      <trkpt lat="44.35344" lon="4.03643">
        <ele>873.5</ele>
        <time>2020-10-13T09:10:42Z</time>
      </trkpt>
      <trkpt lat="44.35344" lon="4.03638">
        <ele>872.53</ele>
        <time>2020-10-13T09:10:47Z</time>
      </trkpt>
      <trkpt lat="44.35345" lon="4.03634">
        <ele>872.53</ele>
        <time>2020-10-13T09:10:50Z</time>
      </trkpt>
      <trkpt lat="44.35343" lon="4.03627">
        <ele>871.57</ele>
        <time>2020-10-13T09:10:58Z</time>
      </trkpt>
      <trkpt lat="44.35342" lon="4.03624">
        <ele>873.01</ele>
        <time>2020-10-13T09:11:00Z</time>
      </trkpt>
      <trkpt lat="44.35339" lon="4.03612">
        <ele>874.46</ele>
        <time>2020-10-13T09:11:13Z</time>
      </trkpt>
      <trkpt lat="44.35336" lon="4.03604">
        <ele>873.01</ele>
        <time>2020-10-13T09:11:25Z</time>
      </trkpt>
      <trkpt lat="44.35337" lon="4.03596">
        <ele>873.01</ele>
        <time>2020-10-13T09:11:38Z</time>
      </trkpt>
      <trkpt lat="44.35338" lon="4.03592">
        <ele>871.09</ele>
        <time>2020-10-13T09:11:52Z</time>
      </trkpt>
      <trkpt lat="44.3534" lon="4.03585">
        <ele>869.65</ele>
        <time>2020-10-13T09:12:04Z</time>
      </trkpt>
      <trkpt lat="44.35345" lon="4.03574">
        <ele>871.09</ele>
        <time>2020-10-13T09:12:18Z</time>
      </trkpt>
      <trkpt lat="44.35345" lon="4.03573">
        <ele>871.09</ele>
        <time>2020-10-13T09:12:19Z</time>
      </trkpt>
      <trkpt lat="44.35347" lon="4.03568">
        <ele>871.09</ele>
        <time>2020-10-13T09:12:33Z</time>
      </trkpt>
      <trkpt lat="44.35347" lon="4.03567">
        <ele>869.65</ele>
        <time>2020-10-13T09:12:34Z</time>
      </trkpt>
      <trkpt lat="44.3535" lon="4.0356">
        <ele>867.73</ele>
        <time>2020-10-13T09:12:45Z</time>
      </trkpt>
      <trkpt lat="44.3535" lon="4.03553">
        <ele>865.8</ele>
        <time>2020-10-13T09:12:56Z</time>
      </trkpt>
      <trkpt lat="44.35348" lon="4.03548">
        <ele>865.8</ele>
        <time>2020-10-13T09:13:09Z</time>
      </trkpt>
      <trkpt lat="44.35347" lon="4.03541">
        <ele>862.92</ele>
        <time>2020-10-13T09:13:21Z</time>
      </trkpt>
      <trkpt lat="44.35347" lon="4.03532">
        <ele>859.56</ele>
        <time>2020-10-13T09:13:31Z</time>
      </trkpt>
      <trkpt lat="44.35344" lon="4.03526">
        <ele>858.11</ele>
        <time>2020-10-13T09:13:38Z</time>
      </trkpt>
      <trkpt lat="44.35339" lon="4.03517">
        <ele>861.48</ele>
        <time>2020-10-13T09:13:51Z</time>
      </trkpt>
      <trkpt lat="44.35338" lon="4.0351">
        <ele>861.48</ele>
        <time>2020-10-13T09:13:57Z</time>
      </trkpt>
      <trkpt lat="44.3534" lon="4.03504">
        <ele>860.04</ele>
        <time>2020-10-13T09:14:01Z</time>
      </trkpt>
      <trkpt lat="44.35341" lon="4.03495">
        <ele>859.56</ele>
        <time>2020-10-13T09:14:10Z</time>
      </trkpt>
      <trkpt lat="44.35342" lon="4.03485">
        <ele>859.08</ele>
        <time>2020-10-13T09:14:17Z</time>
      </trkpt>
      <trkpt lat="44.35341" lon="4.0348">
        <ele>859.08</ele>
        <time>2020-10-13T09:14:20Z</time>
      </trkpt>
      <trkpt lat="44.35342" lon="4.03466">
        <ele>857.63</ele>
        <time>2020-10-13T09:14:36Z</time>
      </trkpt>
      <trkpt lat="44.35338" lon="4.03454">
        <ele>854.27</ele>
        <time>2020-10-13T09:14:50Z</time>
      </trkpt>
      <trkpt lat="44.35336" lon="4.03442">
        <ele>851.38</ele>
        <time>2020-10-13T09:15:03Z</time>
      </trkpt>
      <trkpt lat="44.35333" lon="4.03431">
        <ele>849.46</ele>
        <time>2020-10-13T09:15:16Z</time>
      </trkpt>
      <trkpt lat="44.35331" lon="4.0342">
        <ele>846.1</ele>
        <time>2020-10-13T09:15:29Z</time>
      </trkpt>
      <trkpt lat="44.3533" lon="4.03408">
        <ele>843.21</ele>
        <time>2020-10-13T09:15:43Z</time>
      </trkpt>
      <trkpt lat="44.35327" lon="4.03402">
        <ele>841.77</ele>
        <time>2020-10-13T09:15:48Z</time>
      </trkpt>
      <trkpt lat="44.35328" lon="4.0339">
        <ele>838.41</ele>
        <time>2020-10-13T09:16:00Z</time>
      </trkpt>
      <trkpt lat="44.35328" lon="4.03383">
        <ele>837.45</ele>
        <time>2020-10-13T09:16:12Z</time>
      </trkpt>
      <trkpt lat="44.35326" lon="4.0337">
        <ele>834.56</ele>
        <time>2020-10-13T09:16:25Z</time>
      </trkpt>
      <trkpt lat="44.35324" lon="4.03363">
        <ele>833.12</ele>
        <time>2020-10-13T09:16:37Z</time>
      </trkpt>
      <trkpt lat="44.3532" lon="4.03352">
        <ele>830.24</ele>
        <time>2020-10-13T09:16:49Z</time>
      </trkpt>
      <trkpt lat="44.35316" lon="4.03341">
        <ele>827.83</ele>
        <time>2020-10-13T09:17:04Z</time>
      </trkpt>
      <trkpt lat="44.35319" lon="4.03324">
        <ele>825.43</ele>
        <time>2020-10-13T09:17:19Z</time>
      </trkpt>
      <trkpt lat="44.3532" lon="4.03316">
        <ele>823.99</ele>
        <time>2020-10-13T09:17:25Z</time>
      </trkpt>
      <trkpt lat="44.35323" lon="4.03298">
        <ele>820.62</ele>
        <time>2020-10-13T09:17:38Z</time>
      </trkpt>
      <trkpt lat="44.35326" lon="4.03282">
        <ele>817.74</ele>
        <time>2020-10-13T09:17:53Z</time>
      </trkpt>
      <trkpt lat="44.35328" lon="4.03269">
        <ele>815.82</ele>
        <time>2020-10-13T09:18:03Z</time>
      </trkpt>
      <trkpt lat="44.35327" lon="4.0326">
        <ele>815.34</ele>
        <time>2020-10-13T09:18:08Z</time>
      </trkpt>
      <trkpt lat="44.35329" lon="4.03233">
        <ele>813.89</ele>
        <time>2020-10-13T09:18:25Z</time>
      </trkpt>
      <trkpt lat="44.35332" lon="4.03213">
        <ele>812.93</ele>
        <time>2020-10-13T09:18:41Z</time>
      </trkpt>
      <trkpt lat="44.35339" lon="4.03197">
        <ele>810.05</ele>
        <time>2020-10-13T09:18:53Z</time>
      </trkpt>
      <trkpt lat="44.35341" lon="4.03192">
        <ele>810.05</ele>
        <time>2020-10-13T09:18:56Z</time>
      </trkpt>
      <trkpt lat="44.35341" lon="4.03175">
        <ele>808.13</ele>
        <time>2020-10-13T09:19:10Z</time>
      </trkpt>
      <trkpt lat="44.35342" lon="4.03161">
        <ele>807.16</ele>
        <time>2020-10-13T09:19:22Z</time>
      </trkpt>
      <trkpt lat="44.35344" lon="4.03143">
        <ele>806.2</ele>
        <time>2020-10-13T09:19:36Z</time>
      </trkpt>
      <trkpt lat="44.35343" lon="4.03122">
        <ele>804.76</ele>
        <time>2020-10-13T09:19:50Z</time>
      </trkpt>
      <trkpt lat="44.35345" lon="4.03103">
        <ele>804.28</ele>
        <time>2020-10-13T09:20:03Z</time>
      </trkpt>
      <trkpt lat="44.3535" lon="4.03072">
        <ele>803.8</ele>
        <time>2020-10-13T09:20:19Z</time>
      </trkpt>
      <trkpt lat="44.35353" lon="4.03045">
        <ele>803.8</ele>
        <time>2020-10-13T09:20:35Z</time>
      </trkpt>
      <trkpt lat="44.35353" lon="4.03039">
        <ele>805.24</ele>
        <time>2020-10-13T09:20:39Z</time>
      </trkpt>
      <trkpt lat="44.35354" lon="4.03023">
        <ele>805.72</ele>
        <time>2020-10-13T09:20:49Z</time>
      </trkpt>
      <trkpt lat="44.35355" lon="4.03001">
        <ele>805.72</ele>
        <time>2020-10-13T09:21:03Z</time>
      </trkpt>
      <trkpt lat="44.35357" lon="4.02986">
        <ele>804.28</ele>
        <time>2020-10-13T09:21:12Z</time>
      </trkpt>
      <trkpt lat="44.35365" lon="4.02963">
        <ele>804.28</ele>
        <time>2020-10-13T09:21:28Z</time>
      </trkpt>
      <trkpt lat="44.3537" lon="4.02939">
        <ele>805.72</ele>
        <time>2020-10-13T09:21:44Z</time>
      </trkpt>
      <trkpt lat="44.35373" lon="4.02931">
        <ele>805.72</ele>
        <time>2020-10-13T09:22:03Z</time>
      </trkpt>
      <trkpt lat="44.35372" lon="4.02929">
        <ele>806.2</ele>
        <time>2020-10-13T09:22:19Z</time>
      </trkpt>
      <trkpt lat="44.35374" lon="4.02925">
        <ele>806.2</ele>
        <time>2020-10-13T09:22:51Z</time>
      </trkpt>
      <trkpt lat="44.35375" lon="4.02928">
        <ele>806.2</ele>
        <time>2020-10-13T09:23:13Z</time>
      </trkpt>
      <trkpt lat="44.35376" lon="4.02922">
        <ele>806.2</ele>
        <time>2020-10-13T09:23:28Z</time>
      </trkpt>
      <trkpt lat="44.3538" lon="4.02917">
        <ele>804.76</ele>
        <time>2020-10-13T09:23:37Z</time>
      </trkpt>
      <trkpt lat="44.35391" lon="4.02905">
        <ele>803.32</ele>
        <time>2020-10-13T09:23:54Z</time>
      </trkpt>
      <trkpt lat="44.35405" lon="4.02897">
        <ele>803.32</ele>
        <time>2020-10-13T09:24:12Z</time>
      </trkpt>
      <trkpt lat="44.35422" lon="4.02886">
        <ele>803.32</ele>
        <time>2020-10-13T09:24:29Z</time>
      </trkpt>
      <trkpt lat="44.35435" lon="4.02876">
        <ele>802.84</ele>
        <time>2020-10-13T09:24:45Z</time>
      </trkpt>
      <trkpt lat="44.35452" lon="4.0287">
        <ele>799.95</ele>
        <time>2020-10-13T09:25:02Z</time>
      </trkpt>
      <trkpt lat="44.35465" lon="4.02862">
        <ele>797.55</ele>
        <time>2020-10-13T09:25:20Z</time>
      </trkpt>
      <trkpt lat="44.35485" lon="4.02849">
        <ele>796.11</ele>
        <time>2020-10-13T09:25:37Z</time>
      </trkpt>
      <trkpt lat="44.35498" lon="4.02845">
        <ele>794.19</ele>
        <time>2020-10-13T09:25:52Z</time>
      </trkpt>
      <trkpt lat="44.35516" lon="4.02835">
        <ele>794.19</ele>
        <time>2020-10-13T09:26:09Z</time>
      </trkpt>
      <trkpt lat="44.35537" lon="4.02831">
        <ele>793.71</ele>
        <time>2020-10-13T09:26:24Z</time>
      </trkpt>
      <trkpt lat="44.35549" lon="4.02827">
        <ele>793.71</ele>
        <time>2020-10-13T09:26:32Z</time>
      </trkpt>
      <trkpt lat="44.35564" lon="4.02826">
        <ele>793.71</ele>
        <time>2020-10-13T09:26:46Z</time>
      </trkpt>
      <trkpt lat="44.35578" lon="4.02825">
        <ele>792.74</ele>
        <time>2020-10-13T09:27:02Z</time>
      </trkpt>
      <trkpt lat="44.35597" lon="4.02822">
        <ele>791.3</ele>
        <time>2020-10-13T09:27:21Z</time>
      </trkpt>
      <trkpt lat="44.35615" lon="4.02825">
        <ele>790.82</ele>
        <time>2020-10-13T09:27:38Z</time>
      </trkpt>
      <trkpt lat="44.35629" lon="4.02831">
        <ele>790.82</ele>
        <time>2020-10-13T09:27:52Z</time>
      </trkpt>
      <trkpt lat="44.35642" lon="4.02837">
        <ele>792.26</ele>
        <time>2020-10-13T09:28:05Z</time>
      </trkpt>
      <trkpt lat="44.35661" lon="4.02845">
        <ele>792.26</ele>
        <time>2020-10-13T09:28:21Z</time>
      </trkpt>
      <trkpt lat="44.35677" lon="4.0285">
        <ele>790.82</ele>
        <time>2020-10-13T09:28:36Z</time>
      </trkpt>
      <trkpt lat="44.35693" lon="4.02854">
        <ele>790.82</ele>
        <time>2020-10-13T09:28:51Z</time>
      </trkpt>
      <trkpt lat="44.35714" lon="4.02852">
        <ele>791.78</ele>
        <time>2020-10-13T09:29:07Z</time>
      </trkpt>
      <trkpt lat="44.35727" lon="4.02844">
        <ele>792.74</ele>
        <time>2020-10-13T09:29:22Z</time>
      </trkpt>
      <trkpt lat="44.35738" lon="4.02835">
        <ele>792.26</ele>
        <time>2020-10-13T09:29:36Z</time>
      </trkpt>
      <trkpt lat="44.35753" lon="4.02833">
        <ele>793.22</ele>
        <time>2020-10-13T09:29:53Z</time>
      </trkpt>
      <trkpt lat="44.35769" lon="4.02833">
        <ele>793.71</ele>
        <time>2020-10-13T09:30:07Z</time>
      </trkpt>
      <trkpt lat="44.35794" lon="4.02839">
        <ele>795.15</ele>
        <time>2020-10-13T09:30:27Z</time>
      </trkpt>
      <trkpt lat="44.35809" lon="4.02844">
        <ele>795.15</ele>
        <time>2020-10-13T09:30:42Z</time>
      </trkpt>
      <trkpt lat="44.35823" lon="4.02851">
        <ele>795.63</ele>
        <time>2020-10-13T09:30:56Z</time>
      </trkpt>
      <trkpt lat="44.3584" lon="4.02856">
        <ele>796.59</ele>
        <time>2020-10-13T09:31:13Z</time>
      </trkpt>
      <trkpt lat="44.35856" lon="4.02859">
        <ele>797.07</ele>
        <time>2020-10-13T09:31:26Z</time>
      </trkpt>
      <trkpt lat="44.3587" lon="4.02858">
        <ele>797.07</ele>
        <time>2020-10-13T09:31:41Z</time>
      </trkpt>
      <trkpt lat="44.35887" lon="4.02853">
        <ele>796.59</ele>
        <time>2020-10-13T09:31:57Z</time>
      </trkpt>
      <trkpt lat="44.3591" lon="4.02852">
        <ele>796.59</ele>
        <time>2020-10-13T09:32:13Z</time>
      </trkpt>
      <trkpt lat="44.35927" lon="4.02851">
        <ele>797.55</ele>
        <time>2020-10-13T09:32:29Z</time>
      </trkpt>
      <trkpt lat="44.35943" lon="4.02857">
        <ele>797.55</ele>
        <time>2020-10-13T09:32:43Z</time>
      </trkpt>
      <trkpt lat="44.35959" lon="4.02865">
        <ele>797.55</ele>
        <time>2020-10-13T09:32:58Z</time>
      </trkpt>
      <trkpt lat="44.35973" lon="4.02871">
        <ele>797.55</ele>
        <time>2020-10-13T09:33:11Z</time>
      </trkpt>
      <trkpt lat="44.35993" lon="4.02866">
        <ele>797.07</ele>
        <time>2020-10-13T09:33:29Z</time>
      </trkpt>
      <trkpt lat="44.36005" lon="4.0286">
        <ele>796.11</ele>
        <time>2020-10-13T09:33:43Z</time>
      </trkpt>
      <trkpt lat="44.36018" lon="4.02844">
        <ele>795.15</ele>
        <time>2020-10-13T09:33:57Z</time>
      </trkpt>
      <trkpt lat="44.36035" lon="4.02832">
        <ele>794.67</ele>
        <time>2020-10-13T09:34:15Z</time>
      </trkpt>
      <trkpt lat="44.36046" lon="4.02819">
        <ele>794.19</ele>
        <time>2020-10-13T09:34:30Z</time>
      </trkpt>
      <trkpt lat="44.36056" lon="4.02804">
        <ele>793.71</ele>
        <time>2020-10-13T09:34:42Z</time>
      </trkpt>
      <trkpt lat="44.36065" lon="4.02794">
        <ele>792.26</ele>
        <time>2020-10-13T09:34:55Z</time>
      </trkpt>
      <trkpt lat="44.36078" lon="4.02781">
        <ele>791.78</ele>
        <time>2020-10-13T09:35:09Z</time>
      </trkpt>
      <trkpt lat="44.36095" lon="4.02771">
        <ele>790.82</ele>
        <time>2020-10-13T09:35:24Z</time>
      </trkpt>
      <trkpt lat="44.36119" lon="4.02757">
        <ele>790.34</ele>
        <time>2020-10-13T09:35:42Z</time>
      </trkpt>
      <trkpt lat="44.36135" lon="4.02749">
        <ele>789.86</ele>
        <time>2020-10-13T09:35:58Z</time>
      </trkpt>
      <trkpt lat="44.36148" lon="4.02742">
        <ele>789.86</ele>
        <time>2020-10-13T09:36:12Z</time>
      </trkpt>
      <trkpt lat="44.36169" lon="4.02727">
        <ele>789.38</ele>
        <time>2020-10-13T09:36:28Z</time>
      </trkpt>
      <trkpt lat="44.36185" lon="4.02714">
        <ele>788.42</ele>
        <time>2020-10-13T09:36:47Z</time>
      </trkpt>
      <trkpt lat="44.36198" lon="4.02702">
        <ele>787.46</ele>
        <time>2020-10-13T09:37:02Z</time>
      </trkpt>
      <trkpt lat="44.3621" lon="4.02685">
        <ele>786.02</ele>
        <time>2020-10-13T09:37:18Z</time>
      </trkpt>
      <trkpt lat="44.36221" lon="4.02666">
        <ele>785.53</ele>
        <time>2020-10-13T09:37:33Z</time>
      </trkpt>
      <trkpt lat="44.36239" lon="4.02647">
        <ele>784.57</ele>
        <time>2020-10-13T09:37:47Z</time>
      </trkpt>
      <trkpt lat="44.36247" lon="4.02631">
        <ele>783.61</ele>
        <time>2020-10-13T09:37:59Z</time>
      </trkpt>
      <trkpt lat="44.36254" lon="4.0261">
        <ele>782.17</ele>
        <time>2020-10-13T09:38:14Z</time>
      </trkpt>
      <trkpt lat="44.3626" lon="4.0259">
        <ele>779.77</ele>
        <time>2020-10-13T09:38:28Z</time>
      </trkpt>
      <trkpt lat="44.36267" lon="4.02574">
        <ele>777.84</ele>
        <time>2020-10-13T09:38:41Z</time>
      </trkpt>
      <trkpt lat="44.36273" lon="4.02556">
        <ele>776.4</ele>
        <time>2020-10-13T09:38:55Z</time>
      </trkpt>
      <trkpt lat="44.36282" lon="4.02535">
        <ele>775.44</ele>
        <time>2020-10-13T09:39:08Z</time>
      </trkpt>
      <trkpt lat="44.36286" lon="4.02533">
        <ele>774.96</ele>
        <time>2020-10-13T09:39:21Z</time>
      </trkpt>
      <trkpt lat="44.36288" lon="4.0252">
        <ele>774.96</ele>
        <time>2020-10-13T09:39:40Z</time>
      </trkpt>
      <trkpt lat="44.36295" lon="4.025">
        <ele>774.96</ele>
        <time>2020-10-13T09:39:56Z</time>
      </trkpt>
      <trkpt lat="44.36305" lon="4.02478">
        <ele>774</ele>
        <time>2020-10-13T09:40:14Z</time>
      </trkpt>
      <trkpt lat="44.36319" lon="4.02456">
        <ele>773.04</ele>
        <time>2020-10-13T09:40:30Z</time>
      </trkpt>
      <trkpt lat="44.36328" lon="4.02436">
        <ele>771.6</ele>
        <time>2020-10-13T09:40:45Z</time>
      </trkpt>
      <trkpt lat="44.36332" lon="4.02431">
        <ele>771.11</ele>
        <time>2020-10-13T09:40:50Z</time>
      </trkpt>
      <trkpt lat="44.36333" lon="4.02427">
        <ele>771.11</ele>
        <time>2020-10-13T09:40:53Z</time>
      </trkpt>
      <trkpt lat="44.36328" lon="4.024">
        <ele>769.19</ele>
        <time>2020-10-13T09:41:10Z</time>
      </trkpt>
      <trkpt lat="44.36328" lon="4.02399">
        <ele>768.71</ele>
        <time>2020-10-13T09:41:11Z</time>
      </trkpt>
      <trkpt lat="44.36335" lon="4.02383">
        <ele>767.27</ele>
        <time>2020-10-13T09:41:29Z</time>
      </trkpt>
      <trkpt lat="44.3634" lon="4.02375">
        <ele>767.27</ele>
        <time>2020-10-13T09:41:44Z</time>
      </trkpt>
      <trkpt lat="44.36341" lon="4.02369">
        <ele>767.27</ele>
        <time>2020-10-13T09:42:02Z</time>
      </trkpt>
      <trkpt lat="44.36345" lon="4.02366">
        <ele>767.27</ele>
        <time>2020-10-13T09:42:18Z</time>
      </trkpt>
      <trkpt lat="44.36343" lon="4.02361">
        <ele>767.27</ele>
        <time>2020-10-13T09:42:33Z</time>
      </trkpt>
      <trkpt lat="44.36348" lon="4.02355">
        <ele>768.71</ele>
        <time>2020-10-13T09:42:52Z</time>
      </trkpt>
      <trkpt lat="44.36356" lon="4.02348">
        <ele>769.67</ele>
        <time>2020-10-13T09:43:05Z</time>
      </trkpt>
      <trkpt lat="44.36366" lon="4.02345">
        <ele>770.63</ele>
        <time>2020-10-13T09:43:19Z</time>
      </trkpt>
      <trkpt lat="44.36375" lon="4.02339">
        <ele>771.6</ele>
        <time>2020-10-13T09:43:34Z</time>
      </trkpt>
      <trkpt lat="44.36382" lon="4.02331">
        <ele>772.08</ele>
        <time>2020-10-13T09:43:48Z</time>
      </trkpt>
      <trkpt lat="44.36385" lon="4.02331">
        <ele>772.56</ele>
        <time>2020-10-13T09:44:02Z</time>
      </trkpt>
      <trkpt lat="44.36383" lon="4.02329">
        <ele>771.6</ele>
        <time>2020-10-13T09:44:22Z</time>
      </trkpt>
      <trkpt lat="44.36382" lon="4.02328">
        <ele>771.6</ele>
        <time>2020-10-13T09:44:49Z</time>
      </trkpt>
      <trkpt lat="44.36382" lon="4.02328">
        <ele>771.6</ele>
        <time>2020-10-13T09:45:07Z</time>
      </trkpt>
      <trkpt lat="44.36377" lon="4.02329">
        <ele>771.6</ele>
        <time>2020-10-13T09:45:23Z</time>
      </trkpt>
      <trkpt lat="44.36375" lon="4.02337">
        <ele>771.6</ele>
        <time>2020-10-13T09:45:41Z</time>
      </trkpt>
      <trkpt lat="44.36373" lon="4.02336">
        <ele>771.6</ele>
        <time>2020-10-13T09:45:58Z</time>
      </trkpt>
      <trkpt lat="44.36373" lon="4.02336">
        <ele>772.08</ele>
        <time>2020-10-13T09:46:19Z</time>
      </trkpt>
      <trkpt lat="44.36374" lon="4.02333">
        <ele>772.08</ele>
        <time>2020-10-13T09:46:42Z</time>
      </trkpt>
      <trkpt lat="44.36374" lon="4.02335">
        <ele>772.08</ele>
        <time>2020-10-13T09:47:04Z</time>
      </trkpt>
      <trkpt lat="44.36374" lon="4.02333">
        <ele>772.08</ele>
        <time>2020-10-13T09:47:38Z</time>
      </trkpt>
      <trkpt lat="44.36373" lon="4.02331">
        <ele>772.08</ele>
        <time>2020-10-13T09:48:06Z</time>
      </trkpt>
      <trkpt lat="44.36372" lon="4.02333">
        <ele>773.52</ele>
        <time>2020-10-13T09:48:45Z</time>
      </trkpt>
      <trkpt lat="44.36372" lon="4.02334">
        <ele>773.52</ele>
        <time>2020-10-13T09:49:17Z</time>
      </trkpt>
      <trkpt lat="44.36371" lon="4.02334">
        <ele>773.52</ele>
        <time>2020-10-13T09:49:50Z</time>
      </trkpt>
      <trkpt lat="44.36373" lon="4.02331">
        <ele>773.52</ele>
        <time>2020-10-13T09:50:16Z</time>
      </trkpt>
      <trkpt lat="44.36371" lon="4.02332">
        <ele>773.52</ele>
        <time>2020-10-13T09:50:48Z</time>
      </trkpt>
      <trkpt lat="44.36372" lon="4.02332">
        <ele>774</ele>
        <time>2020-10-13T09:51:24Z</time>
      </trkpt>
      <trkpt lat="44.36371" lon="4.02333">
        <ele>774</ele>
        <time>2020-10-13T09:52:01Z</time>
      </trkpt>
      <trkpt lat="44.36371" lon="4.02332">
        <ele>774</ele>
        <time>2020-10-13T09:52:34Z</time>
      </trkpt>
      <trkpt lat="44.36372" lon="4.0233">
        <ele>774</ele>
        <time>2020-10-13T09:53:00Z</time>
      </trkpt>
      <trkpt lat="44.3637" lon="4.0233">
        <ele>774.48</ele>
        <time>2020-10-13T09:53:39Z</time>
      </trkpt>
      <trkpt lat="44.36372" lon="4.02329">
        <ele>774.48</ele>
        <time>2020-10-13T09:54:06Z</time>
      </trkpt>
      <trkpt lat="44.36371" lon="4.02332">
        <ele>774.48</ele>
        <time>2020-10-13T09:54:39Z</time>
      </trkpt>
      <trkpt lat="44.3637" lon="4.02331">
        <ele>774.48</ele>
        <time>2020-10-13T09:55:12Z</time>
      </trkpt>
      <trkpt lat="44.36371" lon="4.02331">
        <ele>774</ele>
        <time>2020-10-13T09:55:44Z</time>
      </trkpt>
      <trkpt lat="44.36371" lon="4.0233">
        <ele>774.96</ele>
        <time>2020-10-13T09:56:05Z</time>
      </trkpt>
      <trkpt lat="44.36371" lon="4.02329">
        <ele>774.96</ele>
        <time>2020-10-13T09:56:43Z</time>
      </trkpt>
      <trkpt lat="44.36372" lon="4.02332">
        <ele>774.96</ele>
        <time>2020-10-13T09:57:18Z</time>
      </trkpt>
      <trkpt lat="44.36372" lon="4.02329">
        <ele>774.96</ele>
        <time>2020-10-13T09:57:58Z</time>
      </trkpt>
      <trkpt lat="44.36372" lon="4.02331">
        <ele>774.96</ele>
        <time>2020-10-13T09:58:28Z</time>
      </trkpt>
      <trkpt lat="44.36372" lon="4.0233">
        <ele>774.96</ele>
        <time>2020-10-13T09:58:55Z</time>
      </trkpt>
      <trkpt lat="44.36371" lon="4.02329">
        <ele>774.96</ele>
        <time>2020-10-13T09:59:27Z</time>
      </trkpt>
      <trkpt lat="44.36371" lon="4.0233">
        <ele>774.96</ele>
        <time>2020-10-13T09:59:56Z</time>
      </trkpt>
      <trkpt lat="44.36372" lon="4.02332">
        <ele>774.96</ele>
        <time>2020-10-13T10:00:25Z</time>
      </trkpt>
      <trkpt lat="44.3637" lon="4.02333">
        <ele>774.96</ele>
        <time>2020-10-13T10:00:53Z</time>
      </trkpt>
      <trkpt lat="44.36372" lon="4.02332">
        <ele>774.96</ele>
        <time>2020-10-13T10:01:17Z</time>
      </trkpt>
      <trkpt lat="44.36373" lon="4.0233">
        <ele>774.96</ele>
        <time>2020-10-13T10:01:52Z</time>
      </trkpt>
      <trkpt lat="44.36371" lon="4.02331">
        <ele>774.96</ele>
        <time>2020-10-13T10:02:25Z</time>
      </trkpt>
      <trkpt lat="44.36372" lon="4.02331">
        <ele>774.96</ele>
        <time>2020-10-13T10:02:51Z</time>
      </trkpt>
      <trkpt lat="44.36374" lon="4.0233">
        <ele>774.96</ele>
        <time>2020-10-13T10:03:22Z</time>
      </trkpt>
      <trkpt lat="44.36373" lon="4.02332">
        <ele>774.96</ele>
        <time>2020-10-13T10:03:48Z</time>
      </trkpt>
      <trkpt lat="44.36374" lon="4.02333">
        <ele>774.96</ele>
        <time>2020-10-13T10:04:24Z</time>
      </trkpt>
      <trkpt lat="44.36371" lon="4.02336">
        <ele>774.96</ele>
        <time>2020-10-13T10:05:01Z</time>
      </trkpt>
      <trkpt lat="44.36372" lon="4.02329">
        <ele>774.96</ele>
        <time>2020-10-13T10:05:36Z</time>
      </trkpt>
      <trkpt lat="44.36374" lon="4.0233">
        <ele>774.96</ele>
        <time>2020-10-13T10:06:11Z</time>
      </trkpt>
      <trkpt lat="44.36372" lon="4.02333">
        <ele>774.96</ele>
        <time>2020-10-13T10:06:49Z</time>
      </trkpt>
      <trkpt lat="44.36372" lon="4.02334">
        <ele>774.96</ele>
        <time>2020-10-13T10:07:29Z</time>
      </trkpt>
      <trkpt lat="44.36373" lon="4.02336">
        <ele>774.96</ele>
        <time>2020-10-13T10:08:05Z</time>
      </trkpt>
      <trkpt lat="44.36373" lon="4.02335">
        <ele>774.96</ele>
        <time>2020-10-13T10:08:39Z</time>
      </trkpt>
      <trkpt lat="44.36373" lon="4.02332">
        <ele>774.96</ele>
        <time>2020-10-13T10:09:17Z</time>
      </trkpt>
      <trkpt lat="44.36373" lon="4.02335">
        <ele>774.96</ele>
        <time>2020-10-13T10:09:45Z</time>
      </trkpt>
      <trkpt lat="44.36373" lon="4.02334">
        <ele>774.96</ele>
        <time>2020-10-13T10:10:09Z</time>
      </trkpt>
      <trkpt lat="44.36374" lon="4.02336">
        <ele>774.96</ele>
        <time>2020-10-13T10:10:45Z</time>
      </trkpt>
      <trkpt lat="44.36375" lon="4.02328">
        <ele>774.96</ele>
        <time>2020-10-13T10:11:21Z</time>
      </trkpt>
      <trkpt lat="44.36372" lon="4.02332">
        <ele>774.96</ele>
        <time>2020-10-13T10:11:51Z</time>
      </trkpt>
      <trkpt lat="44.36374" lon="4.02332">
        <ele>774.96</ele>
        <time>2020-10-13T10:12:20Z</time>
      </trkpt>
      <trkpt lat="44.36375" lon="4.02331">
        <ele>774.96</ele>
        <time>2020-10-13T10:13:02Z</time>
      </trkpt>
      <trkpt lat="44.36375" lon="4.02332">
        <ele>774.96</ele>
        <time>2020-10-13T10:13:35Z</time>
      </trkpt>
      <trkpt lat="44.36374" lon="4.02331">
        <ele>774.96</ele>
        <time>2020-10-13T10:14:05Z</time>
      </trkpt>
      <trkpt lat="44.36373" lon="4.02331">
        <ele>774.96</ele>
        <time>2020-10-13T10:14:37Z</time>
      </trkpt>
      <trkpt lat="44.36372" lon="4.02335">
        <ele>774.96</ele>
        <time>2020-10-13T10:15:11Z</time>
      </trkpt>
      <trkpt lat="44.36373" lon="4.02333">
        <ele>774.96</ele>
        <time>2020-10-13T10:15:46Z</time>
      </trkpt>
      <trkpt lat="44.36375" lon="4.02332">
        <ele>775.44</ele>
        <time>2020-10-13T10:16:19Z</time>
      </trkpt>
      <trkpt lat="44.36371" lon="4.02333">
        <ele>775.44</ele>
        <time>2020-10-13T10:16:49Z</time>
      </trkpt>
      <trkpt lat="44.36374" lon="4.02332">
        <ele>775.44</ele>
        <time>2020-10-13T10:17:22Z</time>
      </trkpt>
      <trkpt lat="44.36373" lon="4.0233">
        <ele>775.44</ele>
        <time>2020-10-13T10:17:38Z</time>
      </trkpt>
      <trkpt lat="44.36373" lon="4.02331">
        <ele>775.44</ele>
        <time>2020-10-13T10:18:06Z</time>
      </trkpt>
      <trkpt lat="44.3637" lon="4.02329">
        <ele>775.44</ele>
        <time>2020-10-13T10:18:40Z</time>
      </trkpt>
      <trkpt lat="44.36371" lon="4.02329">
        <ele>775.44</ele>
        <time>2020-10-13T10:19:08Z</time>
      </trkpt>
      <trkpt lat="44.3637" lon="4.02329">
        <ele>775.44</ele>
        <time>2020-10-13T10:19:39Z</time>
      </trkpt>
      <trkpt lat="44.36372" lon="4.0233">
        <ele>775.44</ele>
        <time>2020-10-13T10:19:43Z</time>
      </trkpt>
      <trkpt lat="44.36377" lon="4.02328">
        <ele>775.44</ele>
        <time>2020-10-13T10:19:59Z</time>
      </trkpt>
      <trkpt lat="44.36377" lon="4.0233">
        <ele>775.44</ele>
        <time>2020-10-13T10:20:27Z</time>
      </trkpt>
      <trkpt lat="44.36375" lon="4.02328">
        <ele>775.44</ele>
        <time>2020-10-13T10:20:47Z</time>
      </trkpt>
      <trkpt lat="44.36376" lon="4.02329">
        <ele>775.44</ele>
        <time>2020-10-13T10:21:23Z</time>
      </trkpt>
      <trkpt lat="44.36378" lon="4.0233">
        <ele>775.44</ele>
        <time>2020-10-13T10:21:51Z</time>
      </trkpt>
      <trkpt lat="44.36377" lon="4.02331">
        <ele>775.44</ele>
        <time>2020-10-13T10:22:23Z</time>
      </trkpt>
      <trkpt lat="44.36377" lon="4.02331">
        <ele>775.92</ele>
        <time>2020-10-13T10:23:19Z</time>
      </trkpt>
      <trkpt lat="44.36372" lon="4.02332">
        <ele>775.92</ele>
        <time>2020-10-13T10:23:30Z</time>
      </trkpt>
      <trkpt lat="44.36372" lon="4.02332">
        <ele>775.92</ele>
        <time>2020-10-13T10:23:44Z</time>
      </trkpt>
      <trkpt lat="44.3637" lon="4.02331">
        <ele>776.4</ele>
        <time>2020-10-13T10:24:17Z</time>
      </trkpt>
      <trkpt lat="44.3637" lon="4.02331">
        <ele>776.4</ele>
        <time>2020-10-13T10:24:49Z</time>
      </trkpt>
      <trkpt lat="44.36369" lon="4.02333">
        <ele>776.4</ele>
        <time>2020-10-13T10:25:12Z</time>
      </trkpt>
      <trkpt lat="44.36368" lon="4.02335">
        <ele>776.4</ele>
        <time>2020-10-13T10:25:35Z</time>
      </trkpt>
      <trkpt lat="44.36369" lon="4.0234">
        <ele>776.4</ele>
        <time>2020-10-13T10:25:53Z</time>
      </trkpt>
      <trkpt lat="44.36369" lon="4.02341">
        <ele>775.44</ele>
        <time>2020-10-13T10:26:05Z</time>
      </trkpt>
      <trkpt lat="44.36367" lon="4.02342">
        <ele>775.44</ele>
        <time>2020-10-13T10:26:11Z</time>
      </trkpt>
      <trkpt lat="44.36354" lon="4.02342">
        <ele>774.48</ele>
        <time>2020-10-13T10:26:24Z</time>
      </trkpt>
      <trkpt lat="44.36352" lon="4.02344">
        <ele>774</ele>
        <time>2020-10-13T10:26:27Z</time>
      </trkpt>
      <trkpt lat="44.36336" lon="4.0236">
        <ele>772.08</ele>
        <time>2020-10-13T10:26:43Z</time>
      </trkpt>
      <trkpt lat="44.36323" lon="4.02367">
        <ele>770.15</ele>
        <time>2020-10-13T10:26:58Z</time>
      </trkpt>
      <trkpt lat="44.36317" lon="4.02359">
        <ele>769.19</ele>
        <time>2020-10-13T10:27:12Z</time>
      </trkpt>
      <trkpt lat="44.36315" lon="4.02358">
        <ele>769.19</ele>
        <time>2020-10-13T10:27:28Z</time>
      </trkpt>
      <trkpt lat="44.36315" lon="4.02355">
        <ele>769.19</ele>
        <time>2020-10-13T10:27:46Z</time>
      </trkpt>
      <trkpt lat="44.36308" lon="4.02351">
        <ele>766.79</ele>
        <time>2020-10-13T10:27:58Z</time>
      </trkpt>
      <trkpt lat="44.36304" lon="4.02341">
        <ele>763.42</ele>
        <time>2020-10-13T10:28:09Z</time>
      </trkpt>
      <trkpt lat="44.36296" lon="4.02347">
        <ele>760.54</ele>
        <time>2020-10-13T10:28:22Z</time>
      </trkpt>
      <trkpt lat="44.36286" lon="4.02349">
        <ele>757.66</ele>
        <time>2020-10-13T10:28:37Z</time>
      </trkpt>
      <trkpt lat="44.36277" lon="4.02349">
        <ele>754.29</ele>
        <time>2020-10-13T10:28:51Z</time>
      </trkpt>
      <trkpt lat="44.36267" lon="4.02349">
        <ele>750.93</ele>
        <time>2020-10-13T10:29:06Z</time>
      </trkpt>
      <trkpt lat="44.36261" lon="4.02348">
        <ele>748.52</ele>
        <time>2020-10-13T10:29:19Z</time>
      </trkpt>
      <trkpt lat="44.36254" lon="4.02343">
        <ele>746.12</ele>
        <time>2020-10-13T10:29:35Z</time>
      </trkpt>
      <trkpt lat="44.36246" lon="4.02338">
        <ele>742.28</ele>
        <time>2020-10-13T10:29:49Z</time>
      </trkpt>
      <trkpt lat="44.36238" lon="4.02337">
        <ele>741.79</ele>
        <time>2020-10-13T10:30:04Z</time>
      </trkpt>
      <trkpt lat="44.36232" lon="4.02335">
        <ele>739.39</ele>
        <time>2020-10-13T10:30:19Z</time>
      </trkpt>
      <trkpt lat="44.36223" lon="4.02334">
        <ele>736.03</ele>
        <time>2020-10-13T10:30:32Z</time>
      </trkpt>
      <trkpt lat="44.36214" lon="4.02335">
        <ele>733.62</ele>
        <time>2020-10-13T10:30:45Z</time>
      </trkpt>
      <trkpt lat="44.36204" lon="4.02334">
        <ele>730.26</ele>
        <time>2020-10-13T10:31:02Z</time>
      </trkpt>
      <trkpt lat="44.36194" lon="4.02331">
        <ele>727.86</ele>
        <time>2020-10-13T10:31:16Z</time>
      </trkpt>
      <trkpt lat="44.3618" lon="4.02331">
        <ele>724.97</ele>
        <time>2020-10-13T10:31:32Z</time>
      </trkpt>
      <trkpt lat="44.36167" lon="4.0233">
        <ele>723.05</ele>
        <time>2020-10-13T10:31:47Z</time>
      </trkpt>
      <trkpt lat="44.36153" lon="4.02326">
        <ele>720.65</ele>
        <time>2020-10-13T10:32:02Z</time>
      </trkpt>
      <trkpt lat="44.3614" lon="4.02322">
        <ele>717.76</ele>
        <time>2020-10-13T10:32:17Z</time>
      </trkpt>
      <trkpt lat="44.36127" lon="4.02317">
        <ele>714.88</ele>
        <time>2020-10-13T10:32:31Z</time>
      </trkpt>
      <trkpt lat="44.36115" lon="4.02318">
        <ele>712.47</ele>
        <time>2020-10-13T10:32:45Z</time>
      </trkpt>
      <trkpt lat="44.3611" lon="4.02319">
        <ele>711.03</ele>
        <time>2020-10-13T10:32:52Z</time>
      </trkpt>
      <trkpt lat="44.36097" lon="4.02314">
        <ele>708.15</ele>
        <time>2020-10-13T10:33:09Z</time>
      </trkpt>
      <trkpt lat="44.36084" lon="4.02313">
        <ele>705.26</ele>
        <time>2020-10-13T10:33:23Z</time>
      </trkpt>
      <trkpt lat="44.36075" lon="4.02313">
        <ele>703.82</ele>
        <time>2020-10-13T10:33:37Z</time>
      </trkpt>
      <trkpt lat="44.3607" lon="4.02313">
        <ele>702.86</ele>
        <time>2020-10-13T10:33:41Z</time>
      </trkpt>
      <trkpt lat="44.36056" lon="4.0231">
        <ele>699.98</ele>
        <time>2020-10-13T10:33:55Z</time>
      </trkpt>
      <trkpt lat="44.36044" lon="4.02311">
        <ele>697.57</ele>
        <time>2020-10-13T10:34:09Z</time>
      </trkpt>
      <trkpt lat="44.36032" lon="4.02305">
        <ele>694.69</ele>
        <time>2020-10-13T10:34:23Z</time>
      </trkpt>
      <trkpt lat="44.36018" lon="4.02294">
        <ele>691.33</ele>
        <time>2020-10-13T10:34:37Z</time>
      </trkpt>
      <trkpt lat="44.36016" lon="4.02292">
        <ele>690.36</ele>
        <time>2020-10-13T10:34:39Z</time>
      </trkpt>
      <trkpt lat="44.36003" lon="4.02289">
        <ele>687.96</ele>
        <time>2020-10-13T10:34:55Z</time>
      </trkpt>
      <trkpt lat="44.36015" lon="4.02283">
        <ele>684.6</ele>
        <time>2020-10-13T10:35:12Z</time>
      </trkpt>
      <trkpt lat="44.36023" lon="4.02273">
        <ele>681.23</ele>
        <time>2020-10-13T10:35:27Z</time>
      </trkpt>
      <trkpt lat="44.36033" lon="4.02267">
        <ele>678.83</ele>
        <time>2020-10-13T10:35:39Z</time>
      </trkpt>
      <trkpt lat="44.36041" lon="4.02261">
        <ele>675.94</ele>
        <time>2020-10-13T10:35:52Z</time>
      </trkpt>
      <trkpt lat="44.36053" lon="4.02251">
        <ele>672.58</ele>
        <time>2020-10-13T10:36:07Z</time>
      </trkpt>
      <trkpt lat="44.36061" lon="4.02245">
        <ele>670.18</ele>
        <time>2020-10-13T10:36:19Z</time>
      </trkpt>
      <trkpt lat="44.36072" lon="4.02238">
        <ele>668.25</ele>
        <time>2020-10-13T10:36:32Z</time>
      </trkpt>
      <trkpt lat="44.36083" lon="4.02221">
        <ele>665.37</ele>
        <time>2020-10-13T10:36:47Z</time>
      </trkpt>
      <trkpt lat="44.36096" lon="4.02206">
        <ele>662.49</ele>
        <time>2020-10-13T10:37:02Z</time>
      </trkpt>
      <trkpt lat="44.36099" lon="4.02192">
        <ele>660.08</ele>
        <time>2020-10-13T10:37:16Z</time>
      </trkpt>
      <trkpt lat="44.36104" lon="4.02174">
        <ele>657.2</ele>
        <time>2020-10-13T10:37:30Z</time>
      </trkpt>
      <trkpt lat="44.36115" lon="4.0216">
        <ele>654.8</ele>
        <time>2020-10-13T10:37:46Z</time>
      </trkpt>
      <trkpt lat="44.36126" lon="4.02154">
        <ele>652.87</ele>
        <time>2020-10-13T10:38:01Z</time>
      </trkpt>
      <trkpt lat="44.36134" lon="4.02152">
        <ele>650.95</ele>
        <time>2020-10-13T10:38:15Z</time>
      </trkpt>
      <trkpt lat="44.36134" lon="4.02141">
        <ele>649.51</ele>
        <time>2020-10-13T10:38:29Z</time>
      </trkpt>
      <trkpt lat="44.36135" lon="4.02137">
        <ele>649.51</ele>
        <time>2020-10-13T10:38:50Z</time>
      </trkpt>
      <trkpt lat="44.36132" lon="4.02125">
        <ele>649.03</ele>
        <time>2020-10-13T10:39:04Z</time>
      </trkpt>
      <trkpt lat="44.36131" lon="4.0212">
        <ele>647.59</ele>
        <time>2020-10-13T10:39:09Z</time>
      </trkpt>
      <trkpt lat="44.36129" lon="4.02091">
        <ele>644.7</ele>
        <time>2020-10-13T10:39:25Z</time>
      </trkpt>
      <trkpt lat="44.36129" lon="4.02072">
        <ele>642.3</ele>
        <time>2020-10-13T10:39:39Z</time>
      </trkpt>
      <trkpt lat="44.3613" lon="4.02071">
        <ele>642.3</ele>
        <time>2020-10-13T10:39:40Z</time>
      </trkpt>
      <trkpt lat="44.36139" lon="4.02047">
        <ele>639.41</ele>
        <time>2020-10-13T10:39:57Z</time>
      </trkpt>
      <trkpt lat="44.36142" lon="4.02036">
        <ele>637.97</ele>
        <time>2020-10-13T10:40:10Z</time>
      </trkpt>
      <trkpt lat="44.36141" lon="4.02034">
        <ele>637.01</ele>
        <time>2020-10-13T10:40:27Z</time>
      </trkpt>
      <trkpt lat="44.36145" lon="4.02023">
        <ele>636.05</ele>
        <time>2020-10-13T10:40:44Z</time>
      </trkpt>
      <trkpt lat="44.3615" lon="4.02013">
        <ele>634.13</ele>
        <time>2020-10-13T10:40:57Z</time>
      </trkpt>
      <trkpt lat="44.36154" lon="4.02003">
        <ele>631.72</ele>
        <time>2020-10-13T10:41:12Z</time>
      </trkpt>
      <trkpt lat="44.36158" lon="4.01984">
        <ele>628.84</ele>
        <time>2020-10-13T10:41:26Z</time>
      </trkpt>
      <trkpt lat="44.36159" lon="4.01966">
        <ele>626.44</ele>
        <time>2020-10-13T10:41:44Z</time>
      </trkpt>
      <trkpt lat="44.36152" lon="4.01964">
        <ele>624.51</ele>
        <time>2020-10-13T10:41:57Z</time>
      </trkpt>
      <trkpt lat="44.36149" lon="4.01973">
        <ele>624.51</ele>
        <time>2020-10-13T10:42:12Z</time>
      </trkpt>
      <trkpt lat="44.36153" lon="4.01971">
        <ele>624.51</ele>
        <time>2020-10-13T10:42:29Z</time>
      </trkpt>
      <trkpt lat="44.36154" lon="4.0196">
        <ele>624.51</ele>
        <time>2020-10-13T10:42:46Z</time>
      </trkpt>
      <trkpt lat="44.36143" lon="4.01939">
        <ele>624.03</ele>
        <time>2020-10-13T10:43:03Z</time>
      </trkpt>
      <trkpt lat="44.36139" lon="4.01929">
        <ele>623.55</ele>
        <time>2020-10-13T10:43:20Z</time>
      </trkpt>
      <trkpt lat="44.36137" lon="4.01918">
        <ele>623.55</ele>
        <time>2020-10-13T10:43:34Z</time>
      </trkpt>
      <trkpt lat="44.36139" lon="4.01907">
        <ele>623.55</ele>
        <time>2020-10-13T10:43:49Z</time>
      </trkpt>
      <trkpt lat="44.3614" lon="4.01904">
        <ele>624.51</ele>
        <time>2020-10-13T10:43:52Z</time>
      </trkpt>
      <trkpt lat="44.36146" lon="4.01886">
        <ele>623.55</ele>
        <time>2020-10-13T10:44:10Z</time>
      </trkpt>
      <trkpt lat="44.36149" lon="4.01879">
        <ele>623.07</ele>
        <time>2020-10-13T10:44:23Z</time>
      </trkpt>
      <trkpt lat="44.36148" lon="4.01875">
        <ele>623.07</ele>
        <time>2020-10-13T10:44:42Z</time>
      </trkpt>
      <trkpt lat="44.36149" lon="4.01872">
        <ele>622.59</ele>
        <time>2020-10-13T10:44:58Z</time>
      </trkpt>
      <trkpt lat="44.36151" lon="4.01875">
        <ele>622.59</ele>
        <time>2020-10-13T10:45:10Z</time>
      </trkpt>
      <trkpt lat="44.36149" lon="4.0188">
        <ele>622.59</ele>
        <time>2020-10-13T10:45:23Z</time>
      </trkpt>
      <trkpt lat="44.36155" lon="4.01873">
        <ele>622.59</ele>
        <time>2020-10-13T10:45:36Z</time>
      </trkpt>
      <trkpt lat="44.36156" lon="4.01869">
        <ele>623.55</ele>
        <time>2020-10-13T10:45:52Z</time>
      </trkpt>
      <trkpt lat="44.36155" lon="4.01871">
        <ele>623.55</ele>
        <time>2020-10-13T10:46:09Z</time>
      </trkpt>
      <trkpt lat="44.36151" lon="4.01879">
        <ele>623.55</ele>
        <time>2020-10-13T10:46:23Z</time>
      </trkpt>
      <trkpt lat="44.36147" lon="4.01881">
        <ele>623.55</ele>
        <time>2020-10-13T10:46:37Z</time>
      </trkpt>
      <trkpt lat="44.36146" lon="4.01881">
        <ele>623.55</ele>
        <time>2020-10-13T10:46:54Z</time>
      </trkpt>
      <trkpt lat="44.36146" lon="4.01881">
        <ele>622.11</ele>
        <time>2020-10-13T10:46:56Z</time>
      </trkpt>
      <trkpt lat="44.36145" lon="4.01881">
        <ele>622.59</ele>
        <time>2020-10-13T10:47:24Z</time>
      </trkpt>
      <trkpt lat="44.36145" lon="4.01884">
        <ele>622.59</ele>
        <time>2020-10-13T10:47:53Z</time>
      </trkpt>
      <trkpt lat="44.36146" lon="4.01883">
        <ele>622.59</ele>
        <time>2020-10-13T10:48:09Z</time>
      </trkpt>
      <trkpt lat="44.36146" lon="4.0188">
        <ele>622.59</ele>
        <time>2020-10-13T10:48:24Z</time>
      </trkpt>
      <trkpt lat="44.36146" lon="4.01881">
        <ele>622.59</ele>
        <time>2020-10-13T10:48:54Z</time>
      </trkpt>
      <trkpt lat="44.36146" lon="4.0188">
        <ele>622.59</ele>
        <time>2020-10-13T10:49:09Z</time>
      </trkpt>
      <trkpt lat="44.36147" lon="4.01881">
        <ele>622.59</ele>
        <time>2020-10-13T10:49:34Z</time>
      </trkpt>
      <trkpt lat="44.36148" lon="4.01882">
        <ele>622.59</ele>
        <time>2020-10-13T10:50:00Z</time>
      </trkpt>
      <trkpt lat="44.36147" lon="4.01884">
        <ele>622.59</ele>
        <time>2020-10-13T10:50:22Z</time>
      </trkpt>
      <trkpt lat="44.36149" lon="4.01877">
        <ele>622.59</ele>
        <time>2020-10-13T10:50:36Z</time>
      </trkpt>
      <trkpt lat="44.36146" lon="4.0188">
        <ele>622.59</ele>
        <time>2020-10-13T10:50:52Z</time>
      </trkpt>
      <trkpt lat="44.36136" lon="4.01884">
        <ele>621.15</ele>
        <time>2020-10-13T10:51:09Z</time>
      </trkpt>
      <trkpt lat="44.3613" lon="4.01887">
        <ele>619.71</ele>
        <time>2020-10-13T10:51:27Z</time>
      </trkpt>
      <trkpt lat="44.36127" lon="4.01886">
        <ele>618.75</ele>
        <time>2020-10-13T10:51:39Z</time>
      </trkpt>
      <trkpt lat="44.36126" lon="4.01888">
        <ele>618.75</ele>
        <time>2020-10-13T10:51:41Z</time>
      </trkpt>
      <trkpt lat="44.36119" lon="4.01906">
        <ele>615.38</ele>
        <time>2020-10-13T10:51:54Z</time>
      </trkpt>
      <trkpt lat="44.36121" lon="4.01925">
        <ele>612.5</ele>
        <time>2020-10-13T10:52:10Z</time>
      </trkpt>
      <trkpt lat="44.36125" lon="4.01943">
        <ele>610.57</ele>
        <time>2020-10-13T10:52:27Z</time>
      </trkpt>
      <trkpt lat="44.36126" lon="4.01954">
        <ele>609.13</ele>
        <time>2020-10-13T10:52:41Z</time>
      </trkpt>
      <trkpt lat="44.36122" lon="4.01958">
        <ele>608.17</ele>
        <time>2020-10-13T10:52:53Z</time>
      </trkpt>
      <trkpt lat="44.36119" lon="4.0196">
        <ele>607.69</ele>
        <time>2020-10-13T10:53:09Z</time>
      </trkpt>
      <trkpt lat="44.36118" lon="4.01963">
        <ele>607.69</ele>
        <time>2020-10-13T10:53:35Z</time>
      </trkpt>
      <trkpt lat="44.36116" lon="4.01962">
        <ele>607.69</ele>
        <time>2020-10-13T10:53:47Z</time>
      </trkpt>
      <trkpt lat="44.36114" lon="4.01962">
        <ele>607.21</ele>
        <time>2020-10-13T10:53:49Z</time>
      </trkpt>
      <trkpt lat="44.36107" lon="4.01965">
        <ele>606.73</ele>
        <time>2020-10-13T10:53:55Z</time>
      </trkpt>
      <trkpt lat="44.36092" lon="4.01985">
        <ele>605.29</ele>
        <time>2020-10-13T10:54:13Z</time>
      </trkpt>
      <trkpt lat="44.36084" lon="4.0201">
        <ele>603.36</ele>
        <time>2020-10-13T10:54:30Z</time>
      </trkpt>
      <trkpt lat="44.3608" lon="4.02016">
        <ele>602.4</ele>
        <time>2020-10-13T10:54:35Z</time>
      </trkpt>
      <trkpt lat="44.36072" lon="4.02037">
        <ele>599.52</ele>
        <time>2020-10-13T10:54:51Z</time>
      </trkpt>
      <trkpt lat="44.36067" lon="4.02042">
        <ele>599.04</ele>
        <time>2020-10-13T10:54:56Z</time>
      </trkpt>
      <trkpt lat="44.36046" lon="4.02038">
        <ele>598.08</ele>
        <time>2020-10-13T10:55:12Z</time>
      </trkpt>
      <trkpt lat="44.36027" lon="4.02021">
        <ele>596.64</ele>
        <time>2020-10-13T10:55:29Z</time>
      </trkpt>
      <trkpt lat="44.36008" lon="4.02011">
        <ele>595.19</ele>
        <time>2020-10-13T10:55:44Z</time>
      </trkpt>
      <trkpt lat="44.35997" lon="4.02008">
        <ele>593.27</ele>
        <time>2020-10-13T10:56:00Z</time>
      </trkpt>
      <trkpt lat="44.35975" lon="4.02013">
        <ele>590.87</ele>
        <time>2020-10-13T10:56:17Z</time>
      </trkpt>
      <trkpt lat="44.35957" lon="4.02025">
        <ele>590.39</ele>
        <time>2020-10-13T10:56:32Z</time>
      </trkpt>
      <trkpt lat="44.35938" lon="4.02037">
        <ele>588.46</ele>
        <time>2020-10-13T10:56:49Z</time>
      </trkpt>
      <trkpt lat="44.35922" lon="4.02058">
        <ele>587.5</ele>
        <time>2020-10-13T10:57:06Z</time>
      </trkpt>
      <trkpt lat="44.35914" lon="4.02061">
        <ele>587.5</ele>
        <time>2020-10-13T10:57:18Z</time>
      </trkpt>
      <trkpt lat="44.35901" lon="4.02055">
        <ele>588.95</ele>
        <time>2020-10-13T10:57:30Z</time>
      </trkpt>
      <trkpt lat="44.35893" lon="4.02046">
        <ele>589.43</ele>
        <time>2020-10-13T10:57:38Z</time>
      </trkpt>
      <trkpt lat="44.3588" lon="4.0202">
        <ele>590.87</ele>
        <time>2020-10-13T10:57:57Z</time>
      </trkpt>
      <trkpt lat="44.35869" lon="4.02">
        <ele>593.75</ele>
        <time>2020-10-13T10:58:14Z</time>
      </trkpt>
      <trkpt lat="44.35854" lon="4.01985">
        <ele>595.67</ele>
        <time>2020-10-13T10:58:31Z</time>
      </trkpt>
      <trkpt lat="44.35841" lon="4.01976">
        <ele>595.67</ele>
        <time>2020-10-13T10:58:47Z</time>
      </trkpt>
      <trkpt lat="44.35839" lon="4.01973">
        <ele>594.23</ele>
        <time>2020-10-13T10:58:56Z</time>
      </trkpt>
      <trkpt lat="44.35831" lon="4.01957">
        <ele>591.35</ele>
        <time>2020-10-13T10:59:11Z</time>
      </trkpt>
      <trkpt lat="44.3583" lon="4.01953">
        <ele>590.87</ele>
        <time>2020-10-13T10:59:14Z</time>
      </trkpt>
      <trkpt lat="44.35825" lon="4.01944">
        <ele>589.43</ele>
        <time>2020-10-13T10:59:30Z</time>
      </trkpt>
      <trkpt lat="44.35813" lon="4.01919">
        <ele>587.02</ele>
        <time>2020-10-13T10:59:47Z</time>
      </trkpt>
      <trkpt lat="44.35806" lon="4.01894">
        <ele>585.58</ele>
        <time>2020-10-13T11:00:05Z</time>
      </trkpt>
      <trkpt lat="44.35805" lon="4.01891">
        <ele>585.1</ele>
        <time>2020-10-13T11:00:21Z</time>
      </trkpt>
      <trkpt lat="44.358" lon="4.01884">
        <ele>583.66</ele>
        <time>2020-10-13T11:00:31Z</time>
      </trkpt>
      <trkpt lat="44.35793" lon="4.01864">
        <ele>581.73</ele>
        <time>2020-10-13T11:00:47Z</time>
      </trkpt>
      <trkpt lat="44.35784" lon="4.0184">
        <ele>579.33</ele>
        <time>2020-10-13T11:01:05Z</time>
      </trkpt>
      <trkpt lat="44.35776" lon="4.0182">
        <ele>576.45</ele>
        <time>2020-10-13T11:01:22Z</time>
      </trkpt>
      <trkpt lat="44.35767" lon="4.01797">
        <ele>574.04</ele>
        <time>2020-10-13T11:01:38Z</time>
      </trkpt>
      <trkpt lat="44.35757" lon="4.0178">
        <ele>571.16</ele>
        <time>2020-10-13T11:01:55Z</time>
      </trkpt>
      <trkpt lat="44.35757" lon="4.01783">
        <ele>570.68</ele>
        <time>2020-10-13T11:02:17Z</time>
      </trkpt>
      <trkpt lat="44.35757" lon="4.01779">
        <ele>570.68</ele>
        <time>2020-10-13T11:02:35Z</time>
      </trkpt>
      <trkpt lat="44.35744" lon="4.01768">
        <ele>567.8</ele>
        <time>2020-10-13T11:02:52Z</time>
      </trkpt>
      <trkpt lat="44.35738" lon="4.01761">
        <ele>564.43</ele>
        <time>2020-10-13T11:03:03Z</time>
      </trkpt>
      <trkpt lat="44.35736" lon="4.01759">
        <ele>563.95</ele>
        <time>2020-10-13T11:03:05Z</time>
      </trkpt>
      <trkpt lat="44.35722" lon="4.01752">
        <ele>562.03</ele>
        <time>2020-10-13T11:03:19Z</time>
      </trkpt>
      <trkpt lat="44.35711" lon="4.01744">
        <ele>559.14</ele>
        <time>2020-10-13T11:03:33Z</time>
      </trkpt>
      <trkpt lat="44.35701" lon="4.01738">
        <ele>556.74</ele>
        <time>2020-10-13T11:03:48Z</time>
      </trkpt>
      <trkpt lat="44.35693" lon="4.01731">
        <ele>553.86</ele>
        <time>2020-10-13T11:04:03Z</time>
      </trkpt>
      <trkpt lat="44.35683" lon="4.01726">
        <ele>551.93</ele>
        <time>2020-10-13T11:04:11Z</time>
      </trkpt>
      <trkpt lat="44.3568" lon="4.01724">
        <ele>551.45</ele>
        <time>2020-10-13T11:04:13Z</time>
      </trkpt>
      <trkpt lat="44.3567" lon="4.0172">
        <ele>549.05</ele>
        <time>2020-10-13T11:04:20Z</time>
      </trkpt>
      <trkpt lat="44.35665" lon="4.01719">
        <ele>547.61</ele>
        <time>2020-10-13T11:04:23Z</time>
      </trkpt>
      <trkpt lat="44.35651" lon="4.01713">
        <ele>545.2</ele>
        <time>2020-10-13T11:04:35Z</time>
      </trkpt>
      <trkpt lat="44.35649" lon="4.01712">
        <ele>544.24</ele>
        <time>2020-10-13T11:04:37Z</time>
      </trkpt>
      <trkpt lat="44.35635" lon="4.01707">
        <ele>541.36</ele>
        <time>2020-10-13T11:04:51Z</time>
      </trkpt>
      <trkpt lat="44.35618" lon="4.01703">
        <ele>537.51</ele>
        <time>2020-10-13T11:05:06Z</time>
      </trkpt>
      <trkpt lat="44.35604" lon="4.01701">
        <ele>534.63</ele>
        <time>2020-10-13T11:05:20Z</time>
      </trkpt>
      <trkpt lat="44.35593" lon="4.01692">
        <ele>532.23</ele>
        <time>2020-10-13T11:05:32Z</time>
      </trkpt>
      <trkpt lat="44.35587" lon="4.0169">
        <ele>530.3</ele>
        <time>2020-10-13T11:05:38Z</time>
      </trkpt>
      <trkpt lat="44.35573" lon="4.01688">
        <ele>528.86</ele>
        <time>2020-10-13T11:05:51Z</time>
      </trkpt>
      <trkpt lat="44.35562" lon="4.0168">
        <ele>525.5</ele>
        <time>2020-10-13T11:06:05Z</time>
      </trkpt>
      <trkpt lat="44.3555" lon="4.01663">
        <ele>522.61</ele>
        <time>2020-10-13T11:06:22Z</time>
      </trkpt>
      <trkpt lat="44.35537" lon="4.0166">
        <ele>519.73</ele>
        <time>2020-10-13T11:06:38Z</time>
      </trkpt>
      <trkpt lat="44.35522" lon="4.01668">
        <ele>517.81</ele>
        <time>2020-10-13T11:06:54Z</time>
      </trkpt>
      <trkpt lat="44.35514" lon="4.01674">
        <ele>516.37</ele>
        <time>2020-10-13T11:07:08Z</time>
      </trkpt>
      <trkpt lat="44.3551" lon="4.01688">
        <ele>513.48</ele>
        <time>2020-10-13T11:07:23Z</time>
      </trkpt>
      <trkpt lat="44.35509" lon="4.01702">
        <ele>511.56</ele>
        <time>2020-10-13T11:07:36Z</time>
      </trkpt>
      <trkpt lat="44.3551" lon="4.01712">
        <ele>509.64</ele>
        <time>2020-10-13T11:07:52Z</time>
      </trkpt>
      <trkpt lat="44.35509" lon="4.01728">
        <ele>507.23</ele>
        <time>2020-10-13T11:08:03Z</time>
      </trkpt>
      <trkpt lat="44.35505" lon="4.01741">
        <ele>506.27</ele>
        <time>2020-10-13T11:08:12Z</time>
      </trkpt>
      <trkpt lat="44.35505" lon="4.01745">
        <ele>506.27</ele>
        <time>2020-10-13T11:08:14Z</time>
      </trkpt>
      <trkpt lat="44.35509" lon="4.01752">
        <ele>505.79</ele>
        <time>2020-10-13T11:08:30Z</time>
      </trkpt>
      <trkpt lat="44.35511" lon="4.01759">
        <ele>505.79</ele>
        <time>2020-10-13T11:09:05Z</time>
      </trkpt>
      <trkpt lat="44.35485" lon="4.01762">
        <ele>505.79</ele>
        <time>2020-10-13T11:09:21Z</time>
      </trkpt>
      <trkpt lat="44.35461" lon="4.01754">
        <ele>505.31</ele>
        <time>2020-10-13T11:09:36Z</time>
      </trkpt>
      <trkpt lat="44.35438" lon="4.01742">
        <ele>504.83</ele>
        <time>2020-10-13T11:09:51Z</time>
      </trkpt>
      <trkpt lat="44.35409" lon="4.01734">
        <ele>504.83</ele>
        <time>2020-10-13T11:10:10Z</time>
      </trkpt>
      <trkpt lat="44.35385" lon="4.01729">
        <ele>502.91</ele>
        <time>2020-10-13T11:10:26Z</time>
      </trkpt>
      <trkpt lat="44.35363" lon="4.01731">
        <ele>502.43</ele>
        <time>2020-10-13T11:10:42Z</time>
      </trkpt>
      <trkpt lat="44.3534" lon="4.01733">
        <ele>500.98</ele>
        <time>2020-10-13T11:10:59Z</time>
      </trkpt>
      <trkpt lat="44.3531" lon="4.01738">
        <ele>498.58</ele>
        <time>2020-10-13T11:11:22Z</time>
      </trkpt>
      <trkpt lat="44.35298" lon="4.01743">
        <ele>498.58</ele>
        <time>2020-10-13T11:11:37Z</time>
      </trkpt>
      <trkpt lat="44.35278" lon="4.0176">
        <ele>499.54</ele>
        <time>2020-10-13T11:11:57Z</time>
      </trkpt>
      <trkpt lat="44.35259" lon="4.01778">
        <ele>500.5</ele>
        <time>2020-10-13T11:12:15Z</time>
      </trkpt>
      <trkpt lat="44.35255" lon="4.01781">
        <ele>500.5</ele>
        <time>2020-10-13T11:12:18Z</time>
      </trkpt>
      <trkpt lat="44.35247" lon="4.01781">
        <ele>500.98</ele>
        <time>2020-10-13T11:12:25Z</time>
      </trkpt>
      <trkpt lat="44.35233" lon="4.01786">
        <ele>501.95</ele>
        <time>2020-10-13T11:12:41Z</time>
      </trkpt>
      <trkpt lat="44.35231" lon="4.01793">
        <ele>501.95</ele>
        <time>2020-10-13T11:12:58Z</time>
      </trkpt>
      <trkpt lat="44.35232" lon="4.01794">
        <ele>501.95</ele>
        <time>2020-10-13T11:13:22Z</time>
      </trkpt>
      <trkpt lat="44.35231" lon="4.01793">
        <ele>501.95</ele>
        <time>2020-10-13T11:13:40Z</time>
      </trkpt>
      <trkpt lat="44.35231" lon="4.01792">
        <ele>501.95</ele>
        <time>2020-10-13T11:13:58Z</time>
      </trkpt>
      <trkpt lat="44.35226" lon="4.01794">
        <ele>501.95</ele>
        <time>2020-10-13T11:14:22Z</time>
      </trkpt>
      <trkpt lat="44.35224" lon="4.01796">
        <ele>501.95</ele>
        <time>2020-10-13T11:14:44Z</time>
      </trkpt>
      <trkpt lat="44.35216" lon="4.01795">
        <ele>503.39</ele>
        <time>2020-10-13T11:14:59Z</time>
      </trkpt>
      <trkpt lat="44.35214" lon="4.01796">
        <ele>503.39</ele>
        <time>2020-10-13T11:15:01Z</time>
      </trkpt>
      <trkpt lat="44.35204" lon="4.018">
        <ele>504.83</ele>
        <time>2020-10-13T11:15:15Z</time>
      </trkpt>
      <trkpt lat="44.35189" lon="4.01804">
        <ele>506.75</ele>
        <time>2020-10-13T11:15:30Z</time>
      </trkpt>
      <trkpt lat="44.35178" lon="4.01812">
        <ele>508.19</ele>
        <time>2020-10-13T11:15:45Z</time>
      </trkpt>
      <trkpt lat="44.35166" lon="4.01816">
        <ele>509.64</ele>
        <time>2020-10-13T11:15:58Z</time>
      </trkpt>
      <trkpt lat="44.35157" lon="4.0181">
        <ele>511.08</ele>
        <time>2020-10-13T11:16:13Z</time>
      </trkpt>
      <trkpt lat="44.3515" lon="4.018">
        <ele>511.56</ele>
        <time>2020-10-13T11:16:25Z</time>
      </trkpt>
      <trkpt lat="44.35141" lon="4.01787">
        <ele>513</ele>
        <time>2020-10-13T11:16:38Z</time>
      </trkpt>
      <trkpt lat="44.35129" lon="4.01774">
        <ele>513.96</ele>
        <time>2020-10-13T11:16:53Z</time>
      </trkpt>
      <trkpt lat="44.35119" lon="4.01762">
        <ele>515.4</ele>
        <time>2020-10-13T11:17:06Z</time>
      </trkpt>
      <trkpt lat="44.35117" lon="4.0176">
        <ele>515.88</ele>
        <time>2020-10-13T11:17:09Z</time>
      </trkpt>
      <trkpt lat="44.35114" lon="4.01759">
        <ele>515.88</ele>
        <time>2020-10-13T11:17:12Z</time>
      </trkpt>
      <trkpt lat="44.35105" lon="4.01769">
        <ele>517.33</ele>
        <time>2020-10-13T11:17:29Z</time>
      </trkpt>
      <trkpt lat="44.35095" lon="4.01788">
        <ele>520.21</ele>
        <time>2020-10-13T11:17:48Z</time>
      </trkpt>
      <trkpt lat="44.35088" lon="4.01808">
        <ele>522.13</ele>
        <time>2020-10-13T11:18:05Z</time>
      </trkpt>
      <trkpt lat="44.35082" lon="4.01819">
        <ele>522.13</ele>
        <time>2020-10-13T11:18:17Z</time>
      </trkpt>
      <trkpt lat="44.35074" lon="4.01833">
        <ele>522.61</ele>
        <time>2020-10-13T11:18:30Z</time>
      </trkpt>
      <trkpt lat="44.3507" lon="4.01836">
        <ele>523.09</ele>
        <time>2020-10-13T11:18:43Z</time>
      </trkpt>
      <trkpt lat="44.35069" lon="4.01836">
        <ele>523.09</ele>
        <time>2020-10-13T11:19:06Z</time>
      </trkpt>
      <trkpt lat="44.35065" lon="4.01844">
        <ele>523.09</ele>
        <time>2020-10-13T11:19:20Z</time>
      </trkpt>
      <trkpt lat="44.35066" lon="4.01849">
        <ele>523.09</ele>
        <time>2020-10-13T11:19:39Z</time>
      </trkpt>
      <trkpt lat="44.35064" lon="4.01854">
        <ele>523.58</ele>
        <time>2020-10-13T11:19:56Z</time>
      </trkpt>
      <trkpt lat="44.35056" lon="4.01857">
        <ele>524.06</ele>
        <time>2020-10-13T11:20:09Z</time>
      </trkpt>
      <trkpt lat="44.35056" lon="4.01854">
        <ele>524.54</ele>
        <time>2020-10-13T11:20:15Z</time>
      </trkpt>
      <trkpt lat="44.35043" lon="4.01835">
        <ele>524.54</ele>
        <time>2020-10-13T11:20:31Z</time>
      </trkpt>
      <trkpt lat="44.35031" lon="4.01823">
        <ele>524.06</ele>
        <time>2020-10-13T11:20:46Z</time>
      </trkpt>
      <trkpt lat="44.35029" lon="4.01816">
        <ele>524.06</ele>
        <time>2020-10-13T11:21:00Z</time>
      </trkpt>
      <trkpt lat="44.35031" lon="4.01817">
        <ele>524.06</ele>
        <time>2020-10-13T11:21:17Z</time>
      </trkpt>
      <trkpt lat="44.35034" lon="4.01824">
        <ele>524.06</ele>
        <time>2020-10-13T11:21:33Z</time>
      </trkpt>
      <trkpt lat="44.35035" lon="4.01822">
        <ele>524.06</ele>
        <time>2020-10-13T11:21:55Z</time>
      </trkpt>
      <trkpt lat="44.35029" lon="4.01814">
        <ele>524.06</ele>
        <time>2020-10-13T11:22:09Z</time>
      </trkpt>
      <trkpt lat="44.35024" lon="4.01806">
        <ele>524.06</ele>
        <time>2020-10-13T11:22:18Z</time>
      </trkpt>
      <trkpt lat="44.35013" lon="4.01776">
        <ele>524.06</ele>
        <time>2020-10-13T11:22:36Z</time>
      </trkpt>
      <trkpt lat="44.35006" lon="4.01747">
        <ele>523.58</ele>
        <time>2020-10-13T11:22:54Z</time>
      </trkpt>
      <trkpt lat="44.35002" lon="4.01729">
        <ele>523.58</ele>
        <time>2020-10-13T11:23:05Z</time>
      </trkpt>
      <trkpt lat="44.34999" lon="4.01712">
        <ele>523.58</ele>
        <time>2020-10-13T11:23:13Z</time>
      </trkpt>
      <trkpt lat="44.34995" lon="4.01682">
        <ele>521.17</ele>
        <time>2020-10-13T11:23:31Z</time>
      </trkpt>
      <trkpt lat="44.34995" lon="4.01681">
        <ele>521.17</ele>
        <time>2020-10-13T11:23:35Z</time>
      </trkpt>
      <trkpt lat="44.34991" lon="4.01666">
        <ele>520.21</ele>
        <time>2020-10-13T11:23:47Z</time>
      </trkpt>
      <trkpt lat="44.34984" lon="4.01642">
        <ele>518.29</ele>
        <time>2020-10-13T11:24:04Z</time>
      </trkpt>
      <trkpt lat="44.34974" lon="4.01614">
        <ele>515.88</ele>
        <time>2020-10-13T11:24:22Z</time>
      </trkpt>
      <trkpt lat="44.34971" lon="4.01608">
        <ele>515.4</ele>
        <time>2020-10-13T11:24:36Z</time>
      </trkpt>
      <trkpt lat="44.34971" lon="4.01608">
        <ele>515.4</ele>
        <time>2020-10-13T11:24:38Z</time>
      </trkpt>
      <trkpt lat="44.34969" lon="4.01598">
        <ele>515.4</ele>
        <time>2020-10-13T11:24:44Z</time>
      </trkpt>
      <trkpt lat="44.34959" lon="4.01577">
        <ele>513.96</ele>
        <time>2020-10-13T11:24:57Z</time>
      </trkpt>
      <trkpt lat="44.34956" lon="4.01576">
        <ele>513.96</ele>
        <time>2020-10-13T11:25:11Z</time>
      </trkpt>
      <trkpt lat="44.34957" lon="4.01576">
        <ele>513.96</ele>
        <time>2020-10-13T11:25:15Z</time>
      </trkpt>
      <trkpt lat="44.34954" lon="4.01556">
        <ele>513.96</ele>
        <time>2020-10-13T11:25:33Z</time>
      </trkpt>
      <trkpt lat="44.34945" lon="4.01536">
        <ele>513</ele>
        <time>2020-10-13T11:25:47Z</time>
      </trkpt>
      <trkpt lat="44.34933" lon="4.01506">
        <ele>512.04</ele>
        <time>2020-10-13T11:26:04Z</time>
      </trkpt>
      <trkpt lat="44.3492" lon="4.01477">
        <ele>510.6</ele>
        <time>2020-10-13T11:26:23Z</time>
      </trkpt>
      <trkpt lat="44.34911" lon="4.01467">
        <ele>509.64</ele>
        <time>2020-10-13T11:26:39Z</time>
      </trkpt>
      <trkpt lat="44.34908" lon="4.0146">
        <ele>509.16</ele>
        <time>2020-10-13T11:26:47Z</time>
      </trkpt>
      <trkpt lat="44.34894" lon="4.01447">
        <ele>507.23</ele>
        <time>2020-10-13T11:27:04Z</time>
      </trkpt>
      <trkpt lat="44.34894" lon="4.01447">
        <ele>506.75</ele>
        <time>2020-10-13T11:27:12Z</time>
      </trkpt>
      <trkpt lat="44.34899" lon="4.01447">
        <ele>507.23</ele>
        <time>2020-10-13T11:27:28Z</time>
      </trkpt>
      <trkpt lat="44.34885" lon="4.01435">
        <ele>505.79</ele>
        <time>2020-10-13T11:27:45Z</time>
      </trkpt>
      <trkpt lat="44.34884" lon="4.01434">
        <ele>505.79</ele>
        <time>2020-10-13T11:27:46Z</time>
      </trkpt>
      <trkpt lat="44.34863" lon="4.01414">
        <ele>504.35</ele>
        <time>2020-10-13T11:28:05Z</time>
      </trkpt>
      <trkpt lat="44.34844" lon="4.01401">
        <ele>503.87</ele>
        <time>2020-10-13T11:28:23Z</time>
      </trkpt>
      <trkpt lat="44.34841" lon="4.01404">
        <ele>503.39</ele>
        <time>2020-10-13T11:28:33Z</time>
      </trkpt>
      <trkpt lat="44.3483" lon="4.01396">
        <ele>503.39</ele>
        <time>2020-10-13T11:28:48Z</time>
      </trkpt>
      <trkpt lat="44.34825" lon="4.01388">
        <ele>502.91</ele>
        <time>2020-10-13T11:29:01Z</time>
      </trkpt>
      <trkpt lat="44.3482" lon="4.01385">
        <ele>502.91</ele>
        <time>2020-10-13T11:29:14Z</time>
      </trkpt>
      <trkpt lat="44.34809" lon="4.01387">
        <ele>501.95</ele>
        <time>2020-10-13T11:29:26Z</time>
      </trkpt>
      <trkpt lat="44.34805" lon="4.01394">
        <ele>501.46</ele>
        <time>2020-10-13T11:29:39Z</time>
      </trkpt>
      <trkpt lat="44.34806" lon="4.01407">
        <ele>501.46</ele>
        <time>2020-10-13T11:29:57Z</time>
      </trkpt>
      <trkpt lat="44.34805" lon="4.01413">
        <ele>501.46</ele>
        <time>2020-10-13T11:30:08Z</time>
      </trkpt>
      <trkpt lat="44.34792" lon="4.01431">
        <ele>501.46</ele>
        <time>2020-10-13T11:30:33Z</time>
      </trkpt>
      <trkpt lat="44.34803" lon="4.01422">
        <ele>506.75</ele>
        <time>2020-10-13T11:30:58Z</time>
      </trkpt>
      <trkpt lat="44.34809" lon="4.01403">
        <ele>506.75</ele>
        <time>2020-10-13T11:31:19Z</time>
      </trkpt>
      <trkpt lat="44.34809" lon="4.01405">
        <ele>505.31</ele>
        <time>2020-10-13T11:31:30Z</time>
      </trkpt>
      <trkpt lat="44.34803" lon="4.0141">
        <ele>504.35</ele>
        <time>2020-10-13T11:31:37Z</time>
      </trkpt>
      <trkpt lat="44.348" lon="4.01402">
        <ele>501.95</ele>
        <time>2020-10-13T11:31:54Z</time>
      </trkpt>
      <trkpt lat="44.34799" lon="4.01399">
        <ele>501.95</ele>
        <time>2020-10-13T11:32:07Z</time>
      </trkpt>
      <trkpt lat="44.34794" lon="4.01402">
        <ele>501.95</ele>
        <time>2020-10-13T11:32:21Z</time>
      </trkpt>
      <trkpt lat="44.34798" lon="4.01393">
        <ele>501.95</ele>
        <time>2020-10-13T11:32:43Z</time>
      </trkpt>
      <trkpt lat="44.34797" lon="4.01392">
        <ele>502.43</ele>
        <time>2020-10-13T11:32:58Z</time>
      </trkpt>
      <trkpt lat="44.34801" lon="4.01388">
        <ele>502.43</ele>
        <time>2020-10-13T11:33:15Z</time>
      </trkpt>
      <trkpt lat="44.34804" lon="4.01391">
        <ele>502.43</ele>
        <time>2020-10-13T11:33:33Z</time>
      </trkpt>
      <trkpt lat="44.34804" lon="4.01389">
        <ele>502.43</ele>
        <time>2020-10-13T11:33:48Z</time>
      </trkpt>
      <trkpt lat="44.34802" lon="4.01387">
        <ele>502.43</ele>
        <time>2020-10-13T11:34:02Z</time>
      </trkpt>
      <trkpt lat="44.34803" lon="4.01388">
        <ele>502.43</ele>
        <time>2020-10-13T11:34:24Z</time>
      </trkpt>
      <trkpt lat="44.34804" lon="4.01384">
        <ele>502.43</ele>
        <time>2020-10-13T11:34:38Z</time>
      </trkpt>
      <trkpt lat="44.34809" lon="4.01382">
        <ele>502.43</ele>
        <time>2020-10-13T11:34:52Z</time>
      </trkpt>
      <trkpt lat="44.34808" lon="4.01382">
        <ele>502.43</ele>
        <time>2020-10-13T11:35:14Z</time>
      </trkpt>
      <trkpt lat="44.34809" lon="4.01384">
        <ele>502.43</ele>
        <time>2020-10-13T11:35:30Z</time>
      </trkpt>
      <trkpt lat="44.34814" lon="4.0139">
        <ele>502.43</ele>
        <time>2020-10-13T11:35:46Z</time>
      </trkpt>
      <trkpt lat="44.34818" lon="4.01392">
        <ele>503.87</ele>
        <time>2020-10-13T11:35:51Z</time>
      </trkpt>
      <trkpt lat="44.34828" lon="4.01395">
        <ele>503.87</ele>
        <time>2020-10-13T11:36:07Z</time>
      </trkpt>
      <trkpt lat="44.34827" lon="4.01397">
        <ele>504.35</ele>
        <time>2020-10-13T11:36:16Z</time>
      </trkpt>
      <trkpt lat="44.34825" lon="4.01405">
        <ele>504.35</ele>
        <time>2020-10-13T11:36:32Z</time>
      </trkpt>
      <trkpt lat="44.34817" lon="4.01425">
        <ele>504.35</ele>
        <time>2020-10-13T11:36:46Z</time>
      </trkpt>
      <trkpt lat="44.34811" lon="4.0144">
        <ele>502.43</ele>
        <time>2020-10-13T11:37:02Z</time>
      </trkpt>
      <trkpt lat="44.34798" lon="4.01458">
        <ele>500.98</ele>
        <time>2020-10-13T11:37:17Z</time>
      </trkpt>
      <trkpt lat="44.34787" lon="4.01483">
        <ele>498.58</ele>
        <time>2020-10-13T11:37:33Z</time>
      </trkpt>
      <trkpt lat="44.34793" lon="4.01508">
        <ele>497.62</ele>
        <time>2020-10-13T11:37:51Z</time>
      </trkpt>
      <trkpt lat="44.34797" lon="4.01522">
        <ele>497.14</ele>
        <time>2020-10-13T11:38:08Z</time>
      </trkpt>
      <trkpt lat="44.348" lon="4.01531">
        <ele>497.14</ele>
        <time>2020-10-13T11:38:26Z</time>
      </trkpt>
      <trkpt lat="44.34806" lon="4.01554">
        <ele>495.7</ele>
        <time>2020-10-13T11:38:40Z</time>
      </trkpt>
      <trkpt lat="44.34808" lon="4.01576">
        <ele>493.77</ele>
        <time>2020-10-13T11:38:55Z</time>
      </trkpt>
      <trkpt lat="44.34813" lon="4.01601">
        <ele>490.89</ele>
        <time>2020-10-13T11:39:13Z</time>
      </trkpt>
      <trkpt lat="44.34818" lon="4.0162">
        <ele>488.97</ele>
        <time>2020-10-13T11:39:28Z</time>
      </trkpt>
      <trkpt lat="44.34819" lon="4.01623">
        <ele>488.97</ele>
        <time>2020-10-13T11:39:30Z</time>
      </trkpt>
      <trkpt lat="44.34823" lon="4.01631">
        <ele>488.49</ele>
        <time>2020-10-13T11:39:35Z</time>
      </trkpt>
      <trkpt lat="44.3483" lon="4.0166">
        <ele>485.6</ele>
        <time>2020-10-13T11:39:52Z</time>
      </trkpt>
      <trkpt lat="44.34834" lon="4.01674">
        <ele>483.68</ele>
        <time>2020-10-13T11:40:05Z</time>
      </trkpt>
      <trkpt lat="44.34839" lon="4.01691">
        <ele>481.28</ele>
        <time>2020-10-13T11:40:22Z</time>
      </trkpt>
      <trkpt lat="44.34844" lon="4.01719">
        <ele>478.87</ele>
        <time>2020-10-13T11:40:38Z</time>
      </trkpt>
      <trkpt lat="44.34851" lon="4.01744">
        <ele>477.43</ele>
        <time>2020-10-13T11:40:54Z</time>
      </trkpt>
      <trkpt lat="44.34853" lon="4.01755">
        <ele>476.47</ele>
        <time>2020-10-13T11:41:01Z</time>
      </trkpt>
      <trkpt lat="44.34862" lon="4.01776">
        <ele>475.99</ele>
        <time>2020-10-13T11:41:16Z</time>
      </trkpt>
      <trkpt lat="44.34861" lon="4.01797">
        <ele>474.55</ele>
        <time>2020-10-13T11:41:32Z</time>
      </trkpt>
      <trkpt lat="44.3486" lon="4.01811">
        <ele>474.07</ele>
        <time>2020-10-13T11:41:39Z</time>
      </trkpt>
      <trkpt lat="44.3486" lon="4.01821">
        <ele>473.11</ele>
        <time>2020-10-13T11:41:44Z</time>
      </trkpt>
      <trkpt lat="44.34859" lon="4.01842">
        <ele>472.63</ele>
        <time>2020-10-13T11:41:57Z</time>
      </trkpt>
      <trkpt lat="44.34854" lon="4.01866">
        <ele>471.66</ele>
        <time>2020-10-13T11:42:11Z</time>
      </trkpt>
      <trkpt lat="44.34853" lon="4.01872">
        <ele>471.18</ele>
        <time>2020-10-13T11:42:14Z</time>
      </trkpt>
      <trkpt lat="44.3485" lon="4.01896">
        <ele>470.22</ele>
        <time>2020-10-13T11:42:30Z</time>
      </trkpt>
      <trkpt lat="44.34835" lon="4.01918">
        <ele>468.3</ele>
        <time>2020-10-13T11:42:45Z</time>
      </trkpt>
      <trkpt lat="44.34825" lon="4.01933">
        <ele>466.86</ele>
        <time>2020-10-13T11:43:00Z</time>
      </trkpt>
      <trkpt lat="44.34813" lon="4.0195">
        <ele>464.45</ele>
        <time>2020-10-13T11:43:15Z</time>
      </trkpt>
      <trkpt lat="44.34807" lon="4.01969">
        <ele>463.01</ele>
        <time>2020-10-13T11:43:30Z</time>
      </trkpt>
      <trkpt lat="44.34805" lon="4.01993">
        <ele>460.13</ele>
        <time>2020-10-13T11:43:46Z</time>
      </trkpt>
      <trkpt lat="44.34807" lon="4.02014">
        <ele>457.72</ele>
        <time>2020-10-13T11:44:02Z</time>
      </trkpt>
      <trkpt lat="44.34811" lon="4.02032">
        <ele>456.28</ele>
        <time>2020-10-13T11:44:15Z</time>
      </trkpt>
      <trkpt lat="44.34807" lon="4.02053">
        <ele>454.36</ele>
        <time>2020-10-13T11:44:29Z</time>
      </trkpt>
      <trkpt lat="44.34801" lon="4.02075">
        <ele>453.4</ele>
        <time>2020-10-13T11:44:45Z</time>
      </trkpt>
      <trkpt lat="44.34792" lon="4.02084">
        <ele>452.44</ele>
        <time>2020-10-13T11:45:00Z</time>
      </trkpt>
      <trkpt lat="44.34779" lon="4.02093">
        <ele>451.48</ele>
        <time>2020-10-13T11:45:16Z</time>
      </trkpt>
      <trkpt lat="44.34766" lon="4.02096">
        <ele>449.55</ele>
        <time>2020-10-13T11:45:29Z</time>
      </trkpt>
      <trkpt lat="44.34753" lon="4.02108">
        <ele>448.11</ele>
        <time>2020-10-13T11:45:43Z</time>
      </trkpt>
      <trkpt lat="44.34743" lon="4.02125">
        <ele>447.15</ele>
        <time>2020-10-13T11:45:58Z</time>
      </trkpt>
      <trkpt lat="44.34741" lon="4.02136">
        <ele>445.71</ele>
        <time>2020-10-13T11:46:07Z</time>
      </trkpt>
      <trkpt lat="44.34737" lon="4.02154">
        <ele>444.75</ele>
        <time>2020-10-13T11:46:20Z</time>
      </trkpt>
      <trkpt lat="44.34735" lon="4.02164">
        <ele>444.27</ele>
        <time>2020-10-13T11:46:33Z</time>
      </trkpt>
      <trkpt lat="44.34735" lon="4.02179">
        <ele>442.82</ele>
        <time>2020-10-13T11:46:46Z</time>
      </trkpt>
      <trkpt lat="44.34734" lon="4.02199">
        <ele>442.34</ele>
        <time>2020-10-13T11:46:59Z</time>
      </trkpt>
      <trkpt lat="44.34732" lon="4.02205">
        <ele>442.34</ele>
        <time>2020-10-13T11:47:16Z</time>
      </trkpt>
      <trkpt lat="44.34729" lon="4.02208">
        <ele>442.34</ele>
        <time>2020-10-13T11:47:36Z</time>
      </trkpt>
      <trkpt lat="44.34726" lon="4.02212">
        <ele>442.34</ele>
        <time>2020-10-13T11:47:51Z</time>
      </trkpt>
      <trkpt lat="44.34724" lon="4.0221">
        <ele>441.86</ele>
        <time>2020-10-13T11:48:08Z</time>
      </trkpt>
      <trkpt lat="44.34724" lon="4.02205">
        <ele>441.86</ele>
        <time>2020-10-13T11:48:21Z</time>
      </trkpt>
      <trkpt lat="44.3472" lon="4.02203">
        <ele>441.86</ele>
        <time>2020-10-13T11:48:39Z</time>
      </trkpt>
      <trkpt lat="44.34713" lon="4.02191">
        <ele>441.86</ele>
        <time>2020-10-13T11:48:55Z</time>
      </trkpt>
      <trkpt lat="44.34702" lon="4.02177">
        <ele>441.86</ele>
        <time>2020-10-13T11:49:11Z</time>
      </trkpt>
      <trkpt lat="44.34698" lon="4.02172">
        <ele>443.79</ele>
        <time>2020-10-13T11:49:24Z</time>
      </trkpt>
      <trkpt lat="44.34696" lon="4.02172">
        <ele>443.79</ele>
        <time>2020-10-13T11:49:30Z</time>
      </trkpt>
      <trkpt lat="44.34687" lon="4.02162">
        <ele>444.27</ele>
        <time>2020-10-13T11:49:43Z</time>
      </trkpt>
      <trkpt lat="44.34679" lon="4.02152">
        <ele>444.27</ele>
        <time>2020-10-13T11:49:51Z</time>
      </trkpt>
      <trkpt lat="44.34673" lon="4.02145">
        <ele>444.27</ele>
        <time>2020-10-13T11:49:59Z</time>
      </trkpt>
      <trkpt lat="44.3466" lon="4.02133">
        <ele>444.75</ele>
        <time>2020-10-13T11:50:14Z</time>
      </trkpt>
      <trkpt lat="44.34642" lon="4.02121">
        <ele>444.75</ele>
        <time>2020-10-13T11:50:31Z</time>
      </trkpt>
      <trkpt lat="44.34633" lon="4.02112">
        <ele>444.75</ele>
        <time>2020-10-13T11:50:40Z</time>
      </trkpt>
      <trkpt lat="44.34619" lon="4.02109">
        <ele>443.31</ele>
        <time>2020-10-13T11:50:51Z</time>
      </trkpt>
      <trkpt lat="44.34599" lon="4.02105">
        <ele>442.34</ele>
        <time>2020-10-13T11:51:08Z</time>
      </trkpt>
      <trkpt lat="44.34588" lon="4.021">
        <ele>441.86</ele>
        <time>2020-10-13T11:51:16Z</time>
      </trkpt>
      <trkpt lat="44.34572" lon="4.02083">
        <ele>440.42</ele>
        <time>2020-10-13T11:51:32Z</time>
      </trkpt>
      <trkpt lat="44.3456" lon="4.02067">
        <ele>439.46</ele>
        <time>2020-10-13T11:51:48Z</time>
      </trkpt>
      <trkpt lat="44.34559" lon="4.02067">
        <ele>439.46</ele>
        <time>2020-10-13T11:51:49Z</time>
      </trkpt>
      <trkpt lat="44.34549" lon="4.02077">
        <ele>438.98</ele>
        <time>2020-10-13T11:52:03Z</time>
      </trkpt>
      <trkpt lat="44.34547" lon="4.02088">
        <ele>438.02</ele>
        <time>2020-10-13T11:52:18Z</time>
      </trkpt>
      <trkpt lat="44.34544" lon="4.02096">
        <ele>436.58</ele>
        <time>2020-10-13T11:52:26Z</time>
      </trkpt>
      <trkpt lat="44.3453" lon="4.02128">
        <ele>435.61</ele>
        <time>2020-10-13T11:52:44Z</time>
      </trkpt>
      <trkpt lat="44.34527" lon="4.02142">
        <ele>435.13</ele>
        <time>2020-10-13T11:52:59Z</time>
      </trkpt>
      <trkpt lat="44.34526" lon="4.02148">
        <ele>435.13</ele>
        <time>2020-10-13T11:53:20Z</time>
      </trkpt>
      <trkpt lat="44.34522" lon="4.02165">
        <ele>433.69</ele>
        <time>2020-10-13T11:53:35Z</time>
      </trkpt>
      <trkpt lat="44.34516" lon="4.02185">
        <ele>432.25</ele>
        <time>2020-10-13T11:53:51Z</time>
      </trkpt>
      <trkpt lat="44.34509" lon="4.02198">
        <ele>430.81</ele>
        <time>2020-10-13T11:54:05Z</time>
      </trkpt>
      <trkpt lat="44.34501" lon="4.02214">
        <ele>429.37</ele>
        <time>2020-10-13T11:54:19Z</time>
      </trkpt>
      <trkpt lat="44.34492" lon="4.0223">
        <ele>428.4</ele>
        <time>2020-10-13T11:54:32Z</time>
      </trkpt>
      <trkpt lat="44.34484" lon="4.0225">
        <ele>427.44</ele>
        <time>2020-10-13T11:54:48Z</time>
      </trkpt>
      <trkpt lat="44.34476" lon="4.02274">
        <ele>426.96</ele>
        <time>2020-10-13T11:55:02Z</time>
      </trkpt>
      <trkpt lat="44.34465" lon="4.02296">
        <ele>426.48</ele>
        <time>2020-10-13T11:55:17Z</time>
      </trkpt>
      <trkpt lat="44.3446" lon="4.02302">
        <ele>426.48</ele>
        <time>2020-10-13T11:55:23Z</time>
      </trkpt>
      <trkpt lat="44.34441" lon="4.02324">
        <ele>427.44</ele>
        <time>2020-10-13T11:55:42Z</time>
      </trkpt>
      <trkpt lat="44.34434" lon="4.0233">
        <ele>426</ele>
        <time>2020-10-13T11:55:49Z</time>
      </trkpt>
      <trkpt lat="44.34412" lon="4.02339">
        <ele>426</ele>
        <time>2020-10-13T11:56:09Z</time>
      </trkpt>
      <trkpt lat="44.34393" lon="4.02339">
        <ele>425.52</ele>
        <time>2020-10-13T11:56:25Z</time>
      </trkpt>
      <trkpt lat="44.34375" lon="4.02339">
        <ele>425.52</ele>
        <time>2020-10-13T11:56:40Z</time>
      </trkpt>
      <trkpt lat="44.34348" lon="4.0234">
        <ele>425.52</ele>
        <time>2020-10-13T11:56:59Z</time>
      </trkpt>
      <trkpt lat="44.34324" lon="4.02341">
        <ele>425.52</ele>
        <time>2020-10-13T11:57:19Z</time>
      </trkpt>
      <trkpt lat="44.34302" lon="4.02342">
        <ele>426.48</ele>
        <time>2020-10-13T11:57:35Z</time>
      </trkpt>
      <trkpt lat="44.34285" lon="4.02351">
        <ele>426.96</ele>
        <time>2020-10-13T11:57:52Z</time>
      </trkpt>
      <trkpt lat="44.34277" lon="4.02362">
        <ele>426.96</ele>
        <time>2020-10-13T11:58:07Z</time>
      </trkpt>
      <trkpt lat="44.34274" lon="4.02363">
        <ele>426.96</ele>
        <time>2020-10-13T11:58:24Z</time>
      </trkpt>
      <trkpt lat="44.3427" lon="4.02366">
        <ele>426.96</ele>
        <time>2020-10-13T11:58:47Z</time>
      </trkpt>
      <trkpt lat="44.3427" lon="4.02366">
        <ele>426.96</ele>
        <time>2020-10-13T11:59:11Z</time>
      </trkpt>
      <trkpt lat="44.3427" lon="4.02368">
        <ele>426.96</ele>
        <time>2020-10-13T11:59:29Z</time>
      </trkpt>
      <trkpt lat="44.34271" lon="4.02365">
        <ele>426.96</ele>
        <time>2020-10-13T11:59:43Z</time>
      </trkpt>
      <trkpt lat="44.34271" lon="4.02362">
        <ele>426.96</ele>
        <time>2020-10-13T12:00:00Z</time>
      </trkpt>
      <trkpt lat="44.3427" lon="4.02365">
        <ele>426.96</ele>
        <time>2020-10-13T12:00:21Z</time>
      </trkpt>
      <trkpt lat="44.34269" lon="4.02365">
        <ele>426.96</ele>
        <time>2020-10-13T12:00:46Z</time>
      </trkpt>
      <trkpt lat="44.34267" lon="4.02364">
        <ele>426.96</ele>
        <time>2020-10-13T12:01:12Z</time>
      </trkpt>
      <trkpt lat="44.34267" lon="4.02367">
        <ele>427.44</ele>
        <time>2020-10-13T12:01:33Z</time>
      </trkpt>
      <trkpt lat="44.34265" lon="4.02368">
        <ele>427.44</ele>
        <time>2020-10-13T12:01:53Z</time>
      </trkpt>
      <trkpt lat="44.34267" lon="4.02369">
        <ele>427.92</ele>
        <time>2020-10-13T12:02:16Z</time>
      </trkpt>
      <trkpt lat="44.34267" lon="4.02367">
        <ele>427.92</ele>
        <time>2020-10-13T12:02:36Z</time>
      </trkpt>
      <trkpt lat="44.34269" lon="4.02368">
        <ele>427.92</ele>
        <time>2020-10-13T12:02:57Z</time>
      </trkpt>
      <trkpt lat="44.34267" lon="4.02369">
        <ele>427.92</ele>
        <time>2020-10-13T12:03:28Z</time>
      </trkpt>
      <trkpt lat="44.34268" lon="4.02371">
        <ele>427.92</ele>
        <time>2020-10-13T12:03:41Z</time>
      </trkpt>
      <trkpt lat="44.34269" lon="4.02367">
        <ele>427.92</ele>
        <time>2020-10-13T12:04:02Z</time>
      </trkpt>
      <trkpt lat="44.34269" lon="4.02365">
        <ele>427.92</ele>
        <time>2020-10-13T12:04:19Z</time>
      </trkpt>
      <trkpt lat="44.34267" lon="4.02366">
        <ele>427.92</ele>
        <time>2020-10-13T12:04:41Z</time>
      </trkpt>
      <trkpt lat="44.34261" lon="4.02376">
        <ele>427.92</ele>
        <time>2020-10-13T12:04:54Z</time>
      </trkpt>
      <trkpt lat="44.34254" lon="4.0238">
        <ele>427.92</ele>
        <time>2020-10-13T12:05:03Z</time>
      </trkpt>
      <trkpt lat="44.34241" lon="4.02388">
        <ele>426.48</ele>
        <time>2020-10-13T12:05:16Z</time>
      </trkpt>
      <trkpt lat="44.34225" lon="4.02397">
        <ele>426.48</ele>
        <time>2020-10-13T12:05:33Z</time>
      </trkpt>
      <trkpt lat="44.34205" lon="4.02406">
        <ele>426</ele>
        <time>2020-10-13T12:05:53Z</time>
      </trkpt>
      <trkpt lat="44.34185" lon="4.02418">
        <ele>425.04</ele>
        <time>2020-10-13T12:06:13Z</time>
      </trkpt>
      <trkpt lat="44.34173" lon="4.02425">
        <ele>424.56</ele>
        <time>2020-10-13T12:06:28Z</time>
      </trkpt>
      <trkpt lat="44.34166" lon="4.0243">
        <ele>424.08</ele>
        <time>2020-10-13T12:06:34Z</time>
      </trkpt>
      <trkpt lat="44.34136" lon="4.02447">
        <ele>423.6</ele>
        <time>2020-10-13T12:06:59Z</time>
      </trkpt>
      <trkpt lat="44.34111" lon="4.0246">
        <ele>423.12</ele>
        <time>2020-10-13T12:07:18Z</time>
      </trkpt>
      <trkpt lat="44.34086" lon="4.02475">
        <ele>421.19</ele>
        <time>2020-10-13T12:07:40Z</time>
      </trkpt>
      <trkpt lat="44.34063" lon="4.0249">
        <ele>419.75</ele>
        <time>2020-10-13T12:08:01Z</time>
      </trkpt>
      <trkpt lat="44.34057" lon="4.02491">
        <ele>419.27</ele>
        <time>2020-10-13T12:08:13Z</time>
      </trkpt>
      <trkpt lat="44.34049" lon="4.025">
        <ele>418.79</ele>
        <time>2020-10-13T12:08:21Z</time>
      </trkpt>
      <trkpt lat="44.34023" lon="4.02517">
        <ele>416.87</ele>
        <time>2020-10-13T12:08:41Z</time>
      </trkpt>
      <trkpt lat="44.34005" lon="4.02529">
        <ele>416.39</ele>
        <time>2020-10-13T12:08:57Z</time>
      </trkpt>
      <trkpt lat="44.33982" lon="4.02538">
        <ele>414.95</ele>
        <time>2020-10-13T12:09:16Z</time>
      </trkpt>
      <trkpt lat="44.33972" lon="4.02541">
        <ele>414.95</ele>
        <time>2020-10-13T12:09:32Z</time>
      </trkpt>
      <trkpt lat="44.33967" lon="4.02549">
        <ele>414.47</ele>
        <time>2020-10-13T12:09:44Z</time>
      </trkpt>
      <trkpt lat="44.33966" lon="4.02551">
        <ele>414.47</ele>
        <time>2020-10-13T12:09:46Z</time>
      </trkpt>
      <trkpt lat="44.33954" lon="4.02565">
        <ele>413.5</ele>
        <time>2020-10-13T12:10:01Z</time>
      </trkpt>
      <trkpt lat="44.33936" lon="4.02589">
        <ele>412.54</ele>
        <time>2020-10-13T12:10:21Z</time>
      </trkpt>
      <trkpt lat="44.33922" lon="4.0262">
        <ele>411.58</ele>
        <time>2020-10-13T12:10:41Z</time>
      </trkpt>
      <trkpt lat="44.33915" lon="4.02651">
        <ele>410.14</ele>
        <time>2020-10-13T12:10:59Z</time>
      </trkpt>
      <trkpt lat="44.33915" lon="4.02654">
        <ele>409.66</ele>
        <time>2020-10-13T12:11:01Z</time>
      </trkpt>
      <trkpt lat="44.33907" lon="4.02681">
        <ele>409.18</ele>
        <time>2020-10-13T12:11:17Z</time>
      </trkpt>
      <trkpt lat="44.339" lon="4.02709">
        <ele>407.26</ele>
        <time>2020-10-13T12:11:34Z</time>
      </trkpt>
      <trkpt lat="44.33898" lon="4.0272">
        <ele>406.77</ele>
        <time>2020-10-13T12:11:40Z</time>
      </trkpt>
      <trkpt lat="44.33889" lon="4.02743">
        <ele>404.85</ele>
        <time>2020-10-13T12:11:56Z</time>
      </trkpt>
      <trkpt lat="44.33878" lon="4.02765">
        <ele>402.93</ele>
        <time>2020-10-13T12:12:11Z</time>
      </trkpt>
      <trkpt lat="44.33877" lon="4.02798">
        <ele>400.53</ele>
        <time>2020-10-13T12:12:29Z</time>
      </trkpt>
      <trkpt lat="44.33881" lon="4.02825">
        <ele>398.6</ele>
        <time>2020-10-13T12:12:47Z</time>
      </trkpt>
      <trkpt lat="44.33883" lon="4.02844">
        <ele>398.12</ele>
        <time>2020-10-13T12:13:02Z</time>
      </trkpt>
      <trkpt lat="44.33891" lon="4.0288">
        <ele>396.68</ele>
        <time>2020-10-13T12:13:24Z</time>
      </trkpt>
      <trkpt lat="44.33907" lon="4.0289">
        <ele>396.2</ele>
        <time>2020-10-13T12:13:39Z</time>
      </trkpt>
      <trkpt lat="44.3392" lon="4.02894">
        <ele>395.72</ele>
        <time>2020-10-13T12:13:53Z</time>
      </trkpt>
      <trkpt lat="44.33937" lon="4.02896">
        <ele>395.72</ele>
        <time>2020-10-13T12:14:11Z</time>
      </trkpt>
      <trkpt lat="44.33945" lon="4.02897">
        <ele>395.72</ele>
        <time>2020-10-13T12:14:32Z</time>
      </trkpt>
      <trkpt lat="44.33952" lon="4.02899">
        <ele>397.16</ele>
        <time>2020-10-13T12:14:38Z</time>
      </trkpt>
      <trkpt lat="44.33965" lon="4.02901">
        <ele>397.16</ele>
        <time>2020-10-13T12:14:54Z</time>
      </trkpt>
      <trkpt lat="44.33967" lon="4.0291">
        <ele>397.16</ele>
        <time>2020-10-13T12:15:09Z</time>
      </trkpt>
      <trkpt lat="44.33966" lon="4.02914">
        <ele>397.16</ele>
        <time>2020-10-13T12:15:12Z</time>
      </trkpt>
      <trkpt lat="44.33965" lon="4.02933">
        <ele>395.72</ele>
        <time>2020-10-13T12:15:24Z</time>
      </trkpt>
      <trkpt lat="44.33967" lon="4.02935">
        <ele>395.72</ele>
        <time>2020-10-13T12:15:31Z</time>
      </trkpt>
      <trkpt lat="44.33972" lon="4.02936">
        <ele>395.72</ele>
        <time>2020-10-13T12:15:37Z</time>
      </trkpt>
      <trkpt lat="44.33981" lon="4.02938">
        <ele>395.24</ele>
        <time>2020-10-13T12:15:52Z</time>
      </trkpt>
      <trkpt lat="44.33982" lon="4.02938">
        <ele>395.24</ele>
        <time>2020-10-13T12:15:55Z</time>
      </trkpt>
      <trkpt lat="44.34" lon="4.02947">
        <ele>395.24</ele>
        <time>2020-10-13T12:16:13Z</time>
      </trkpt>
      <trkpt lat="44.34015" lon="4.02949">
        <ele>395.24</ele>
        <time>2020-10-13T12:16:27Z</time>
      </trkpt>
      <trkpt lat="44.34031" lon="4.02944">
        <ele>393.8</ele>
        <time>2020-10-13T12:16:43Z</time>
      </trkpt>
      <trkpt lat="44.34036" lon="4.02944">
        <ele>393.32</ele>
        <time>2020-10-13T12:16:57Z</time>
      </trkpt>
      <trkpt lat="44.34044" lon="4.02941">
        <ele>392.36</ele>
        <time>2020-10-13T12:17:11Z</time>
      </trkpt>
      <trkpt lat="44.34046" lon="4.02942">
        <ele>392.36</ele>
        <time>2020-10-13T12:17:13Z</time>
      </trkpt>
      <trkpt lat="44.34053" lon="4.0295">
        <ele>390.43</ele>
        <time>2020-10-13T12:17:32Z</time>
      </trkpt>
      <trkpt lat="44.34053" lon="4.0295">
        <ele>390.43</ele>
        <time>2020-10-13T12:17:50Z</time>
      </trkpt>
      <trkpt lat="44.34055" lon="4.02952">
        <ele>389.95</ele>
        <time>2020-10-13T12:18:07Z</time>
      </trkpt>
      <trkpt lat="44.34055" lon="4.02955">
        <ele>389.95</ele>
        <time>2020-10-13T12:18:22Z</time>
      </trkpt>
      <trkpt lat="44.34056" lon="4.02957">
        <ele>389.47</ele>
        <time>2020-10-13T12:18:39Z</time>
      </trkpt>
      <trkpt lat="44.34058" lon="4.02955">
        <ele>388.99</ele>
        <time>2020-10-13T12:19:12Z</time>
      </trkpt>
      <trkpt lat="44.34059" lon="4.02954">
        <ele>388.99</ele>
        <time>2020-10-13T12:19:36Z</time>
      </trkpt>
      <trkpt lat="44.34058" lon="4.02957">
        <ele>388.99</ele>
        <time>2020-10-13T12:19:59Z</time>
      </trkpt>
      <trkpt lat="44.34058" lon="4.02956">
        <ele>388.99</ele>
        <time>2020-10-13T12:20:23Z</time>
      </trkpt>
      <trkpt lat="44.34059" lon="4.02958">
        <ele>388.99</ele>
        <time>2020-10-13T12:20:51Z</time>
      </trkpt>
      <trkpt lat="44.34057" lon="4.02958">
        <ele>389.95</ele>
        <time>2020-10-13T12:21:20Z</time>
      </trkpt>
      <trkpt lat="44.34056" lon="4.02957">
        <ele>389.95</ele>
        <time>2020-10-13T12:21:58Z</time>
      </trkpt>
      <trkpt lat="44.34057" lon="4.02957">
        <ele>389.95</ele>
        <time>2020-10-13T12:22:22Z</time>
      </trkpt>
      <trkpt lat="44.34057" lon="4.02957">
        <ele>389.95</ele>
        <time>2020-10-13T12:22:47Z</time>
      </trkpt>
      <trkpt lat="44.34058" lon="4.02956">
        <ele>389.95</ele>
        <time>2020-10-13T12:23:17Z</time>
      </trkpt>
      <trkpt lat="44.34059" lon="4.02953">
        <ele>389.95</ele>
        <time>2020-10-13T12:23:34Z</time>
      </trkpt>
      <trkpt lat="44.34058" lon="4.02953">
        <ele>389.95</ele>
        <time>2020-10-13T12:23:55Z</time>
      </trkpt>
      <trkpt lat="44.34059" lon="4.02953">
        <ele>389.95</ele>
        <time>2020-10-13T12:24:19Z</time>
      </trkpt>
      <trkpt lat="44.34057" lon="4.02955">
        <ele>389.95</ele>
        <time>2020-10-13T12:24:38Z</time>
      </trkpt>
      <trkpt lat="44.34056" lon="4.02957">
        <ele>389.95</ele>
        <time>2020-10-13T12:24:51Z</time>
      </trkpt>
      <trkpt lat="44.34058" lon="4.02956">
        <ele>389.95</ele>
        <time>2020-10-13T12:25:08Z</time>
      </trkpt>
      <trkpt lat="44.34055" lon="4.02955">
        <ele>390.43</ele>
        <time>2020-10-13T12:25:25Z</time>
      </trkpt>
      <trkpt lat="44.34055" lon="4.02956">
        <ele>390.43</ele>
        <time>2020-10-13T12:25:44Z</time>
      </trkpt>
      <trkpt lat="44.34054" lon="4.02953">
        <ele>390.43</ele>
        <time>2020-10-13T12:26:05Z</time>
      </trkpt>
      <trkpt lat="44.34057" lon="4.02954">
        <ele>390.43</ele>
        <time>2020-10-13T12:26:31Z</time>
      </trkpt>
      <trkpt lat="44.34055" lon="4.02955">
        <ele>390.43</ele>
        <time>2020-10-13T12:26:51Z</time>
      </trkpt>
      <trkpt lat="44.34056" lon="4.02953">
        <ele>390.43</ele>
        <time>2020-10-13T12:27:13Z</time>
      </trkpt>
      <trkpt lat="44.34056" lon="4.02955">
        <ele>390.43</ele>
        <time>2020-10-13T12:27:29Z</time>
      </trkpt>
      <trkpt lat="44.34054" lon="4.02957">
        <ele>390.43</ele>
        <time>2020-10-13T12:27:53Z</time>
      </trkpt>
      <trkpt lat="44.34053" lon="4.02955">
        <ele>390.43</ele>
        <time>2020-10-13T12:28:08Z</time>
      </trkpt>
      <trkpt lat="44.34052" lon="4.02954">
        <ele>390.43</ele>
        <time>2020-10-13T12:28:28Z</time>
      </trkpt>
      <trkpt lat="44.34053" lon="4.02955">
        <ele>390.43</ele>
        <time>2020-10-13T12:28:55Z</time>
      </trkpt>
      <trkpt lat="44.34054" lon="4.02954">
        <ele>390.43</ele>
        <time>2020-10-13T12:29:14Z</time>
      </trkpt>
      <trkpt lat="44.34053" lon="4.02955">
        <ele>390.43</ele>
        <time>2020-10-13T12:29:35Z</time>
      </trkpt>
      <trkpt lat="44.34052" lon="4.02952">
        <ele>390.91</ele>
        <time>2020-10-13T12:29:54Z</time>
      </trkpt>
      <trkpt lat="44.34054" lon="4.02948">
        <ele>390.91</ele>
        <time>2020-10-13T12:30:16Z</time>
      </trkpt>
      <trkpt lat="44.34052" lon="4.02949">
        <ele>390.91</ele>
        <time>2020-10-13T12:30:42Z</time>
      </trkpt>
      <trkpt lat="44.34053" lon="4.02949">
        <ele>390.91</ele>
        <time>2020-10-13T12:30:56Z</time>
      </trkpt>
      <trkpt lat="44.3405" lon="4.02954">
        <ele>390.91</ele>
        <time>2020-10-13T12:31:18Z</time>
      </trkpt>
      <trkpt lat="44.3405" lon="4.02955">
        <ele>390.91</ele>
        <time>2020-10-13T12:31:40Z</time>
      </trkpt>
      <trkpt lat="44.34048" lon="4.02954">
        <ele>391.39</ele>
        <time>2020-10-13T12:32:02Z</time>
      </trkpt>
      <trkpt lat="44.34048" lon="4.02951">
        <ele>392.36</ele>
        <time>2020-10-13T12:32:16Z</time>
      </trkpt>
      <trkpt lat="44.34051" lon="4.02954">
        <ele>392.36</ele>
        <time>2020-10-13T12:32:30Z</time>
      </trkpt>
      <trkpt lat="44.34053" lon="4.02955">
        <ele>392.36</ele>
        <time>2020-10-13T12:32:55Z</time>
      </trkpt>
      <trkpt lat="44.34054" lon="4.02953">
        <ele>392.36</ele>
        <time>2020-10-13T12:33:08Z</time>
      </trkpt>
      <trkpt lat="44.34053" lon="4.02953">
        <ele>392.36</ele>
        <time>2020-10-13T12:33:25Z</time>
      </trkpt>
      <trkpt lat="44.34053" lon="4.02952">
        <ele>392.36</ele>
        <time>2020-10-13T12:33:51Z</time>
      </trkpt>
      <trkpt lat="44.34051" lon="4.02954">
        <ele>392.36</ele>
        <time>2020-10-13T12:34:13Z</time>
      </trkpt>
      <trkpt lat="44.34053" lon="4.02956">
        <ele>392.36</ele>
        <time>2020-10-13T12:34:38Z</time>
      </trkpt>
      <trkpt lat="44.3406" lon="4.02961">
        <ele>390.91</ele>
        <time>2020-10-13T12:34:50Z</time>
      </trkpt>
      <trkpt lat="44.34072" lon="4.02972">
        <ele>388.99</ele>
        <time>2020-10-13T12:35:02Z</time>
      </trkpt>
      <trkpt lat="44.3409" lon="4.02988">
        <ele>386.59</ele>
        <time>2020-10-13T12:35:22Z</time>
      </trkpt>
      <trkpt lat="44.34095" lon="4.02992">
        <ele>385.63</ele>
        <time>2020-10-13T12:35:27Z</time>
      </trkpt>
      <trkpt lat="44.34109" lon="4.03015">
        <ele>382.74</ele>
        <time>2020-10-13T12:35:46Z</time>
      </trkpt>
      <trkpt lat="44.34126" lon="4.03035">
        <ele>380.82</ele>
        <time>2020-10-13T12:36:05Z</time>
      </trkpt>
      <trkpt lat="44.34141" lon="4.03051">
        <ele>378.42</ele>
        <time>2020-10-13T12:36:22Z</time>
      </trkpt>
      <trkpt lat="44.34155" lon="4.03066">
        <ele>377.45</ele>
        <time>2020-10-13T12:36:36Z</time>
      </trkpt>
      <trkpt lat="44.34159" lon="4.03078">
        <ele>376.01</ele>
        <time>2020-10-13T12:36:45Z</time>
      </trkpt>
      <trkpt lat="44.3415" lon="4.03108">
        <ele>372.65</ele>
        <time>2020-10-13T12:37:04Z</time>
      </trkpt>
      <trkpt lat="44.34139" lon="4.03132">
        <ele>370.24</ele>
        <time>2020-10-13T12:37:21Z</time>
      </trkpt>
      <trkpt lat="44.3413" lon="4.03146">
        <ele>369.28</ele>
        <time>2020-10-13T12:37:37Z</time>
      </trkpt>
      <trkpt lat="44.34128" lon="4.03152">
        <ele>368.32</ele>
        <time>2020-10-13T12:37:44Z</time>
      </trkpt>
      <trkpt lat="44.34149" lon="4.03151">
        <ele>365.92</ele>
        <time>2020-10-13T12:38:01Z</time>
      </trkpt>
      <trkpt lat="44.34151" lon="4.0315">
        <ele>365.92</ele>
        <time>2020-10-13T12:38:03Z</time>
      </trkpt>
      <trkpt lat="44.34161" lon="4.03148">
        <ele>364.48</ele>
        <time>2020-10-13T12:38:17Z</time>
      </trkpt>
      <trkpt lat="44.34161" lon="4.03155">
        <ele>364</ele>
        <time>2020-10-13T12:38:22Z</time>
      </trkpt>
      <trkpt lat="44.34148" lon="4.0318">
        <ele>363.04</ele>
        <time>2020-10-13T12:38:39Z</time>
      </trkpt>
      <trkpt lat="44.34143" lon="4.03202">
        <ele>363.04</ele>
        <time>2020-10-13T12:38:54Z</time>
      </trkpt>
      <trkpt lat="44.34134" lon="4.03225">
        <ele>364</ele>
        <time>2020-10-13T12:39:09Z</time>
      </trkpt>
      <trkpt lat="44.34132" lon="4.03231">
        <ele>364</ele>
        <time>2020-10-13T12:39:13Z</time>
      </trkpt>
      <trkpt lat="44.34122" lon="4.03253">
        <ele>364</ele>
        <time>2020-10-13T12:39:28Z</time>
      </trkpt>
      <trkpt lat="44.34121" lon="4.03258">
        <ele>362.55</ele>
        <time>2020-10-13T12:39:32Z</time>
      </trkpt>
      <trkpt lat="44.34121" lon="4.03293">
        <ele>360.63</ele>
        <time>2020-10-13T12:39:50Z</time>
      </trkpt>
      <trkpt lat="44.34135" lon="4.03314">
        <ele>359.67</ele>
        <time>2020-10-13T12:40:09Z</time>
      </trkpt>
      <trkpt lat="44.3415" lon="4.03334">
        <ele>357.27</ele>
        <time>2020-10-13T12:40:27Z</time>
      </trkpt>
      <trkpt lat="44.34158" lon="4.03345">
        <ele>355.83</ele>
        <time>2020-10-13T12:40:42Z</time>
      </trkpt>
      <trkpt lat="44.34165" lon="4.03356">
        <ele>355.34</ele>
        <time>2020-10-13T12:40:51Z</time>
      </trkpt>
      <trkpt lat="44.34182" lon="4.03369">
        <ele>353.9</ele>
        <time>2020-10-13T12:41:07Z</time>
      </trkpt>
      <trkpt lat="44.34198" lon="4.03387">
        <ele>352.94</ele>
        <time>2020-10-13T12:41:25Z</time>
      </trkpt>
      <trkpt lat="44.34203" lon="4.03403">
        <ele>351.5</ele>
        <time>2020-10-13T12:41:38Z</time>
      </trkpt>
      <trkpt lat="44.34196" lon="4.03415">
        <ele>351.02</ele>
        <time>2020-10-13T12:41:47Z</time>
      </trkpt>
      <trkpt lat="44.34191" lon="4.03417">
        <ele>350.06</ele>
        <time>2020-10-13T12:41:51Z</time>
      </trkpt>
      <trkpt lat="44.34177" lon="4.03407">
        <ele>350.06</ele>
        <time>2020-10-13T12:42:07Z</time>
      </trkpt>
      <trkpt lat="44.34178" lon="4.03407">
        <ele>350.06</ele>
        <time>2020-10-13T12:42:11Z</time>
      </trkpt>
      <trkpt lat="44.3417" lon="4.03407">
        <ele>350.06</ele>
        <time>2020-10-13T12:42:16Z</time>
      </trkpt>
      <trkpt lat="44.34162" lon="4.0341">
        <ele>350.06</ele>
        <time>2020-10-13T12:42:21Z</time>
      </trkpt>
      <trkpt lat="44.34137" lon="4.03411">
        <ele>351.02</ele>
        <time>2020-10-13T12:42:37Z</time>
      </trkpt>
      <trkpt lat="44.34121" lon="4.03412">
        <ele>351.02</ele>
        <time>2020-10-13T12:42:54Z</time>
      </trkpt>
      <trkpt lat="44.34119" lon="4.03411">
        <ele>351.02</ele>
        <time>2020-10-13T12:43:12Z</time>
      </trkpt>
      <trkpt lat="44.34115" lon="4.03413">
        <ele>351.02</ele>
        <time>2020-10-13T12:43:27Z</time>
      </trkpt>
      <trkpt lat="44.3412" lon="4.03419">
        <ele>351.02</ele>
        <time>2020-10-13T12:43:44Z</time>
      </trkpt>
      <trkpt lat="44.34118" lon="4.03445">
        <ele>351.02</ele>
        <time>2020-10-13T12:44:00Z</time>
      </trkpt>
      <trkpt lat="44.34117" lon="4.03456">
        <ele>349.58</ele>
        <time>2020-10-13T12:44:08Z</time>
      </trkpt>
      <trkpt lat="44.34114" lon="4.03463">
        <ele>348.62</ele>
        <time>2020-10-13T12:44:14Z</time>
      </trkpt>
      <trkpt lat="44.34115" lon="4.03468">
        <ele>348.62</ele>
        <time>2020-10-13T12:44:27Z</time>
      </trkpt>
      <trkpt lat="44.34107" lon="4.03467">
        <ele>348.62</ele>
        <time>2020-10-13T12:44:35Z</time>
      </trkpt>
      <trkpt lat="44.34095" lon="4.03458">
        <ele>348.62</ele>
        <time>2020-10-13T12:44:45Z</time>
      </trkpt>
      <trkpt lat="44.34087" lon="4.03454">
        <ele>350.06</ele>
        <time>2020-10-13T12:44:53Z</time>
      </trkpt>
      <trkpt lat="44.34067" lon="4.03455">
        <ele>351.02</ele>
        <time>2020-10-13T12:45:08Z</time>
      </trkpt>
      <trkpt lat="44.34066" lon="4.03454">
        <ele>351.02</ele>
        <time>2020-10-13T12:45:09Z</time>
      </trkpt>
      <trkpt lat="44.34043" lon="4.03466">
        <ele>351.02</ele>
        <time>2020-10-13T12:45:26Z</time>
      </trkpt>
      <trkpt lat="44.3404" lon="4.03468">
        <ele>349.58</ele>
        <time>2020-10-13T12:45:28Z</time>
      </trkpt>
      <trkpt lat="44.34021" lon="4.03478">
        <ele>348.62</ele>
        <time>2020-10-13T12:45:41Z</time>
      </trkpt>
      <trkpt lat="44.34014" lon="4.03481">
        <ele>348.13</ele>
        <time>2020-10-13T12:45:47Z</time>
      </trkpt>
      <trkpt lat="44.34011" lon="4.03482">
        <ele>347.65</ele>
        <time>2020-10-13T12:45:49Z</time>
      </trkpt>
      <trkpt lat="44.33992" lon="4.03489">
        <ele>347.17</ele>
        <time>2020-10-13T12:46:03Z</time>
      </trkpt>
      <trkpt lat="44.3398" lon="4.03496">
        <ele>346.21</ele>
        <time>2020-10-13T12:46:15Z</time>
      </trkpt>
      <trkpt lat="44.33978" lon="4.03497">
        <ele>346.21</ele>
        <time>2020-10-13T12:46:17Z</time>
      </trkpt>
      <trkpt lat="44.33967" lon="4.03503">
        <ele>344.29</ele>
        <time>2020-10-13T12:46:29Z</time>
      </trkpt>
      <trkpt lat="44.33963" lon="4.03507">
        <ele>343.81</ele>
        <time>2020-10-13T12:46:33Z</time>
      </trkpt>
      <trkpt lat="44.33956" lon="4.03512">
        <ele>342.85</ele>
        <time>2020-10-13T12:46:40Z</time>
      </trkpt>
      <trkpt lat="44.33951" lon="4.03514">
        <ele>342.85</ele>
        <time>2020-10-13T12:46:44Z</time>
      </trkpt>
      <trkpt lat="44.3394" lon="4.03508">
        <ele>339.96</ele>
        <time>2020-10-13T12:46:56Z</time>
      </trkpt>
      <trkpt lat="44.3394" lon="4.03488">
        <ele>336.6</ele>
        <time>2020-10-13T12:47:12Z</time>
      </trkpt>
      <trkpt lat="44.33938" lon="4.0349">
        <ele>336.6</ele>
        <time>2020-10-13T12:47:14Z</time>
      </trkpt>
      <trkpt lat="44.33936" lon="4.03491">
        <ele>335.64</ele>
        <time>2020-10-13T12:47:17Z</time>
      </trkpt>
      <trkpt lat="44.33926" lon="4.03488">
        <ele>334.68</ele>
        <time>2020-10-13T12:47:26Z</time>
      </trkpt>
      <trkpt lat="44.33914" lon="4.0349">
        <ele>334.2</ele>
        <time>2020-10-13T12:47:35Z</time>
      </trkpt>
      <trkpt lat="44.33903" lon="4.03493">
        <ele>333.71</ele>
        <time>2020-10-13T12:47:43Z</time>
      </trkpt>
      <trkpt lat="44.33896" lon="4.03494">
        <ele>333.71</ele>
        <time>2020-10-13T12:47:50Z</time>
      </trkpt>
      <trkpt lat="44.33873" lon="4.03496">
        <ele>333.23</ele>
        <time>2020-10-13T12:48:06Z</time>
      </trkpt>
      <trkpt lat="44.33858" lon="4.03499">
        <ele>333.23</ele>
        <time>2020-10-13T12:48:18Z</time>
      </trkpt>
      <trkpt lat="44.33835" lon="4.03507">
        <ele>333.23</ele>
        <time>2020-10-13T12:48:35Z</time>
      </trkpt>
      <trkpt lat="44.3382" lon="4.03512">
        <ele>334.2</ele>
        <time>2020-10-13T12:48:50Z</time>
      </trkpt>
      <trkpt lat="44.33804" lon="4.03526">
        <ele>334.2</ele>
        <time>2020-10-13T12:49:06Z</time>
      </trkpt>
      <trkpt lat="44.33801" lon="4.0353">
        <ele>332.75</ele>
        <time>2020-10-13T12:49:10Z</time>
      </trkpt>
      <trkpt lat="44.33797" lon="4.03535">
        <ele>332.27</ele>
        <time>2020-10-13T12:49:15Z</time>
      </trkpt>
      <trkpt lat="44.33793" lon="4.03544">
        <ele>331.79</ele>
        <time>2020-10-13T12:49:23Z</time>
      </trkpt>
      <trkpt lat="44.33779" lon="4.0355">
        <ele>331.79</ele>
        <time>2020-10-13T12:49:35Z</time>
      </trkpt>
      <trkpt lat="44.33771" lon="4.03553">
        <ele>333.23</ele>
        <time>2020-10-13T12:49:44Z</time>
      </trkpt>
      <trkpt lat="44.33759" lon="4.03557">
        <ele>334.2</ele>
        <time>2020-10-13T12:49:58Z</time>
      </trkpt>
      <trkpt lat="44.33748" lon="4.03558">
        <ele>335.16</ele>
        <time>2020-10-13T12:50:13Z</time>
      </trkpt>
      <trkpt lat="44.33733" lon="4.03566">
        <ele>337.56</ele>
        <time>2020-10-13T12:50:29Z</time>
      </trkpt>
      <trkpt lat="44.33721" lon="4.03571">
        <ele>338.04</ele>
        <time>2020-10-13T12:50:43Z</time>
      </trkpt>
      <trkpt lat="44.33713" lon="4.0357">
        <ele>338.52</ele>
        <time>2020-10-13T12:50:51Z</time>
      </trkpt>
      <trkpt lat="44.33706" lon="4.03568">
        <ele>338.52</ele>
        <time>2020-10-13T12:50:59Z</time>
      </trkpt>
      <trkpt lat="44.33685" lon="4.03573">
        <ele>339</ele>
        <time>2020-10-13T12:51:18Z</time>
      </trkpt>
      <trkpt lat="44.33671" lon="4.03578">
        <ele>339.96</ele>
        <time>2020-10-13T12:51:33Z</time>
      </trkpt>
      <trkpt lat="44.33654" lon="4.03584">
        <ele>340.92</ele>
        <time>2020-10-13T12:51:50Z</time>
      </trkpt>
      <trkpt lat="44.33646" lon="4.03584">
        <ele>341.41</ele>
        <time>2020-10-13T12:52:08Z</time>
      </trkpt>
      <trkpt lat="44.33642" lon="4.03586">
        <ele>341.41</ele>
        <time>2020-10-13T12:52:23Z</time>
      </trkpt>
      <trkpt lat="44.33642" lon="4.03585">
        <ele>341.41</ele>
        <time>2020-10-13T12:52:39Z</time>
      </trkpt>
      <trkpt lat="44.3364" lon="4.03589">
        <ele>341.41</ele>
        <time>2020-10-13T12:52:55Z</time>
      </trkpt>
      <trkpt lat="44.33639" lon="4.036">
        <ele>341.41</ele>
        <time>2020-10-13T12:53:09Z</time>
      </trkpt>
      <trkpt lat="44.33638" lon="4.03602">
        <ele>340.44</ele>
        <time>2020-10-13T12:53:23Z</time>
      </trkpt>
      <trkpt lat="44.33638" lon="4.03605">
        <ele>339.96</ele>
        <time>2020-10-13T12:53:26Z</time>
      </trkpt>
      <trkpt lat="44.33627" lon="4.03633">
        <ele>339</ele>
        <time>2020-10-13T12:53:42Z</time>
      </trkpt>
      <trkpt lat="44.33618" lon="4.03662">
        <ele>338.52</ele>
        <time>2020-10-13T12:53:59Z</time>
      </trkpt>
      <trkpt lat="44.33603" lon="4.0368">
        <ele>337.08</ele>
        <time>2020-10-13T12:54:15Z</time>
      </trkpt>
      <trkpt lat="44.33588" lon="4.03687">
        <ele>336.6</ele>
        <time>2020-10-13T12:54:28Z</time>
      </trkpt>
      <trkpt lat="44.33563" lon="4.037">
        <ele>336.12</ele>
        <time>2020-10-13T12:54:48Z</time>
      </trkpt>
      <trkpt lat="44.33541" lon="4.03699">
        <ele>335.64</ele>
        <time>2020-10-13T12:55:05Z</time>
      </trkpt>
      <trkpt lat="44.33523" lon="4.0369">
        <ele>336.6</ele>
        <time>2020-10-13T12:55:19Z</time>
      </trkpt>
      <trkpt lat="44.33506" lon="4.03709">
        <ele>337.56</ele>
        <time>2020-10-13T12:55:37Z</time>
      </trkpt>
      <trkpt lat="44.33493" lon="4.0373">
        <ele>337.56</ele>
        <time>2020-10-13T12:55:51Z</time>
      </trkpt>
      <trkpt lat="44.33482" lon="4.03756">
        <ele>337.56</ele>
        <time>2020-10-13T12:56:07Z</time>
      </trkpt>
      <trkpt lat="44.3347" lon="4.03782">
        <ele>339</ele>
        <time>2020-10-13T12:56:24Z</time>
      </trkpt>
      <trkpt lat="44.33462" lon="4.03816">
        <ele>339.48</ele>
        <time>2020-10-13T12:56:43Z</time>
      </trkpt>
      <trkpt lat="44.3345" lon="4.03839">
        <ele>340.92</ele>
        <time>2020-10-13T12:57:01Z</time>
      </trkpt>
      <trkpt lat="44.33443" lon="4.03856">
        <ele>343.33</ele>
        <time>2020-10-13T12:57:17Z</time>
      </trkpt>
      <trkpt lat="44.33436" lon="4.03871">
        <ele>345.25</ele>
        <time>2020-10-13T12:57:32Z</time>
      </trkpt>
      <trkpt lat="44.33427" lon="4.03894">
        <ele>346.69</ele>
        <time>2020-10-13T12:57:48Z</time>
      </trkpt>
      <trkpt lat="44.33416" lon="4.03917">
        <ele>349.1</ele>
        <time>2020-10-13T12:58:03Z</time>
      </trkpt>
      <trkpt lat="44.33405" lon="4.03934">
        <ele>350.06</ele>
        <time>2020-10-13T12:58:17Z</time>
      </trkpt>
      <trkpt lat="44.33388" lon="4.03957">
        <ele>350.54</ele>
        <time>2020-10-13T12:58:33Z</time>
      </trkpt>
      <trkpt lat="44.33375" lon="4.0398">
        <ele>350.54</ele>
        <time>2020-10-13T12:58:49Z</time>
      </trkpt>
      <trkpt lat="44.33368" lon="4.03999">
        <ele>349.58</ele>
        <time>2020-10-13T12:59:00Z</time>
      </trkpt>
      <trkpt lat="44.33357" lon="4.04016">
        <ele>349.58</ele>
        <time>2020-10-13T12:59:15Z</time>
      </trkpt>
      <trkpt lat="44.33351" lon="4.04032">
        <ele>349.58</ele>
        <time>2020-10-13T12:59:29Z</time>
      </trkpt>
      <trkpt lat="44.33351" lon="4.04034">
        <ele>349.58</ele>
        <time>2020-10-13T12:59:30Z</time>
      </trkpt>
      <trkpt lat="44.33352" lon="4.04039">
        <ele>350.54</ele>
        <time>2020-10-13T12:59:33Z</time>
      </trkpt>
      <trkpt lat="44.33346" lon="4.0408">
        <ele>351.02</ele>
        <time>2020-10-13T12:59:53Z</time>
      </trkpt>
      <trkpt lat="44.33341" lon="4.04113">
        <ele>351.02</ele>
        <time>2020-10-13T13:00:11Z</time>
      </trkpt>
      <trkpt lat="44.33352" lon="4.04138">
        <ele>351.5</ele>
        <time>2020-10-13T13:00:28Z</time>
      </trkpt>
      <trkpt lat="44.33372" lon="4.04153">
        <ele>353.9</ele>
        <time>2020-10-13T13:00:48Z</time>
      </trkpt>
      <trkpt lat="44.33391" lon="4.04162">
        <ele>356.79</ele>
        <time>2020-10-13T13:01:05Z</time>
      </trkpt>
      <trkpt lat="44.33411" lon="4.04172">
        <ele>357.75</ele>
        <time>2020-10-13T13:01:23Z</time>
      </trkpt>
      <trkpt lat="44.33425" lon="4.04185">
        <ele>357.75</ele>
        <time>2020-10-13T13:01:37Z</time>
      </trkpt>
      <trkpt lat="44.33443" lon="4.04208">
        <ele>357.27</ele>
        <time>2020-10-13T13:01:56Z</time>
      </trkpt>
      <trkpt lat="44.3346" lon="4.04225">
        <ele>357.27</ele>
        <time>2020-10-13T13:02:13Z</time>
      </trkpt>
      <trkpt lat="44.33479" lon="4.04243">
        <ele>357.75</ele>
        <time>2020-10-13T13:02:28Z</time>
      </trkpt>
      <trkpt lat="44.33484" lon="4.04247">
        <ele>358.23</ele>
        <time>2020-10-13T13:02:33Z</time>
      </trkpt>
      <trkpt lat="44.33502" lon="4.04254">
        <ele>358.23</ele>
        <time>2020-10-13T13:02:49Z</time>
      </trkpt>
      <trkpt lat="44.33503" lon="4.04254">
        <ele>358.23</ele>
        <time>2020-10-13T13:02:50Z</time>
      </trkpt>
      <trkpt lat="44.33507" lon="4.04256">
        <ele>357.75</ele>
        <time>2020-10-13T13:02:53Z</time>
      </trkpt>
      <trkpt lat="44.33524" lon="4.04261">
        <ele>354.38</ele>
        <time>2020-10-13T13:03:08Z</time>
      </trkpt>
      <trkpt lat="44.33546" lon="4.04266">
        <ele>352.94</ele>
        <time>2020-10-13T13:03:25Z</time>
      </trkpt>
      <trkpt lat="44.33565" lon="4.04276">
        <ele>351.5</ele>
        <time>2020-10-13T13:03:41Z</time>
      </trkpt>
      <trkpt lat="44.33585" lon="4.04288">
        <ele>351.02</ele>
        <time>2020-10-13T13:03:58Z</time>
      </trkpt>
      <trkpt lat="44.33588" lon="4.0429">
        <ele>351.02</ele>
        <time>2020-10-13T13:04:01Z</time>
      </trkpt>
      <trkpt lat="44.33594" lon="4.04303">
        <ele>349.58</ele>
        <time>2020-10-13T13:04:14Z</time>
      </trkpt>
      <trkpt lat="44.33594" lon="4.04305">
        <ele>349.58</ele>
        <time>2020-10-13T13:04:16Z</time>
      </trkpt>
      <trkpt lat="44.33593" lon="4.04317">
        <ele>348.62</ele>
        <time>2020-10-13T13:04:21Z</time>
      </trkpt>
      <trkpt lat="44.33578" lon="4.04341">
        <ele>348.13</ele>
        <time>2020-10-13T13:04:37Z</time>
      </trkpt>
      <trkpt lat="44.33576" lon="4.04342">
        <ele>348.13</ele>
        <time>2020-10-13T13:04:39Z</time>
      </trkpt>
      <trkpt lat="44.33559" lon="4.04349">
        <ele>348.13</ele>
        <time>2020-10-13T13:04:54Z</time>
      </trkpt>
      <trkpt lat="44.33543" lon="4.04368">
        <ele>348.13</ele>
        <time>2020-10-13T13:05:10Z</time>
      </trkpt>
      <trkpt lat="44.3354" lon="4.04379">
        <ele>348.13</ele>
        <time>2020-10-13T13:05:17Z</time>
      </trkpt>
      <trkpt lat="44.33541" lon="4.04389">
        <ele>348.13</ele>
        <time>2020-10-13T13:05:24Z</time>
      </trkpt>
      <trkpt lat="44.33535" lon="4.04401">
        <ele>348.13</ele>
        <time>2020-10-13T13:05:32Z</time>
      </trkpt>
      <trkpt lat="44.3353" lon="4.04403">
        <ele>348.13</ele>
        <time>2020-10-13T13:05:36Z</time>
      </trkpt>
      <trkpt lat="44.33514" lon="4.0441">
        <ele>348.13</ele>
        <time>2020-10-13T13:05:51Z</time>
      </trkpt>
      <trkpt lat="44.33508" lon="4.04413">
        <ele>349.1</ele>
        <time>2020-10-13T13:05:57Z</time>
      </trkpt>
      <trkpt lat="44.33497" lon="4.04423">
        <ele>350.54</ele>
        <time>2020-10-13T13:06:11Z</time>
      </trkpt>
      <trkpt lat="44.33483" lon="4.04435">
        <ele>351.5</ele>
        <time>2020-10-13T13:06:24Z</time>
      </trkpt>
      <trkpt lat="44.33473" lon="4.04441">
        <ele>351.5</ele>
        <time>2020-10-13T13:06:34Z</time>
      </trkpt>
      <trkpt lat="44.33466" lon="4.04445">
        <ele>351.5</ele>
        <time>2020-10-13T13:06:40Z</time>
      </trkpt>
      <trkpt lat="44.33446" lon="4.04451">
        <ele>351.98</ele>
        <time>2020-10-13T13:06:56Z</time>
      </trkpt>
      <trkpt lat="44.33429" lon="4.04456">
        <ele>352.46</ele>
        <time>2020-10-13T13:07:11Z</time>
      </trkpt>
      <trkpt lat="44.33409" lon="4.0446">
        <ele>352.46</ele>
        <time>2020-10-13T13:07:28Z</time>
      </trkpt>
      <trkpt lat="44.33387" lon="4.04465">
        <ele>351.02</ele>
        <time>2020-10-13T13:07:45Z</time>
      </trkpt>
      <trkpt lat="44.33375" lon="4.04482">
        <ele>351.02</ele>
        <time>2020-10-13T13:08:00Z</time>
      </trkpt>
      <trkpt lat="44.33374" lon="4.04483">
        <ele>351.02</ele>
        <time>2020-10-13T13:08:01Z</time>
      </trkpt>
      <trkpt lat="44.3336" lon="4.04511">
        <ele>350.54</ele>
        <time>2020-10-13T13:08:18Z</time>
      </trkpt>
      <trkpt lat="44.33359" lon="4.04543">
        <ele>350.06</ele>
        <time>2020-10-13T13:08:36Z</time>
      </trkpt>
      <trkpt lat="44.3336" lon="4.04545">
        <ele>349.58</ele>
        <time>2020-10-13T13:08:38Z</time>
      </trkpt>
      <trkpt lat="44.33374" lon="4.04568">
        <ele>349.1</ele>
        <time>2020-10-13T13:08:56Z</time>
      </trkpt>
      <trkpt lat="44.33381" lon="4.04594">
        <ele>349.1</ele>
        <time>2020-10-13T13:09:12Z</time>
      </trkpt>
      <trkpt lat="44.33384" lon="4.04615">
        <ele>350.54</ele>
        <time>2020-10-13T13:09:25Z</time>
      </trkpt>
      <trkpt lat="44.33384" lon="4.04618">
        <ele>350.54</ele>
        <time>2020-10-13T13:09:27Z</time>
      </trkpt>
      <trkpt lat="44.33385" lon="4.04641">
        <ele>351.02</ele>
        <time>2020-10-13T13:09:43Z</time>
      </trkpt>
      <trkpt lat="44.33388" lon="4.04663">
        <ele>351.02</ele>
        <time>2020-10-13T13:09:59Z</time>
      </trkpt>
      <trkpt lat="44.33394" lon="4.04684">
        <ele>351.02</ele>
        <time>2020-10-13T13:10:14Z</time>
      </trkpt>
      <trkpt lat="44.33398" lon="4.04695">
        <ele>351.98</ele>
        <time>2020-10-13T13:10:21Z</time>
      </trkpt>
      <trkpt lat="44.33406" lon="4.04713">
        <ele>352.46</ele>
        <time>2020-10-13T13:10:33Z</time>
      </trkpt>
      <trkpt lat="44.33411" lon="4.04737">
        <ele>353.9</ele>
        <time>2020-10-13T13:10:48Z</time>
      </trkpt>
      <trkpt lat="44.3341" lon="4.04756">
        <ele>353.9</ele>
        <time>2020-10-13T13:11:03Z</time>
      </trkpt>
      <trkpt lat="44.33408" lon="4.04764">
        <ele>352.94</ele>
        <time>2020-10-13T13:11:08Z</time>
      </trkpt>
      <trkpt lat="44.33405" lon="4.0477">
        <ele>352.46</ele>
        <time>2020-10-13T13:11:16Z</time>
      </trkpt>
      <trkpt lat="44.3339" lon="4.04772">
        <ele>351.98</ele>
        <time>2020-10-13T13:11:29Z</time>
      </trkpt>
      <trkpt lat="44.33385" lon="4.0477">
        <ele>351.02</ele>
        <time>2020-10-13T13:11:41Z</time>
      </trkpt>
      <trkpt lat="44.33384" lon="4.04768">
        <ele>351.02</ele>
        <time>2020-10-13T13:11:46Z</time>
      </trkpt>
      <trkpt lat="44.33376" lon="4.04759">
        <ele>351.02</ele>
        <time>2020-10-13T13:11:58Z</time>
      </trkpt>
      <trkpt lat="44.33364" lon="4.04736">
        <ele>351.98</ele>
        <time>2020-10-13T13:12:15Z</time>
      </trkpt>
      <trkpt lat="44.33354" lon="4.04713">
        <ele>351.98</ele>
        <time>2020-10-13T13:12:27Z</time>
      </trkpt>
      <trkpt lat="44.33342" lon="4.04692">
        <ele>351.98</ele>
        <time>2020-10-13T13:12:41Z</time>
      </trkpt>
      <trkpt lat="44.33333" lon="4.04683">
        <ele>352.46</ele>
        <time>2020-10-13T13:12:50Z</time>
      </trkpt>
      <trkpt lat="44.33318" lon="4.04673">
        <ele>352.94</ele>
        <time>2020-10-13T13:13:05Z</time>
      </trkpt>
      <trkpt lat="44.33299" lon="4.04656">
        <ele>352.94</ele>
        <time>2020-10-13T13:13:21Z</time>
      </trkpt>
      <trkpt lat="44.33296" lon="4.0465">
        <ele>352.94</ele>
        <time>2020-10-13T13:13:24Z</time>
      </trkpt>
      <trkpt lat="44.33289" lon="4.04634">
        <ele>352.94</ele>
        <time>2020-10-13T13:13:36Z</time>
      </trkpt>
      <trkpt lat="44.33273" lon="4.0461">
        <ele>352.94</ele>
        <time>2020-10-13T13:13:55Z</time>
      </trkpt>
      <trkpt lat="44.33264" lon="4.04603">
        <ele>353.42</ele>
        <time>2020-10-13T13:14:06Z</time>
      </trkpt>
      <trkpt lat="44.3325" lon="4.04592">
        <ele>354.86</ele>
        <time>2020-10-13T13:14:21Z</time>
      </trkpt>
      <trkpt lat="44.33233" lon="4.04578">
        <ele>356.79</ele>
        <time>2020-10-13T13:14:39Z</time>
      </trkpt>
      <trkpt lat="44.33228" lon="4.04564">
        <ele>356.31</ele>
        <time>2020-10-13T13:14:49Z</time>
      </trkpt>
      <trkpt lat="44.33216" lon="4.04544">
        <ele>356.79</ele>
        <time>2020-10-13T13:15:04Z</time>
      </trkpt>
      <trkpt lat="44.33209" lon="4.04525">
        <ele>356.79</ele>
        <time>2020-10-13T13:15:18Z</time>
      </trkpt>
      <trkpt lat="44.33201" lon="4.04503">
        <ele>357.27</ele>
        <time>2020-10-13T13:15:34Z</time>
      </trkpt>
      <trkpt lat="44.33191" lon="4.04482">
        <ele>357.75</ele>
        <time>2020-10-13T13:15:48Z</time>
      </trkpt>
      <trkpt lat="44.33178" lon="4.04462">
        <ele>359.19</ele>
        <time>2020-10-13T13:16:04Z</time>
      </trkpt>
      <trkpt lat="44.33167" lon="4.0445">
        <ele>360.63</ele>
        <time>2020-10-13T13:16:18Z</time>
      </trkpt>
      <trkpt lat="44.33147" lon="4.04443">
        <ele>362.07</ele>
        <time>2020-10-13T13:16:36Z</time>
      </trkpt>
      <trkpt lat="44.33131" lon="4.04434">
        <ele>363.04</ele>
        <time>2020-10-13T13:16:51Z</time>
      </trkpt>
      <trkpt lat="44.33111" lon="4.04432">
        <ele>363.52</ele>
        <time>2020-10-13T13:17:07Z</time>
      </trkpt>
      <trkpt lat="44.33101" lon="4.04434">
        <ele>364</ele>
        <time>2020-10-13T13:17:17Z</time>
      </trkpt>
      <trkpt lat="44.33091" lon="4.04434">
        <ele>364.48</ele>
        <time>2020-10-13T13:17:24Z</time>
      </trkpt>
      <trkpt lat="44.3309" lon="4.04435">
        <ele>364.48</ele>
        <time>2020-10-13T13:17:26Z</time>
      </trkpt>
      <trkpt lat="44.33076" lon="4.04443">
        <ele>364.48</ele>
        <time>2020-10-13T13:17:40Z</time>
      </trkpt>
      <trkpt lat="44.33056" lon="4.04457">
        <ele>364.96</ele>
        <time>2020-10-13T13:17:58Z</time>
      </trkpt>
      <trkpt lat="44.33055" lon="4.04457">
        <ele>364.96</ele>
        <time>2020-10-13T13:17:59Z</time>
      </trkpt>
      <trkpt lat="44.33035" lon="4.04466">
        <ele>363.52</ele>
        <time>2020-10-13T13:18:15Z</time>
      </trkpt>
      <trkpt lat="44.33018" lon="4.04479">
        <ele>361.59</ele>
        <time>2020-10-13T13:18:31Z</time>
      </trkpt>
      <trkpt lat="44.33005" lon="4.04491">
        <ele>358.71</ele>
        <time>2020-10-13T13:18:47Z</time>
      </trkpt>
      <trkpt lat="44.33003" lon="4.04496">
        <ele>358.23</ele>
        <time>2020-10-13T13:18:51Z</time>
      </trkpt>
      <trkpt lat="44.32993" lon="4.04526">
        <ele>357.27</ele>
        <time>2020-10-13T13:19:09Z</time>
      </trkpt>
      <trkpt lat="44.32986" lon="4.04544">
        <ele>356.31</ele>
        <time>2020-10-13T13:19:23Z</time>
      </trkpt>
      <trkpt lat="44.32975" lon="4.04565">
        <ele>355.34</ele>
        <time>2020-10-13T13:19:40Z</time>
      </trkpt>
      <trkpt lat="44.32967" lon="4.04594">
        <ele>354.86</ele>
        <time>2020-10-13T13:19:59Z</time>
      </trkpt>
      <trkpt lat="44.32969" lon="4.04617">
        <ele>354.38</ele>
        <time>2020-10-13T13:20:14Z</time>
      </trkpt>
      <trkpt lat="44.32969" lon="4.04621">
        <ele>354.38</ele>
        <time>2020-10-13T13:20:16Z</time>
      </trkpt>
      <trkpt lat="44.32968" lon="4.04645">
        <ele>353.9</ele>
        <time>2020-10-13T13:20:31Z</time>
      </trkpt>
      <trkpt lat="44.32971" lon="4.04677">
        <ele>353.9</ele>
        <time>2020-10-13T13:20:47Z</time>
      </trkpt>
      <trkpt lat="44.32973" lon="4.04701">
        <ele>353.9</ele>
        <time>2020-10-13T13:21:03Z</time>
      </trkpt>
      <trkpt lat="44.32973" lon="4.04729">
        <ele>353.9</ele>
        <time>2020-10-13T13:21:18Z</time>
      </trkpt>
      <trkpt lat="44.32975" lon="4.04764">
        <ele>353.42</ele>
        <time>2020-10-13T13:21:34Z</time>
      </trkpt>
      <trkpt lat="44.32976" lon="4.04765">
        <ele>353.42</ele>
        <time>2020-10-13T13:21:35Z</time>
      </trkpt>
      <trkpt lat="44.32977" lon="4.04787">
        <ele>353.42</ele>
        <time>2020-10-13T13:21:48Z</time>
      </trkpt>
      <trkpt lat="44.32983" lon="4.04812">
        <ele>353.42</ele>
        <time>2020-10-13T13:22:02Z</time>
      </trkpt>
      <trkpt lat="44.32995" lon="4.04838">
        <ele>353.42</ele>
        <time>2020-10-13T13:22:19Z</time>
      </trkpt>
      <trkpt lat="44.33002" lon="4.04865">
        <ele>354.86</ele>
        <time>2020-10-13T13:22:36Z</time>
      </trkpt>
      <trkpt lat="44.33008" lon="4.04876">
        <ele>354.86</ele>
        <time>2020-10-13T13:22:44Z</time>
      </trkpt>
      <trkpt lat="44.33017" lon="4.04901">
        <ele>355.34</ele>
        <time>2020-10-13T13:23:01Z</time>
      </trkpt>
      <trkpt lat="44.33025" lon="4.04931">
        <ele>355.34</ele>
        <time>2020-10-13T13:23:18Z</time>
      </trkpt>
      <trkpt lat="44.33034" lon="4.04955">
        <ele>355.34</ele>
        <time>2020-10-13T13:23:35Z</time>
      </trkpt>
      <trkpt lat="44.33036" lon="4.04963">
        <ele>355.34</ele>
        <time>2020-10-13T13:23:39Z</time>
      </trkpt>
      <trkpt lat="44.33042" lon="4.0499">
        <ele>353.42</ele>
        <time>2020-10-13T13:23:56Z</time>
      </trkpt>
      <trkpt lat="44.33042" lon="4.04993">
        <ele>353.9</ele>
        <time>2020-10-13T13:23:58Z</time>
      </trkpt>
      <trkpt lat="44.33046" lon="4.0502">
        <ele>353.42</ele>
        <time>2020-10-13T13:24:15Z</time>
      </trkpt>
      <trkpt lat="44.33051" lon="4.05044">
        <ele>353.42</ele>
        <time>2020-10-13T13:24:30Z</time>
      </trkpt>
      <trkpt lat="44.33058" lon="4.05069">
        <ele>355.34</ele>
        <time>2020-10-13T13:24:46Z</time>
      </trkpt>
      <trkpt lat="44.33059" lon="4.05074">
        <ele>355.34</ele>
        <time>2020-10-13T13:24:50Z</time>
      </trkpt>
      <trkpt lat="44.3306" lon="4.05077">
        <ele>355.34</ele>
        <time>2020-10-13T13:24:52Z</time>
      </trkpt>
      <trkpt lat="44.33064" lon="4.05097">
        <ele>356.31</ele>
        <time>2020-10-13T13:25:06Z</time>
      </trkpt>
      <trkpt lat="44.33064" lon="4.05112">
        <ele>356.79</ele>
        <time>2020-10-13T13:25:16Z</time>
      </trkpt>
      <trkpt lat="44.33055" lon="4.05134">
        <ele>357.27</ele>
        <time>2020-10-13T13:25:33Z</time>
      </trkpt>
      <trkpt lat="44.33049" lon="4.05136">
        <ele>357.27</ele>
        <time>2020-10-13T13:25:39Z</time>
      </trkpt>
      <trkpt lat="44.3303" lon="4.05132">
        <ele>356.31</ele>
        <time>2020-10-13T13:25:55Z</time>
      </trkpt>
      <trkpt lat="44.33015" lon="4.0513">
        <ele>354.86</ele>
        <time>2020-10-13T13:26:09Z</time>
      </trkpt>
      <trkpt lat="44.32998" lon="4.05124">
        <ele>353.9</ele>
        <time>2020-10-13T13:26:25Z</time>
      </trkpt>
      <trkpt lat="44.32977" lon="4.05121">
        <ele>353.42</ele>
        <time>2020-10-13T13:26:40Z</time>
      </trkpt>
      <trkpt lat="44.32966" lon="4.05122">
        <ele>354.86</ele>
        <time>2020-10-13T13:26:49Z</time>
      </trkpt>
      <trkpt lat="44.32948" lon="4.05121">
        <ele>355.34</ele>
        <time>2020-10-13T13:27:03Z</time>
      </trkpt>
      <trkpt lat="44.3293" lon="4.05124">
        <ele>356.31</ele>
        <time>2020-10-13T13:27:17Z</time>
      </trkpt>
      <trkpt lat="44.32924" lon="4.05127">
        <ele>356.31</ele>
        <time>2020-10-13T13:27:23Z</time>
      </trkpt>
      <trkpt lat="44.32911" lon="4.05133">
        <ele>357.27</ele>
        <time>2020-10-13T13:27:34Z</time>
      </trkpt>
      <trkpt lat="44.32895" lon="4.0514">
        <ele>358.23</ele>
        <time>2020-10-13T13:27:49Z</time>
      </trkpt>
      <trkpt lat="44.32876" lon="4.05149">
        <ele>359.19</ele>
        <time>2020-10-13T13:28:06Z</time>
      </trkpt>
      <trkpt lat="44.3286" lon="4.05157">
        <ele>359.67</ele>
        <time>2020-10-13T13:28:22Z</time>
      </trkpt>
      <trkpt lat="44.32843" lon="4.05161">
        <ele>359.67</ele>
        <time>2020-10-13T13:28:37Z</time>
      </trkpt>
      <trkpt lat="44.32829" lon="4.05161">
        <ele>359.67</ele>
        <time>2020-10-13T13:28:53Z</time>
      </trkpt>
      <trkpt lat="44.32824" lon="4.05159">
        <ele>358.23</ele>
        <time>2020-10-13T13:28:58Z</time>
      </trkpt>
      <trkpt lat="44.32806" lon="4.05144">
        <ele>357.27</ele>
        <time>2020-10-13T13:29:12Z</time>
      </trkpt>
      <trkpt lat="44.32796" lon="4.05134">
        <ele>358.71</ele>
        <time>2020-10-13T13:29:20Z</time>
      </trkpt>
      <trkpt lat="44.32775" lon="4.05141">
        <ele>359.67</ele>
        <time>2020-10-13T13:29:36Z</time>
      </trkpt>
      <trkpt lat="44.32757" lon="4.05151">
        <ele>361.11</ele>
        <time>2020-10-13T13:29:52Z</time>
      </trkpt>
      <trkpt lat="44.32736" lon="4.05156">
        <ele>363.52</ele>
        <time>2020-10-13T13:30:09Z</time>
      </trkpt>
      <trkpt lat="44.32722" lon="4.05157">
        <ele>363.52</ele>
        <time>2020-10-13T13:30:20Z</time>
      </trkpt>
      <trkpt lat="44.32719" lon="4.05153">
        <ele>363.52</ele>
        <time>2020-10-13T13:30:24Z</time>
      </trkpt>
      <trkpt lat="44.32713" lon="4.05139">
        <ele>364.96</ele>
        <time>2020-10-13T13:30:34Z</time>
      </trkpt>
      <trkpt lat="44.32708" lon="4.05133">
        <ele>364.96</ele>
        <time>2020-10-13T13:30:40Z</time>
      </trkpt>
      <trkpt lat="44.32688" lon="4.05126">
        <ele>365.92</ele>
        <time>2020-10-13T13:30:56Z</time>
      </trkpt>
      <trkpt lat="44.32685" lon="4.05124">
        <ele>366.4</ele>
        <time>2020-10-13T13:30:58Z</time>
      </trkpt>
      <trkpt lat="44.32663" lon="4.05114">
        <ele>368.32</ele>
        <time>2020-10-13T13:31:15Z</time>
      </trkpt>
      <trkpt lat="44.32659" lon="4.05111">
        <ele>368.8</ele>
        <time>2020-10-13T13:31:18Z</time>
      </trkpt>
      <trkpt lat="44.32644" lon="4.05102">
        <ele>369.76</ele>
        <time>2020-10-13T13:31:33Z</time>
      </trkpt>
      <trkpt lat="44.32624" lon="4.0509">
        <ele>371.69</ele>
        <time>2020-10-13T13:31:49Z</time>
      </trkpt>
      <trkpt lat="44.32605" lon="4.0508">
        <ele>374.09</ele>
        <time>2020-10-13T13:32:07Z</time>
      </trkpt>
      <trkpt lat="44.32604" lon="4.05079">
        <ele>374.09</ele>
        <time>2020-10-13T13:32:09Z</time>
      </trkpt>
      <trkpt lat="44.32584" lon="4.0507">
        <ele>376.01</ele>
        <time>2020-10-13T13:32:27Z</time>
      </trkpt>
      <trkpt lat="44.32565" lon="4.05063">
        <ele>377.45</ele>
        <time>2020-10-13T13:32:44Z</time>
      </trkpt>
      <trkpt lat="44.32555" lon="4.05063">
        <ele>378.42</ele>
        <time>2020-10-13T13:32:53Z</time>
      </trkpt>
      <trkpt lat="44.32527" lon="4.05047">
        <ele>378.9</ele>
        <time>2020-10-13T13:33:14Z</time>
      </trkpt>
      <trkpt lat="44.32506" lon="4.05047">
        <ele>377.94</ele>
        <time>2020-10-13T13:33:32Z</time>
      </trkpt>
      <trkpt lat="44.32485" lon="4.05048">
        <ele>376.97</ele>
        <time>2020-10-13T13:33:49Z</time>
      </trkpt>
      <trkpt lat="44.32465" lon="4.0505">
        <ele>376.97</ele>
        <time>2020-10-13T13:34:04Z</time>
      </trkpt>
      <trkpt lat="44.32457" lon="4.05057">
        <ele>377.45</ele>
        <time>2020-10-13T13:34:11Z</time>
      </trkpt>
      <trkpt lat="44.32452" lon="4.05067">
        <ele>378.9</ele>
        <time>2020-10-13T13:34:19Z</time>
      </trkpt>
      <trkpt lat="44.32447" lon="4.05083">
        <ele>379.86</ele>
        <time>2020-10-13T13:34:35Z</time>
      </trkpt>
      <trkpt lat="44.32441" lon="4.05101">
        <ele>380.82</ele>
        <time>2020-10-13T13:34:49Z</time>
      </trkpt>
      <trkpt lat="44.3243" lon="4.05122">
        <ele>381.3</ele>
        <time>2020-10-13T13:35:02Z</time>
      </trkpt>
      <trkpt lat="44.3242" lon="4.05142">
        <ele>381.78</ele>
        <time>2020-10-13T13:35:16Z</time>
      </trkpt>
      <trkpt lat="44.32407" lon="4.05168">
        <ele>382.74</ele>
        <time>2020-10-13T13:35:32Z</time>
      </trkpt>
      <trkpt lat="44.32404" lon="4.05172">
        <ele>382.74</ele>
        <time>2020-10-13T13:35:34Z</time>
      </trkpt>
      <trkpt lat="44.32398" lon="4.0519">
        <ele>383.22</ele>
        <time>2020-10-13T13:35:49Z</time>
      </trkpt>
      <trkpt lat="44.32396" lon="4.05198">
        <ele>382.74</ele>
        <time>2020-10-13T13:36:09Z</time>
      </trkpt>
      <trkpt lat="44.32396" lon="4.05206">
        <ele>382.74</ele>
        <time>2020-10-13T13:36:24Z</time>
      </trkpt>
      <trkpt lat="44.32395" lon="4.0521">
        <ele>382.74</ele>
        <time>2020-10-13T13:36:41Z</time>
      </trkpt>
      <trkpt lat="44.32398" lon="4.05208">
        <ele>382.74</ele>
        <time>2020-10-13T13:37:04Z</time>
      </trkpt>
      <trkpt lat="44.32396" lon="4.05213">
        <ele>382.74</ele>
        <time>2020-10-13T13:37:28Z</time>
      </trkpt>
      <trkpt lat="44.32397" lon="4.05211">
        <ele>383.22</ele>
        <time>2020-10-13T13:37:49Z</time>
      </trkpt>
      <trkpt lat="44.32398" lon="4.05212">
        <ele>383.7</ele>
        <time>2020-10-13T13:38:11Z</time>
      </trkpt>
      <trkpt lat="44.324" lon="4.05215">
        <ele>383.7</ele>
        <time>2020-10-13T13:38:29Z</time>
      </trkpt>
      <trkpt lat="44.32394" lon="4.05214">
        <ele>383.7</ele>
        <time>2020-10-13T13:38:58Z</time>
      </trkpt>
      <trkpt lat="44.32397" lon="4.0522">
        <ele>384.18</ele>
        <time>2020-10-13T13:39:25Z</time>
      </trkpt>
      <trkpt lat="44.32397" lon="4.05217">
        <ele>384.66</ele>
        <time>2020-10-13T13:39:50Z</time>
      </trkpt>
      <trkpt lat="44.32394" lon="4.05217">
        <ele>384.66</ele>
        <time>2020-10-13T13:40:04Z</time>
      </trkpt>
      <trkpt lat="44.32393" lon="4.05217">
        <ele>384.66</ele>
        <time>2020-10-13T13:40:26Z</time>
      </trkpt>
      <trkpt lat="44.32393" lon="4.0522">
        <ele>384.66</ele>
        <time>2020-10-13T13:40:54Z</time>
      </trkpt>
      <trkpt lat="44.32395" lon="4.05216">
        <ele>385.15</ele>
        <time>2020-10-13T13:41:19Z</time>
      </trkpt>
      <trkpt lat="44.32399" lon="4.05218">
        <ele>385.63</ele>
        <time>2020-10-13T13:41:50Z</time>
      </trkpt>
      <trkpt lat="44.32401" lon="4.05219">
        <ele>385.63</ele>
        <time>2020-10-13T13:41:53Z</time>
      </trkpt>
      <trkpt lat="44.32415" lon="4.05221">
        <ele>386.11</ele>
        <time>2020-10-13T13:42:08Z</time>
      </trkpt>
      <trkpt lat="44.3242" lon="4.05225">
        <ele>386.59</ele>
        <time>2020-10-13T13:42:15Z</time>
      </trkpt>
      <trkpt lat="44.32429" lon="4.05243">
        <ele>387.07</ele>
        <time>2020-10-13T13:42:33Z</time>
      </trkpt>
      <trkpt lat="44.32431" lon="4.0525">
        <ele>387.07</ele>
        <time>2020-10-13T13:42:47Z</time>
      </trkpt>
      <trkpt lat="44.32433" lon="4.05262">
        <ele>387.07</ele>
        <time>2020-10-13T13:42:56Z</time>
      </trkpt>
      <trkpt lat="44.3243" lon="4.05291">
        <ele>388.51</ele>
        <time>2020-10-13T13:43:16Z</time>
      </trkpt>
      <trkpt lat="44.32421" lon="4.05318">
        <ele>388.99</ele>
        <time>2020-10-13T13:43:35Z</time>
      </trkpt>
      <trkpt lat="44.32406" lon="4.05347">
        <ele>389.95</ele>
        <time>2020-10-13T13:43:54Z</time>
      </trkpt>
      <trkpt lat="44.32396" lon="4.05372">
        <ele>390.43</ele>
        <time>2020-10-13T13:44:11Z</time>
      </trkpt>
      <trkpt lat="44.32387" lon="4.05403">
        <ele>390.91</ele>
        <time>2020-10-13T13:44:29Z</time>
      </trkpt>
      <trkpt lat="44.32383" lon="4.05436">
        <ele>390.43</ele>
        <time>2020-10-13T13:44:46Z</time>
      </trkpt>
      <trkpt lat="44.32383" lon="4.05469">
        <ele>388.99</ele>
        <time>2020-10-13T13:45:05Z</time>
      </trkpt>
      <trkpt lat="44.32387" lon="4.05504">
        <ele>388.99</ele>
        <time>2020-10-13T13:45:23Z</time>
      </trkpt>
      <trkpt lat="44.32392" lon="4.05532">
        <ele>388.99</ele>
        <time>2020-10-13T13:45:40Z</time>
      </trkpt>
      <trkpt lat="44.32397" lon="4.05556">
        <ele>388.99</ele>
        <time>2020-10-13T13:45:57Z</time>
      </trkpt>
      <trkpt lat="44.32402" lon="4.05575">
        <ele>388.03</ele>
        <time>2020-10-13T13:46:11Z</time>
      </trkpt>
      <trkpt lat="44.32407" lon="4.05589">
        <ele>386.59</ele>
        <time>2020-10-13T13:46:22Z</time>
      </trkpt>
      <trkpt lat="44.32409" lon="4.05591">
        <ele>386.59</ele>
        <time>2020-10-13T13:46:24Z</time>
      </trkpt>
      <trkpt lat="44.32412" lon="4.05602">
        <ele>385.63</ele>
        <time>2020-10-13T13:46:31Z</time>
      </trkpt>
      <trkpt lat="44.3242" lon="4.05627">
        <ele>383.7</ele>
        <time>2020-10-13T13:46:49Z</time>
      </trkpt>
      <trkpt lat="44.3242" lon="4.05627">
        <ele>383.7</ele>
        <time>2020-10-13T13:46:50Z</time>
      </trkpt>
      <trkpt lat="44.32428" lon="4.05653">
        <ele>381.78</ele>
        <time>2020-10-13T13:47:07Z</time>
      </trkpt>
      <trkpt lat="44.32432" lon="4.05672">
        <ele>380.82</ele>
        <time>2020-10-13T13:47:22Z</time>
      </trkpt>
      <trkpt lat="44.3244" lon="4.05696">
        <ele>379.86</ele>
        <time>2020-10-13T13:47:37Z</time>
      </trkpt>
      <trkpt lat="44.32445" lon="4.05722">
        <ele>377.94</ele>
        <time>2020-10-13T13:47:54Z</time>
      </trkpt>
      <trkpt lat="44.32443" lon="4.05723">
        <ele>377.45</ele>
        <time>2020-10-13T13:47:57Z</time>
      </trkpt>
      <trkpt lat="44.32428" lon="4.05715">
        <ele>375.53</ele>
        <time>2020-10-13T13:48:11Z</time>
      </trkpt>
      <trkpt lat="44.32424" lon="4.05715">
        <ele>375.05</ele>
        <time>2020-10-13T13:48:14Z</time>
      </trkpt>
      <trkpt lat="44.32416" lon="4.05723">
        <ele>374.09</ele>
        <time>2020-10-13T13:48:22Z</time>
      </trkpt>
      <trkpt lat="44.32402" lon="4.05743">
        <ele>372.65</ele>
        <time>2020-10-13T13:48:41Z</time>
      </trkpt>
      <trkpt lat="44.3239" lon="4.05767">
        <ele>370.73</ele>
        <time>2020-10-13T13:48:59Z</time>
      </trkpt>
      <trkpt lat="44.32381" lon="4.05786">
        <ele>369.76</ele>
        <time>2020-10-13T13:49:13Z</time>
      </trkpt>
      <trkpt lat="44.32378" lon="4.05792">
        <ele>369.28</ele>
        <time>2020-10-13T13:49:18Z</time>
      </trkpt>
      <trkpt lat="44.32373" lon="4.05802">
        <ele>368.32</ele>
        <time>2020-10-13T13:49:30Z</time>
      </trkpt>
      <trkpt lat="44.32366" lon="4.05824">
        <ele>367.36</ele>
        <time>2020-10-13T13:49:47Z</time>
      </trkpt>
      <trkpt lat="44.32369" lon="4.05828">
        <ele>367.36</ele>
        <time>2020-10-13T13:49:54Z</time>
      </trkpt>
      <trkpt lat="44.32371" lon="4.05831">
        <ele>367.36</ele>
        <time>2020-10-13T13:49:58Z</time>
      </trkpt>
      <trkpt lat="44.32384" lon="4.05853">
        <ele>366.4</ele>
        <time>2020-10-13T13:50:16Z</time>
      </trkpt>
      <trkpt lat="44.32387" lon="4.05861">
        <ele>366.4</ele>
        <time>2020-10-13T13:50:21Z</time>
      </trkpt>
      <trkpt lat="44.32392" lon="4.05869">
        <ele>366.4</ele>
        <time>2020-10-13T13:50:27Z</time>
      </trkpt>
      <trkpt lat="44.32398" lon="4.05875">
        <ele>365.44</ele>
        <time>2020-10-13T13:50:42Z</time>
      </trkpt>
      <trkpt lat="44.32395" lon="4.05888">
        <ele>364.48</ele>
        <time>2020-10-13T13:50:58Z</time>
      </trkpt>
      <trkpt lat="44.32392" lon="4.05905">
        <ele>363.52</ele>
        <time>2020-10-13T13:51:09Z</time>
      </trkpt>
      <trkpt lat="44.32386" lon="4.05931">
        <ele>361.59</ele>
        <time>2020-10-13T13:51:29Z</time>
      </trkpt>
      <trkpt lat="44.32385" lon="4.05932">
        <ele>361.11</ele>
        <time>2020-10-13T13:51:31Z</time>
      </trkpt>
      <trkpt lat="44.32388" lon="4.05936">
        <ele>360.63</ele>
        <time>2020-10-13T13:51:36Z</time>
      </trkpt>
      <trkpt lat="44.32406" lon="4.05954">
        <ele>357.75</ele>
        <time>2020-10-13T13:51:53Z</time>
      </trkpt>
      <trkpt lat="44.32417" lon="4.05976">
        <ele>356.79</ele>
        <time>2020-10-13T13:52:12Z</time>
      </trkpt>
      <trkpt lat="44.32424" lon="4.06">
        <ele>355.83</ele>
        <time>2020-10-13T13:52:28Z</time>
      </trkpt>
      <trkpt lat="44.32424" lon="4.06017">
        <ele>355.83</ele>
        <time>2020-10-13T13:52:39Z</time>
      </trkpt>
      <trkpt lat="44.32422" lon="4.06042">
        <ele>356.79</ele>
        <time>2020-10-13T13:52:57Z</time>
      </trkpt>
      <trkpt lat="44.32418" lon="4.06063">
        <ele>356.79</ele>
        <time>2020-10-13T13:53:13Z</time>
      </trkpt>
      <trkpt lat="44.32418" lon="4.06067">
        <ele>355.34</ele>
        <time>2020-10-13T13:53:19Z</time>
      </trkpt>
      <trkpt lat="44.32422" lon="4.06072">
        <ele>354.38</ele>
        <time>2020-10-13T13:53:36Z</time>
      </trkpt>
      <trkpt lat="44.32428" lon="4.06081">
        <ele>353.9</ele>
        <time>2020-10-13T13:53:51Z</time>
      </trkpt>
      <trkpt lat="44.32426" lon="4.06085">
        <ele>353.9</ele>
        <time>2020-10-13T13:54:11Z</time>
      </trkpt>
      <trkpt lat="44.32428" lon="4.06081">
        <ele>353.42</ele>
        <time>2020-10-13T13:54:27Z</time>
      </trkpt>
      <trkpt lat="44.32429" lon="4.0608">
        <ele>354.38</ele>
        <time>2020-10-13T13:54:41Z</time>
      </trkpt>
      <trkpt lat="44.3243" lon="4.06081">
        <ele>354.38</ele>
        <time>2020-10-13T13:55:04Z</time>
      </trkpt>
      <trkpt lat="44.32431" lon="4.06081">
        <ele>354.38</ele>
        <time>2020-10-13T13:55:15Z</time>
      </trkpt>
      <trkpt lat="44.3243" lon="4.06081">
        <ele>354.38</ele>
        <time>2020-10-13T13:55:29Z</time>
      </trkpt>
      <trkpt lat="44.3243" lon="4.06078">
        <ele>354.38</ele>
        <time>2020-10-13T13:55:51Z</time>
      </trkpt>
      <trkpt lat="44.32427" lon="4.06078">
        <ele>354.38</ele>
        <time>2020-10-13T13:56:13Z</time>
      </trkpt>
      <trkpt lat="44.32426" lon="4.06084">
        <ele>352.94</ele>
        <time>2020-10-13T13:56:24Z</time>
      </trkpt>
      <trkpt lat="44.32425" lon="4.06095">
        <ele>349.58</ele>
        <time>2020-10-13T13:56:35Z</time>
      </trkpt>
      <trkpt lat="44.32422" lon="4.06107">
        <ele>346.21</ele>
        <time>2020-10-13T13:56:48Z</time>
      </trkpt>
      <trkpt lat="44.32421" lon="4.06109">
        <ele>344.77</ele>
        <time>2020-10-13T13:56:52Z</time>
      </trkpt>
      <trkpt lat="44.32433" lon="4.06125">
        <ele>343.81</ele>
        <time>2020-10-13T13:57:08Z</time>
      </trkpt>
      <trkpt lat="44.32443" lon="4.06144">
        <ele>341.41</ele>
        <time>2020-10-13T13:57:23Z</time>
      </trkpt>
      <trkpt lat="44.32449" lon="4.06157">
        <ele>338.04</ele>
        <time>2020-10-13T13:57:35Z</time>
      </trkpt>
      <trkpt lat="44.32451" lon="4.06165">
        <ele>336.12</ele>
        <time>2020-10-13T13:57:42Z</time>
      </trkpt>
      <trkpt lat="44.32452" lon="4.06181">
        <ele>334.2</ele>
        <time>2020-10-13T13:57:55Z</time>
      </trkpt>
      <trkpt lat="44.32453" lon="4.06202">
        <ele>331.79</ele>
        <time>2020-10-13T13:58:10Z</time>
      </trkpt>
      <trkpt lat="44.32452" lon="4.06214">
        <ele>330.35</ele>
        <time>2020-10-13T13:58:16Z</time>
      </trkpt>
      <trkpt lat="44.32443" lon="4.06226">
        <ele>328.43</ele>
        <time>2020-10-13T13:58:30Z</time>
      </trkpt>
      <trkpt lat="44.32438" lon="4.0623">
        <ele>327.47</ele>
        <time>2020-10-13T13:58:35Z</time>
      </trkpt>
      <trkpt lat="44.32434" lon="4.06239">
        <ele>326.5</ele>
        <time>2020-10-13T13:58:41Z</time>
      </trkpt>
      <trkpt lat="44.32426" lon="4.06254">
        <ele>325.54</ele>
        <time>2020-10-13T13:58:51Z</time>
      </trkpt>
      <trkpt lat="44.32423" lon="4.0626">
        <ele>325.54</ele>
        <time>2020-10-13T13:58:55Z</time>
      </trkpt>
      <trkpt lat="44.32405" lon="4.06287">
        <ele>324.1</ele>
        <time>2020-10-13T13:59:15Z</time>
      </trkpt>
      <trkpt lat="44.32391" lon="4.06305">
        <ele>322.66</ele>
        <time>2020-10-13T13:59:30Z</time>
      </trkpt>
      <trkpt lat="44.32379" lon="4.06318">
        <ele>320.26</ele>
        <time>2020-10-13T13:59:47Z</time>
      </trkpt>
      <trkpt lat="44.3237" lon="4.06327">
        <ele>317.85</ele>
        <time>2020-10-13T14:00:03Z</time>
      </trkpt>
      <trkpt lat="44.32359" lon="4.0634">
        <ele>314.97</ele>
        <time>2020-10-13T14:00:19Z</time>
      </trkpt>
      <trkpt lat="44.32347" lon="4.06348">
        <ele>311.6</ele>
        <time>2020-10-13T14:00:35Z</time>
      </trkpt>
      <trkpt lat="44.32345" lon="4.0635">
        <ele>310.64</ele>
        <time>2020-10-13T14:00:39Z</time>
      </trkpt>
      <trkpt lat="44.32348" lon="4.06355">
        <ele>310.16</ele>
        <time>2020-10-13T14:00:44Z</time>
      </trkpt>
      <trkpt lat="44.32365" lon="4.06369">
        <ele>308.24</ele>
        <time>2020-10-13T14:01:01Z</time>
      </trkpt>
      <trkpt lat="44.32368" lon="4.0637">
        <ele>307.76</ele>
        <time>2020-10-13T14:01:04Z</time>
      </trkpt>
      <trkpt lat="44.32377" lon="4.06372">
        <ele>307.28</ele>
        <time>2020-10-13T14:01:13Z</time>
      </trkpt>
      <trkpt lat="44.32393" lon="4.06386">
        <ele>305.36</ele>
        <time>2020-10-13T14:01:29Z</time>
      </trkpt>
      <trkpt lat="44.32406" lon="4.06399">
        <ele>303.43</ele>
        <time>2020-10-13T14:01:46Z</time>
      </trkpt>
      <trkpt lat="44.32414" lon="4.06406">
        <ele>302.47</ele>
        <time>2020-10-13T14:02:00Z</time>
      </trkpt>
      <trkpt lat="44.32413" lon="4.06415">
        <ele>301.99</ele>
        <time>2020-10-13T14:02:28Z</time>
      </trkpt>
      <trkpt lat="44.32414" lon="4.06412">
        <ele>301.51</ele>
        <time>2020-10-13T14:02:59Z</time>
      </trkpt>
      <trkpt lat="44.32408" lon="4.06415">
        <ele>300.55</ele>
        <time>2020-10-13T14:03:17Z</time>
      </trkpt>
      <trkpt lat="44.32397" lon="4.06413">
        <ele>298.15</ele>
        <time>2020-10-13T14:03:30Z</time>
      </trkpt>
      <trkpt lat="44.32383" lon="4.06414">
        <ele>296.22</ele>
        <time>2020-10-13T14:03:45Z</time>
      </trkpt>
      <trkpt lat="44.32375" lon="4.06409">
        <ele>294.3</ele>
        <time>2020-10-13T14:03:57Z</time>
      </trkpt>
      <trkpt lat="44.32364" lon="4.06407">
        <ele>291.42</ele>
        <time>2020-10-13T14:04:11Z</time>
      </trkpt>
      <trkpt lat="44.32354" lon="4.06406">
        <ele>288.53</ele>
        <time>2020-10-13T14:04:24Z</time>
      </trkpt>
      <trkpt lat="44.3235" lon="4.0641">
        <ele>287.09</ele>
        <time>2020-10-13T14:04:38Z</time>
      </trkpt>
      <trkpt lat="44.32353" lon="4.06415">
        <ele>286.13</ele>
        <time>2020-10-13T14:04:52Z</time>
      </trkpt>
      <trkpt lat="44.3235" lon="4.0643">
        <ele>285.65</ele>
        <time>2020-10-13T14:05:08Z</time>
      </trkpt>
      <trkpt lat="44.32348" lon="4.06439">
        <ele>285.65</ele>
        <time>2020-10-13T14:05:24Z</time>
      </trkpt>
      <trkpt lat="44.32356" lon="4.06456">
        <ele>285.65</ele>
        <time>2020-10-13T14:05:40Z</time>
      </trkpt>
      <trkpt lat="44.32356" lon="4.06471">
        <ele>289.01</ele>
        <time>2020-10-13T14:05:56Z</time>
      </trkpt>
      <trkpt lat="44.32353" lon="4.06485">
        <ele>290.94</ele>
        <time>2020-10-13T14:06:11Z</time>
      </trkpt>
      <trkpt lat="44.32351" lon="4.065">
        <ele>292.38</ele>
        <time>2020-10-13T14:06:26Z</time>
      </trkpt>
      <trkpt lat="44.3235" lon="4.06517">
        <ele>294.3</ele>
        <time>2020-10-13T14:06:45Z</time>
      </trkpt>
      <trkpt lat="44.32346" lon="4.06534">
        <ele>296.7</ele>
        <time>2020-10-13T14:06:59Z</time>
      </trkpt>
      <trkpt lat="44.32338" lon="4.06523">
        <ele>298.15</ele>
        <time>2020-10-13T14:07:14Z</time>
      </trkpt>
      <trkpt lat="44.32331" lon="4.06508">
        <ele>300.07</ele>
        <time>2020-10-13T14:07:29Z</time>
      </trkpt>
      <trkpt lat="44.32324" lon="4.06498">
        <ele>301.51</ele>
        <time>2020-10-13T14:07:39Z</time>
      </trkpt>
      <trkpt lat="44.32316" lon="4.06485">
        <ele>303.43</ele>
        <time>2020-10-13T14:07:54Z</time>
      </trkpt>
      <trkpt lat="44.32308" lon="4.0649">
        <ele>305.84</ele>
        <time>2020-10-13T14:08:08Z</time>
      </trkpt>
      <trkpt lat="44.32313" lon="4.06513">
        <ele>307.28</ele>
        <time>2020-10-13T14:08:24Z</time>
      </trkpt>
      <trkpt lat="44.32315" lon="4.0653">
        <ele>308.72</ele>
        <time>2020-10-13T14:08:40Z</time>
      </trkpt>
      <trkpt lat="44.32308" lon="4.06538">
        <ele>311.12</ele>
        <time>2020-10-13T14:08:54Z</time>
      </trkpt>
      <trkpt lat="44.32296" lon="4.06538">
        <ele>313.53</ele>
        <time>2020-10-13T14:09:08Z</time>
      </trkpt>
      <trkpt lat="44.32285" lon="4.06531">
        <ele>315.45</ele>
        <time>2020-10-13T14:09:23Z</time>
      </trkpt>
      <trkpt lat="44.32276" lon="4.06527">
        <ele>316.41</ele>
        <time>2020-10-13T14:09:36Z</time>
      </trkpt>
      <trkpt lat="44.32271" lon="4.06521">
        <ele>317.37</ele>
        <time>2020-10-13T14:09:43Z</time>
      </trkpt>
      <trkpt lat="44.3226" lon="4.06509">
        <ele>319.3</ele>
        <time>2020-10-13T14:09:58Z</time>
      </trkpt>
      <trkpt lat="44.32252" lon="4.06494">
        <ele>320.74</ele>
        <time>2020-10-13T14:10:16Z</time>
      </trkpt>
      <trkpt lat="44.32241" lon="4.06476">
        <ele>323.62</ele>
        <time>2020-10-13T14:10:36Z</time>
      </trkpt>
      <trkpt lat="44.3223" lon="4.06476">
        <ele>325.54</ele>
        <time>2020-10-13T14:10:50Z</time>
      </trkpt>
      <trkpt lat="44.32218" lon="4.0647">
        <ele>327.95</ele>
        <time>2020-10-13T14:11:06Z</time>
      </trkpt>
      <trkpt lat="44.32203" lon="4.06465">
        <ele>330.35</ele>
        <time>2020-10-13T14:11:22Z</time>
      </trkpt>
      <trkpt lat="44.32192" lon="4.06466">
        <ele>331.79</ele>
        <time>2020-10-13T14:11:36Z</time>
      </trkpt>
      <trkpt lat="44.32193" lon="4.06487">
        <ele>333.23</ele>
        <time>2020-10-13T14:11:53Z</time>
      </trkpt>
      <trkpt lat="44.322" lon="4.06505">
        <ele>335.16</ele>
        <time>2020-10-13T14:12:08Z</time>
      </trkpt>
      <trkpt lat="44.32205" lon="4.06524">
        <ele>337.08</ele>
        <time>2020-10-13T14:12:24Z</time>
      </trkpt>
      <trkpt lat="44.32207" lon="4.06545">
        <ele>339.48</ele>
        <time>2020-10-13T14:12:43Z</time>
      </trkpt>
      <trkpt lat="44.32205" lon="4.06564">
        <ele>340.44</ele>
        <time>2020-10-13T14:12:58Z</time>
      </trkpt>
      <trkpt lat="44.32201" lon="4.06583">
        <ele>342.37</ele>
        <time>2020-10-13T14:13:14Z</time>
      </trkpt>
      <trkpt lat="44.32196" lon="4.06599">
        <ele>343.81</ele>
        <time>2020-10-13T14:13:28Z</time>
      </trkpt>
      <trkpt lat="44.32179" lon="4.06608">
        <ele>345.25</ele>
        <time>2020-10-13T14:13:45Z</time>
      </trkpt>
      <trkpt lat="44.32168" lon="4.0662">
        <ele>346.21</ele>
        <time>2020-10-13T14:13:59Z</time>
      </trkpt>
      <trkpt lat="44.32165" lon="4.06623">
        <ele>346.69</ele>
        <time>2020-10-13T14:14:03Z</time>
      </trkpt>
      <trkpt lat="44.32156" lon="4.06632">
        <ele>347.65</ele>
        <time>2020-10-13T14:14:13Z</time>
      </trkpt>
      <trkpt lat="44.32144" lon="4.06645">
        <ele>349.1</ele>
        <time>2020-10-13T14:14:29Z</time>
      </trkpt>
      <trkpt lat="44.32136" lon="4.06661">
        <ele>350.54</ele>
        <time>2020-10-13T14:14:44Z</time>
      </trkpt>
      <trkpt lat="44.32128" lon="4.06673">
        <ele>351.5</ele>
        <time>2020-10-13T14:14:58Z</time>
      </trkpt>
      <trkpt lat="44.32115" lon="4.06688">
        <ele>353.42</ele>
        <time>2020-10-13T14:15:14Z</time>
      </trkpt>
      <trkpt lat="44.32103" lon="4.06697">
        <ele>355.83</ele>
        <time>2020-10-13T14:15:29Z</time>
      </trkpt>
      <trkpt lat="44.32087" lon="4.06701">
        <ele>356.79</ele>
        <time>2020-10-13T14:15:45Z</time>
      </trkpt>
      <trkpt lat="44.32074" lon="4.0671">
        <ele>358.71</ele>
        <time>2020-10-13T14:16:01Z</time>
      </trkpt>
      <trkpt lat="44.32063" lon="4.06723">
        <ele>359.67</ele>
        <time>2020-10-13T14:16:15Z</time>
      </trkpt>
      <trkpt lat="44.32051" lon="4.06735">
        <ele>362.07</ele>
        <time>2020-10-13T14:16:31Z</time>
      </trkpt>
      <trkpt lat="44.32036" lon="4.06749">
        <ele>364.48</ele>
        <time>2020-10-13T14:16:47Z</time>
      </trkpt>
      <trkpt lat="44.32024" lon="4.06759">
        <ele>366.88</ele>
        <time>2020-10-13T14:17:04Z</time>
      </trkpt>
      <trkpt lat="44.32018" lon="4.06766">
        <ele>367.84</ele>
        <time>2020-10-13T14:17:13Z</time>
      </trkpt>
      <trkpt lat="44.32009" lon="4.0676">
        <ele>368.32</ele>
        <time>2020-10-13T14:17:28Z</time>
      </trkpt>
      <trkpt lat="44.32001" lon="4.0676">
        <ele>368.32</ele>
        <time>2020-10-13T14:17:35Z</time>
      </trkpt>
      <trkpt lat="44.31997" lon="4.0676">
        <ele>368.32</ele>
        <time>2020-10-13T14:17:38Z</time>
      </trkpt>
      <trkpt lat="44.31986" lon="4.0676">
        <ele>368.32</ele>
        <time>2020-10-13T14:17:51Z</time>
      </trkpt>
      <trkpt lat="44.31982" lon="4.06758">
        <ele>368.8</ele>
        <time>2020-10-13T14:17:55Z</time>
      </trkpt>
      <trkpt lat="44.31972" lon="4.06745">
        <ele>367.36</ele>
        <time>2020-10-13T14:18:06Z</time>
      </trkpt>
      <trkpt lat="44.31966" lon="4.06739">
        <ele>366.88</ele>
        <time>2020-10-13T14:18:11Z</time>
      </trkpt>
      <trkpt lat="44.31958" lon="4.06735">
        <ele>366.88</ele>
        <time>2020-10-13T14:18:17Z</time>
      </trkpt>
      <trkpt lat="44.31949" lon="4.06727">
        <ele>366.88</ele>
        <time>2020-10-13T14:18:26Z</time>
      </trkpt>
      <trkpt lat="44.31947" lon="4.06711">
        <ele>366.88</ele>
        <time>2020-10-13T14:18:38Z</time>
      </trkpt>
      <trkpt lat="44.31935" lon="4.06686">
        <ele>365.92</ele>
        <time>2020-10-13T14:18:57Z</time>
      </trkpt>
      <trkpt lat="44.31924" lon="4.06667">
        <ele>365.44</ele>
        <time>2020-10-13T14:19:14Z</time>
      </trkpt>
      <trkpt lat="44.3192" lon="4.06658">
        <ele>365.44</ele>
        <time>2020-10-13T14:19:28Z</time>
      </trkpt>
      <trkpt lat="44.31914" lon="4.0665">
        <ele>366.88</ele>
        <time>2020-10-13T14:19:34Z</time>
      </trkpt>
      <trkpt lat="44.31904" lon="4.06643">
        <ele>368.32</ele>
        <time>2020-10-13T14:19:43Z</time>
      </trkpt>
      <trkpt lat="44.31889" lon="4.06652">
        <ele>370.24</ele>
        <time>2020-10-13T14:20:00Z</time>
      </trkpt>
      <trkpt lat="44.31888" lon="4.06652">
        <ele>370.73</ele>
        <time>2020-10-13T14:20:01Z</time>
      </trkpt>
      <trkpt lat="44.31871" lon="4.06666">
        <ele>371.69</ele>
        <time>2020-10-13T14:20:20Z</time>
      </trkpt>
      <trkpt lat="44.31858" lon="4.06676">
        <ele>372.17</ele>
        <time>2020-10-13T14:20:39Z</time>
      </trkpt>
      <trkpt lat="44.31842" lon="4.06694">
        <ele>373.61</ele>
        <time>2020-10-13T14:20:56Z</time>
      </trkpt>
      <trkpt lat="44.31827" lon="4.06714">
        <ele>374.09</ele>
        <time>2020-10-13T14:21:14Z</time>
      </trkpt>
      <trkpt lat="44.31809" lon="4.06728">
        <ele>375.05</ele>
        <time>2020-10-13T14:21:31Z</time>
      </trkpt>
      <trkpt lat="44.31801" lon="4.06736">
        <ele>376.01</ele>
        <time>2020-10-13T14:21:39Z</time>
      </trkpt>
      <trkpt lat="44.31789" lon="4.06755">
        <ele>377.45</ele>
        <time>2020-10-13T14:21:56Z</time>
      </trkpt>
      <trkpt lat="44.31772" lon="4.06781">
        <ele>378.9</ele>
        <time>2020-10-13T14:22:16Z</time>
      </trkpt>
      <trkpt lat="44.31757" lon="4.06801">
        <ele>380.34</ele>
        <time>2020-10-13T14:22:34Z</time>
      </trkpt>
      <trkpt lat="44.31745" lon="4.06817">
        <ele>381.78</ele>
        <time>2020-10-13T14:22:50Z</time>
      </trkpt>
      <trkpt lat="44.31725" lon="4.06835">
        <ele>384.18</ele>
        <time>2020-10-13T14:23:12Z</time>
      </trkpt>
      <trkpt lat="44.31705" lon="4.0685">
        <ele>385.63</ele>
        <time>2020-10-13T14:23:30Z</time>
      </trkpt>
      <trkpt lat="44.3169" lon="4.06858">
        <ele>387.55</ele>
        <time>2020-10-13T14:23:46Z</time>
      </trkpt>
      <trkpt lat="44.31672" lon="4.0687">
        <ele>388.99</ele>
        <time>2020-10-13T14:24:04Z</time>
      </trkpt>
      <trkpt lat="44.31658" lon="4.0689">
        <ele>389.95</ele>
        <time>2020-10-13T14:24:21Z</time>
      </trkpt>
      <trkpt lat="44.31645" lon="4.06912">
        <ele>390.43</ele>
        <time>2020-10-13T14:24:38Z</time>
      </trkpt>
      <trkpt lat="44.31633" lon="4.06934">
        <ele>392.36</ele>
        <time>2020-10-13T14:24:55Z</time>
      </trkpt>
      <trkpt lat="44.31622" lon="4.06954">
        <ele>394.28</ele>
        <time>2020-10-13T14:25:12Z</time>
      </trkpt>
      <trkpt lat="44.31621" lon="4.06956">
        <ele>394.28</ele>
        <time>2020-10-13T14:25:14Z</time>
      </trkpt>
      <trkpt lat="44.31617" lon="4.06964">
        <ele>395.24</ele>
        <time>2020-10-13T14:25:29Z</time>
      </trkpt>
      <trkpt lat="44.31602" lon="4.06983">
        <ele>395.72</ele>
        <time>2020-10-13T14:25:47Z</time>
      </trkpt>
      <trkpt lat="44.31594" lon="4.07004">
        <ele>397.16</ele>
        <time>2020-10-13T14:26:03Z</time>
      </trkpt>
      <trkpt lat="44.31588" lon="4.07025">
        <ele>396.68</ele>
        <time>2020-10-13T14:26:19Z</time>
      </trkpt>
      <trkpt lat="44.31584" lon="4.07035">
        <ele>397.16</ele>
        <time>2020-10-13T14:26:25Z</time>
      </trkpt>
      <trkpt lat="44.31573" lon="4.07068">
        <ele>397.64</ele>
        <time>2020-10-13T14:26:43Z</time>
      </trkpt>
      <trkpt lat="44.31566" lon="4.0709">
        <ele>398.6</ele>
        <time>2020-10-13T14:26:58Z</time>
      </trkpt>
      <trkpt lat="44.31562" lon="4.071">
        <ele>398.6</ele>
        <time>2020-10-13T14:27:05Z</time>
      </trkpt>
      <trkpt lat="44.31555" lon="4.07119">
        <ele>399.57</ele>
        <time>2020-10-13T14:27:21Z</time>
      </trkpt>
      <trkpt lat="44.31551" lon="4.07136">
        <ele>399.57</ele>
        <time>2020-10-13T14:27:36Z</time>
      </trkpt>
      <trkpt lat="44.31543" lon="4.0717">
        <ele>400.53</ele>
        <time>2020-10-13T14:27:58Z</time>
      </trkpt>
      <trkpt lat="44.31543" lon="4.07177">
        <ele>401.01</ele>
        <time>2020-10-13T14:28:04Z</time>
      </trkpt>
      <trkpt lat="44.31543" lon="4.07181">
        <ele>401.01</ele>
        <time>2020-10-13T14:28:07Z</time>
      </trkpt>
      <trkpt lat="44.31535" lon="4.07211">
        <ele>402.93</ele>
        <time>2020-10-13T14:28:26Z</time>
      </trkpt>
      <trkpt lat="44.31529" lon="4.07247">
        <ele>403.41</ele>
        <time>2020-10-13T14:28:47Z</time>
      </trkpt>
      <trkpt lat="44.31528" lon="4.07262">
        <ele>403.41</ele>
        <time>2020-10-13T14:28:57Z</time>
      </trkpt>
      <trkpt lat="44.31531" lon="4.07293">
        <ele>401.97</ele>
        <time>2020-10-13T14:29:15Z</time>
      </trkpt>
      <trkpt lat="44.31535" lon="4.073">
        <ele>401.97</ele>
        <time>2020-10-13T14:29:20Z</time>
      </trkpt>
      <trkpt lat="44.31552" lon="4.07325">
        <ele>401.97</ele>
        <time>2020-10-13T14:29:40Z</time>
      </trkpt>
      <trkpt lat="44.31564" lon="4.07335">
        <ele>401.97</ele>
        <time>2020-10-13T14:29:56Z</time>
      </trkpt>
      <trkpt lat="44.31567" lon="4.07336">
        <ele>401.97</ele>
        <time>2020-10-13T14:30:17Z</time>
      </trkpt>
      <trkpt lat="44.31564" lon="4.0733">
        <ele>401.97</ele>
        <time>2020-10-13T14:30:43Z</time>
      </trkpt>
      <trkpt lat="44.31566" lon="4.0733">
        <ele>401.97</ele>
        <time>2020-10-13T14:30:58Z</time>
      </trkpt>
      <trkpt lat="44.31566" lon="4.07331">
        <ele>401.97</ele>
        <time>2020-10-13T14:31:16Z</time>
      </trkpt>
      <trkpt lat="44.3157" lon="4.07334">
        <ele>401.97</ele>
        <time>2020-10-13T14:31:30Z</time>
      </trkpt>
      <trkpt lat="44.31577" lon="4.07334">
        <ele>401.97</ele>
        <time>2020-10-13T14:31:45Z</time>
      </trkpt>
      <trkpt lat="44.31578" lon="4.07329">
        <ele>402.93</ele>
        <time>2020-10-13T14:32:02Z</time>
      </trkpt>
      <trkpt lat="44.31583" lon="4.0733">
        <ele>403.41</ele>
        <time>2020-10-13T14:32:15Z</time>
      </trkpt>
      <trkpt lat="44.31585" lon="4.0733">
        <ele>403.41</ele>
        <time>2020-10-13T14:32:34Z</time>
      </trkpt>
      <trkpt lat="44.3159" lon="4.07341">
        <ele>404.37</ele>
        <time>2020-10-13T14:32:49Z</time>
      </trkpt>
      <trkpt lat="44.31599" lon="4.07356">
        <ele>405.33</ele>
        <time>2020-10-13T14:33:06Z</time>
      </trkpt>
      <trkpt lat="44.31609" lon="4.07369">
        <ele>408.22</ele>
        <time>2020-10-13T14:33:21Z</time>
      </trkpt>
      <trkpt lat="44.31615" lon="4.07385">
        <ele>411.1</ele>
        <time>2020-10-13T14:33:39Z</time>
      </trkpt>
      <trkpt lat="44.31619" lon="4.07394">
        <ele>413.5</ele>
        <time>2020-10-13T14:33:52Z</time>
      </trkpt>
      <trkpt lat="44.31621" lon="4.074">
        <ele>414.95</ele>
        <time>2020-10-13T14:33:59Z</time>
      </trkpt>
      <trkpt lat="44.31626" lon="4.07419">
        <ele>417.83</ele>
        <time>2020-10-13T14:34:16Z</time>
      </trkpt>
      <trkpt lat="44.31625" lon="4.07436">
        <ele>419.27</ele>
        <time>2020-10-13T14:34:31Z</time>
      </trkpt>
      <trkpt lat="44.31626" lon="4.07453">
        <ele>422.16</ele>
        <time>2020-10-13T14:34:48Z</time>
      </trkpt>
      <trkpt lat="44.31626" lon="4.07464">
        <ele>425.04</ele>
        <time>2020-10-13T14:35:05Z</time>
      </trkpt>
      <trkpt lat="44.31625" lon="4.07481">
        <ele>427.44</ele>
        <time>2020-10-13T14:35:20Z</time>
      </trkpt>
      <trkpt lat="44.31619" lon="4.07495">
        <ele>428.89</ele>
        <time>2020-10-13T14:35:36Z</time>
      </trkpt>
      <trkpt lat="44.31604" lon="4.07516">
        <ele>430.33</ele>
        <time>2020-10-13T14:35:54Z</time>
      </trkpt>
      <trkpt lat="44.31596" lon="4.07522">
        <ele>430.81</ele>
        <time>2020-10-13T14:36:05Z</time>
      </trkpt>
      <trkpt lat="44.31581" lon="4.07532">
        <ele>430.81</ele>
        <time>2020-10-13T14:36:20Z</time>
      </trkpt>
      <trkpt lat="44.31564" lon="4.07555">
        <ele>430.81</ele>
        <time>2020-10-13T14:36:37Z</time>
      </trkpt>
      <trkpt lat="44.31554" lon="4.07575">
        <ele>431.77</ele>
        <time>2020-10-13T14:36:52Z</time>
      </trkpt>
      <trkpt lat="44.31548" lon="4.07578">
        <ele>431.29</ele>
        <time>2020-10-13T14:36:57Z</time>
      </trkpt>
      <trkpt lat="44.31533" lon="4.07588">
        <ele>431.29</ele>
        <time>2020-10-13T14:37:13Z</time>
      </trkpt>
      <trkpt lat="44.31521" lon="4.07599">
        <ele>431.29</ele>
        <time>2020-10-13T14:37:25Z</time>
      </trkpt>
      <trkpt lat="44.31502" lon="4.07622">
        <ele>432.25</ele>
        <time>2020-10-13T14:37:44Z</time>
      </trkpt>
      <trkpt lat="44.31492" lon="4.07645">
        <ele>433.21</ele>
        <time>2020-10-13T14:38:01Z</time>
      </trkpt>
      <trkpt lat="44.31489" lon="4.07672">
        <ele>433.21</ele>
        <time>2020-10-13T14:38:17Z</time>
      </trkpt>
      <trkpt lat="44.31488" lon="4.07704">
        <ele>433.69</ele>
        <time>2020-10-13T14:38:37Z</time>
      </trkpt>
      <trkpt lat="44.31485" lon="4.07728">
        <ele>434.65</ele>
        <time>2020-10-13T14:38:55Z</time>
      </trkpt>
      <trkpt lat="44.31489" lon="4.07735">
        <ele>435.13</ele>
        <time>2020-10-13T14:39:10Z</time>
      </trkpt>
      <trkpt lat="44.31492" lon="4.07735">
        <ele>435.61</ele>
        <time>2020-10-13T14:39:24Z</time>
      </trkpt>
      <trkpt lat="44.31499" lon="4.07741">
        <ele>436.1</ele>
        <time>2020-10-13T14:39:38Z</time>
      </trkpt>
      <trkpt lat="44.315" lon="4.07742">
        <ele>436.1</ele>
        <time>2020-10-13T14:39:47Z</time>
      </trkpt>
      <trkpt lat="44.31516" lon="4.0775">
        <ele>437.06</ele>
        <time>2020-10-13T14:40:03Z</time>
      </trkpt>
      <trkpt lat="44.31532" lon="4.07761">
        <ele>437.54</ele>
        <time>2020-10-13T14:40:22Z</time>
      </trkpt>
      <trkpt lat="44.3153" lon="4.07759">
        <ele>437.54</ele>
        <time>2020-10-13T14:40:43Z</time>
      </trkpt>
      <trkpt lat="44.31534" lon="4.07756">
        <ele>437.54</ele>
        <time>2020-10-13T14:41:00Z</time>
      </trkpt>
      <trkpt lat="44.3154" lon="4.07755">
        <ele>437.54</ele>
        <time>2020-10-13T14:41:12Z</time>
      </trkpt>
      <trkpt lat="44.31547" lon="4.07753">
        <ele>436.1</ele>
        <time>2020-10-13T14:41:37Z</time>
      </trkpt>
      <trkpt lat="44.31572" lon="4.07756">
        <ele>434.65</ele>
        <time>2020-10-13T14:41:56Z</time>
      </trkpt>
      <trkpt lat="44.31597" lon="4.07751">
        <ele>433.21</ele>
        <time>2020-10-13T14:42:15Z</time>
      </trkpt>
      <trkpt lat="44.31602" lon="4.0775">
        <ele>432.73</ele>
        <time>2020-10-13T14:42:19Z</time>
      </trkpt>
      <trkpt lat="44.31624" lon="4.0774">
        <ele>431.29</ele>
        <time>2020-10-13T14:42:39Z</time>
      </trkpt>
      <trkpt lat="44.31643" lon="4.07732">
        <ele>429.85</ele>
        <time>2020-10-13T14:42:54Z</time>
      </trkpt>
      <trkpt lat="44.31661" lon="4.07711">
        <ele>426.96</ele>
        <time>2020-10-13T14:43:13Z</time>
      </trkpt>
      <trkpt lat="44.31669" lon="4.07706">
        <ele>425.52</ele>
        <time>2020-10-13T14:43:22Z</time>
      </trkpt>
      <trkpt lat="44.31674" lon="4.07698">
        <ele>425.04</ele>
        <time>2020-10-13T14:43:36Z</time>
      </trkpt>
      <trkpt lat="44.31692" lon="4.07686">
        <ele>423.12</ele>
        <time>2020-10-13T14:43:50Z</time>
      </trkpt>
      <trkpt lat="44.31694" lon="4.07683">
        <ele>423.12</ele>
        <time>2020-10-13T14:43:52Z</time>
      </trkpt>
      <trkpt lat="44.31711" lon="4.07668">
        <ele>420.71</ele>
        <time>2020-10-13T14:44:09Z</time>
      </trkpt>
      <trkpt lat="44.31731" lon="4.07655">
        <ele>418.79</ele>
        <time>2020-10-13T14:44:25Z</time>
      </trkpt>
      <trkpt lat="44.31753" lon="4.07639">
        <ele>417.83</ele>
        <time>2020-10-13T14:44:43Z</time>
      </trkpt>
      <trkpt lat="44.31758" lon="4.07634">
        <ele>417.35</ele>
        <time>2020-10-13T14:44:54Z</time>
      </trkpt>
      <trkpt lat="44.31778" lon="4.07619">
        <ele>414.95</ele>
        <time>2020-10-13T14:45:11Z</time>
      </trkpt>
      <trkpt lat="44.31797" lon="4.07604">
        <ele>413.02</ele>
        <time>2020-10-13T14:45:29Z</time>
      </trkpt>
      <trkpt lat="44.31818" lon="4.07589">
        <ele>411.58</ele>
        <time>2020-10-13T14:45:48Z</time>
      </trkpt>
      <trkpt lat="44.31831" lon="4.0758">
        <ele>411.58</ele>
        <time>2020-10-13T14:45:59Z</time>
      </trkpt>
      <trkpt lat="44.31835" lon="4.07576">
        <ele>411.1</ele>
        <time>2020-10-13T14:46:03Z</time>
      </trkpt>
      <trkpt lat="44.31857" lon="4.07562">
        <ele>410.62</ele>
        <time>2020-10-13T14:46:22Z</time>
      </trkpt>
      <trkpt lat="44.3187" lon="4.07542">
        <ele>410.62</ele>
        <time>2020-10-13T14:46:39Z</time>
      </trkpt>
      <trkpt lat="44.31874" lon="4.07509">
        <ele>410.62</ele>
        <time>2020-10-13T14:46:58Z</time>
      </trkpt>
      <trkpt lat="44.31871" lon="4.07487">
        <ele>410.62</ele>
        <time>2020-10-13T14:47:14Z</time>
      </trkpt>
      <trkpt lat="44.31872" lon="4.07485">
        <ele>410.62</ele>
        <time>2020-10-13T14:47:16Z</time>
      </trkpt>
      <trkpt lat="44.31874" lon="4.07472">
        <ele>410.62</ele>
        <time>2020-10-13T14:47:23Z</time>
      </trkpt>
      <trkpt lat="44.31881" lon="4.07443">
        <ele>410.62</ele>
        <time>2020-10-13T14:47:40Z</time>
      </trkpt>
      <trkpt lat="44.31886" lon="4.07433">
        <ele>412.06</ele>
        <time>2020-10-13T14:47:47Z</time>
      </trkpt>
      <trkpt lat="44.31904" lon="4.07402">
        <ele>412.54</ele>
        <time>2020-10-13T14:48:09Z</time>
      </trkpt>
      <trkpt lat="44.31911" lon="4.07395">
        <ele>412.54</ele>
        <time>2020-10-13T14:48:15Z</time>
      </trkpt>
      <trkpt lat="44.31923" lon="4.0738">
        <ele>413.02</ele>
        <time>2020-10-13T14:48:29Z</time>
      </trkpt>
      <trkpt lat="44.31931" lon="4.07371">
        <ele>413.02</ele>
        <time>2020-10-13T14:48:37Z</time>
      </trkpt>
      <trkpt lat="44.31942" lon="4.07359">
        <ele>413.5</ele>
        <time>2020-10-13T14:48:52Z</time>
      </trkpt>
      <trkpt lat="44.31948" lon="4.07353">
        <ele>413.5</ele>
        <time>2020-10-13T14:49:05Z</time>
      </trkpt>
      <trkpt lat="44.31951" lon="4.07353">
        <ele>413.5</ele>
        <time>2020-10-13T14:49:19Z</time>
      </trkpt>
    </trkseg>
  </trk>
</gpx>